[[{"header":{"parameterUnit":"m.s-1","parameterCategory":1,"la1":31.0,"la2":29.5877,"lo1":-88.7671,"lo2":-86.6584,"dy":0.0162,"dx":0.0185,"nx":115,"ny":88,"refTime":"2023-05-06T12:00:00:Z","depth":0,"parameterNumber":2,"parameterNumberName":"U-component_of_WINDS"},"data":[0.0,0.0,0.0,0.0,0.0,0.0,0.0,0.0,0.0,0.0,0.0,0.0,0.0,0.0,0.0,0.0,0.0,0.0,0.0,0.0,0.0,0.0,0.0,0.0,0.0,0.0,0.0,0.0,0.0,0.0,0.0,0.0,0.0,0.0,0.0,0.0,0.0,0.0,0.0,0.0,0.0,0.0,0.0,0.0,0.0,0.0,0.0,0.0,0.0,0.0,0.0,0.0,0.0,0.0,0.0,0.0,0.0,0.0,0.0,0.0,0.0,0.0,0.0,0.0,0.0,0.0,0.0,0.0,0.0,0.0,0.0,0.0,0.0,0.0,0.0,0.0,0.0,0.0,0.0,0.0,0.0,0.0,0.0,0.0,0.0,0.0,0.0,0.0,0.0,0.0,0.0,0.0,0.0,0.0,0.0,0.0,0.0,0.0,0.0,0.0,0.0,0.0,0.0,0.0,0.0,0.0,0.0,0.0,0.0,0.0,0.0,0.0,0.0,0.0,0.0,0.0,0.0,0.0,0.0,0.0,0.0,0.0,0.0,0.0,0.0,0.0,0.0,0.0,0.0,0.0,0.0,0.0,0.0,0.0,0.0,0.0,0.0,0.0,0.0,0.0,0.0,0.0,0.0,0.0,0.0,0.0,0.0,0.0,0.0,0.0,0.0,0.0,0.0,0.0,0.0,0.0,0.0,0.0,0.0,0.0,0.0,0.0,0.0,0.0,0.0,0.0,0.0,0.0,0.0,0.0,0.0,0.0,0.0,0.0,0.0,0.0,0.0,0.0,0.0,0.0,0.0,0.0,0.0,0.0,0.0,0.0,0.0,0.0,0.0,0.0,0.0,0.0,0.0,0.0,0.0,0.0,0.0,0.0,0.0,0.0,0.0,0.0,0.0,0.0,0.0,0.0,0.0,0.0,0.0,0.0,0.0,0.0,0.0,0.0,0.0,0.0,0.0,0.0,0.0,0.0,0.0,0.0,0.0,0.0,0.0,0.0,0.0,0.0,0.0,0.0,0.0,0.0,0.0,0.0,0.0,0.0,0.0,0.0,0.0,0.0,0.0,0.0,0.0,0.0,0.0,0.0,0.0,0.0,0.0,0.0,0.0,0.0,0.0,0.0,0.0,0.0,0.0,0.0,0.0,0.0,0.0,0.0,0.0,0.0,0.0,0.0,0.0,0.0,0.0,0.0,0.0,0.0,0.0,0.0,0.0,0.0,0.0,0.0,0.0,0.0,0.0,0.0,0.0,0.0,0.0,0.0,0.0,0.0,0.0,0.0,0.0,0.0,0.0,0.0,0.0,0.0,0.0,0.0,0.0,0.0,0.0,0.0,0.0,0.0,0.0,0.0,0.0,0.0,0.0,0.0,0.0,0.0,0.0,0.0,0.0,0.0,0.0,0.0,0.0,0.0,0.0,0.0,0.0,0.0,0.0,0.0,0.0,0.0,0.0,0.0,0.0,0.0,0.0,0.0,0.0,0.0,0.0,0.0,0.0,0.0,0.0,0.0,0.0,0.0,0.0,0.0,0.0,0.0,0.0,0.0,0.0,0.0,0.0,0.0,0.0,0.0,0.0,0.0,0.0,0.0,0.0,0.0,0.0,0.0,0.0,0.0,0.0,0.0,0.0,0.0,0.0,0.0,0.0,0.0,0.0,0.0,0.0,0.0,0.0,0.0,0.0,0.0,0.0,0.0,0.0,0.0,0.0,0.0,0.0,0.0,0.0,0.0,0.0,0.0,0.0,0.0,0.0,0.0,0.0,0.0,0.0,0.0,0.0,0.0,0.0,0.0,0.0,0.0,0.0,0.0,0.0,0.0,0.0,0.0,0.0,0.0,0.0,0.0,0.0,0.0,0.0,0.0,0.0,0.0,0.0,0.0,0.0,0.0,0.0,0.0,0.0,0.0,0.0,0.0,0.0,0.0,0.0,0.0,0.0,0.0,0.0,0.0,0.0,0.0,0.0,0.0,0.0,0.0,0.0,0.0,0.0,0.0,0.0,0.0,0.0,0.0,0.0,0.0,0.0,0.0,0.0,0.0,0.0,0.0,0.0,0.0,0.0,0.0,0.0,0.0,0.0,0.0,0.0,0.0,0.0,0.0,0.0,0.0,0.0,0.0,0.0,0.0,0.0,0.0,0.0,0.0,0.0,0.0,0.0,0.0,0.0,0.0,0.0,0.0,0.0,0.0,0.0,0.0,0.0,0.0,0.0,0.0,0.0,0.0,0.0,0.0,0.0,0.0,0.0,0.0,0.0,0.0,0.0,0.0,0.0,0.0,0.0,0.0,0.0,0.0,0.0,0.0,0.0,0.0,0.0,0.0,0.0,0.0,0.0,0.0,0.0,0.0,0.0,0.0,0.0,0.0,0.0,0.0,0.0,0.0,0.0,0.0,0.0,0.0,0.0,0.0,0.0,0.0,0.0,0.0,0.0,0.0,0.0,0.0,0.0,0.0,0.0,0.0,0.0,0.0,0.0,0.0,0.0,0.0,0.0,0.0,0.0,0.0,0.0,0.0,0.0,0.0,0.0,0.0,0.0,0.0,0.0,0.0,0.0,0.0,0.0,0.0,0.0,0.0,0.0,0.0,0.0,0.0,0.0,0.0,0.0,0.0,0.0,0.0,0.0,0.0,0.0,0.0,0.0,0.0,0.0,0.0,0.0,0.0,0.0,0.0,0.0,0.0,0.0,0.0,0.0,0.0,0.0,0.0,0.0,0.0,0.0,0.0,0.0,0.0,0.0,0.0,0.0,0.0,0.0,0.0,0.0,0.0,0.0,0.0,0.0,0.0,0.0,0.0,0.0,0.0,0.0,0.0,0.0,0.0,0.0,0.0,0.0,0.0,0.0,0.0,0.0,0.0,0.0,0.0,0.0,0.0,0.0,0.0,0.0,0.0,0.0,0.0,0.0,0.0,0.0,0.0,0.0,0.0,0.0,0.0,0.0,0.0,0.0,0.0,0.0,0.0,0.0,0.0,0.0,0.0,0.0,0.0,0.0,0.0,0.0,0.0,0.0,0.0,0.0,0.0,0.0,0.0,0.0,0.0,0.0,0.0,0.0,0.0,0.0,0.0,0.0,0.0,0.0,0.0,0.0,0.0,0.0,0.0,0.0,0.0,0.0,0.0,0.0,0.0,0.0,0.0,0.0,0.0,0.0,0.0,0.0,0.0,0.0,0.0,0.0,0.0,0.0,0.0,0.0,0.0,0.0,0.0,0.0,0.0,0.0,0.0,0.0,0.0,0.0,0.0,0.0,0.0,0.0,0.0,0.0,0.0,0.0,0.0,0.0,0.0,0.0,0.0,0.0,0.0,0.0,0.0,0.0,0.0,0.0,0.0,0.0,0.0,0.0,0.0,0.0,0.0,0.0,0.0,0.0,0.0,0.0,0.0,0.0,0.0,0.0,0.0,0.0,0.0,0.0,0.0,0.0,0.0,0.0,0.0,0.0,0.0,0.0,0.0,0.0,0.0,0.0,0.0,0.0,0.0,0.0,0.0,0.0,0.0,0.0,0.0,0.0,0.0,0.0,0.0,0.0,0.0,0.0,0.0,0.0,0.0,0.0,0.0,0.0,0.0,0.0,0.0,0.0,0.0,0.0,0.0,0.0,0.0,0.0,0.0,0.0,0.0,0.0,0.0,0.0,0.0,0.0,0.0,0.0,0.0,0.0,0.0,0.0,0.0,0.0,0.0,0.0,0.0,0.0,0.0,0.0,0.0,0.0,0.0,0.0,0.0,0.0,0.0,0.0,0.0,0.0,0.0,0.0,0.0,0.0,0.0,0.0,0.0,0.0,0.0,0.0,0.0,0.0,0.0,0.0,0.0,0.0,0.0,0.0,0.0,0.0,0.0,0.0,0.0,0.0,0.0,0.0,0.0,0.0,0.0,0.0,0.0,0.0,0.0,0.0,0.0,0.0,0.0,0.0,0.0,0.0,0.0,0.0,0.0,0.0,0.0,0.0,0.0,0.0,0.0,0.0,0.0,0.0,0.0,0.0,0.0,0.0,0.0,0.0,0.0,0.0,0.0,0.0,0.0,0.0,0.0,0.0,0.0,0.0,0.0,0.0,0.0,0.0,0.0,0.0,0.0,0.0,0.0,0.0,0.0,0.0,0.0,0.0,0.0,0.0,0.0,0.0,0.0,0.0,0.0,0.0,0.0,0.0,0.0,0.0,0.0,0.0,0.0,0.0,0.0,0.0,0.0,0.0,0.0,0.0,0.0,0.0,0.0,0.0,0.0,0.0,0.0,0.0,0.0,0.0,0.0,-4.3562,0.0,0.0,0.0,0.0,0.0,0.0,0.0,0.0,0.0,0.0,0.0,0.0,0.0,0.0,0.0,0.0,0.0,0.0,0.0,0.0,0.0,0.0,0.0,0.0,0.0,0.0,0.0,0.0,0.0,0.0,0.0,0.0,0.0,0.0,0.0,0.0,0.0,0.0,0.0,0.0,0.0,0.0,0.0,0.0,0.0,0.0,0.0,0.0,0.0,0.0,0.0,0.0,0.0,0.0,0.0,0.0,0.0,0.0,0.0,0.0,0.0,0.0,0.0,0.0,0.0,0.0,0.0,0.0,0.0,0.0,0.0,0.0,0.0,0.0,0.0,0.0,0.0,0.0,0.0,0.0,0.0,0.0,0.0,0.0,0.0,0.0,0.0,0.0,0.0,0.0,0.0,0.0,0.0,0.0,0.0,0.0,0.0,0.0,0.0,0.0,0.0,0.0,0.0,0.0,0.0,0.0,0.0,0.0,0.0,0.0,-4.7354,-4.6971,-4.6571,-4.5755,-4.4424,0.0,0.0,0.0,0.0,0.0,0.0,0.0,0.0,0.0,0.0,0.0,0.0,0.0,0.0,0.0,0.0,0.0,0.0,0.0,0.0,0.0,0.0,0.0,0.0,0.0,0.0,0.0,0.0,0.0,0.0,0.0,0.0,0.0,0.0,0.0,0.0,0.0,0.0,0.0,0.0,0.0,0.0,0.0,0.0,0.0,0.0,0.0,0.0,0.0,0.0,0.0,0.0,0.0,0.0,0.0,0.0,0.0,0.0,0.0,0.0,0.0,0.0,0.0,0.0,0.0,0.0,0.0,0.0,0.0,0.0,0.0,0.0,0.0,0.0,0.0,0.0,0.0,0.0,0.0,0.0,0.0,0.0,0.0,0.0,0.0,0.0,0.0,0.0,0.0,0.0,0.0,0.0,0.0,0.0,0.0,0.0,0.0,0.0,0.0,0.0,0.0,0.0,0.0,0.0,0.0,0.0,0.0,0.0,0.0,0.0,0.0,0.0,-4.7596,-4.6609,-4.4709,0.0,0.0,0.0,0.0,0.0,0.0,0.0,0.0,0.0,0.0,0.0,0.0,0.0,0.0,0.0,0.0,0.0,0.0,0.0,0.0,0.0,0.0,0.0,0.0,0.0,0.0,0.0,0.0,0.0,0.0,0.0,0.0,0.0,0.0,0.0,0.0,0.0,0.0,0.0,0.0,0.0,0.0,0.0,0.0,0.0,0.0,0.0,0.0,0.0,0.0,0.0,0.0,0.0,0.0,0.0,0.0,0.0,0.0,0.0,0.0,0.0,0.0,0.0,0.0,0.0,0.0,0.0,0.0,0.0,0.0,0.0,0.0,0.0,0.0,0.0,0.0,0.0,0.0,0.0,0.0,0.0,0.0,0.0,0.0,0.0,0.0,0.0,0.0,0.0,0.0,0.0,0.0,0.0,0.0,0.0,0.0,0.0,0.0,0.0,0.0,0.0,0.0,0.0,0.0,0.0,0.0,0.0,0.0,0.0,0.0,-4.7852,-4.8553,-4.7866,0.0,-4.3793,0.0,0.0,0.0,0.0,0.0,0.0,0.0,0.0,0.0,0.0,0.0,0.0,0.0,0.0,0.0,0.0,0.0,0.0,0.0,0.0,0.0,0.0,0.0,0.0,0.0,0.0,0.0,0.0,0.0,0.0,0.0,0.0,0.0,0.0,0.0,0.0,0.0,0.0,0.0,0.0,0.0,0.0,0.0,0.0,0.0,0.0,0.0,0.0,0.0,0.0,0.0,0.0,0.0,0.0,0.0,0.0,0.0,0.0,0.0,0.0,0.0,0.0,0.0,0.0,0.0,0.0,0.0,0.0,0.0,0.0,0.0,0.0,0.0,0.0,0.0,0.0,0.0,0.0,0.0,0.0,0.0,0.0,0.0,0.0,0.0,0.0,0.0,0.0,0.0,0.0,0.0,0.0,0.0,0.0,0.0,0.0,0.0,0.0,0.0,0.0,0.0,0.0,0.0,0.0,0.0,0.0,0.0,0.0,0.0,0.0,-4.958,-4.9465,-4.8201,-4.6281,0.0,0.0,0.0,0.0,0.0,0.0,0.0,0.0,0.0,0.0,0.0,0.0,0.0,0.0,0.0,0.0,0.0,0.0,0.0,0.0,0.0,0.0,0.0,0.0,0.0,0.0,0.0,0.0,0.0,0.0,0.0,0.0,0.0,0.0,0.0,0.0,0.0,0.0,0.0,0.0,0.0,0.0,0.0,0.0,0.0,0.0,0.0,0.0,0.0,0.0,0.0,0.0,0.0,0.0,0.0,0.0,0.0,0.0,0.0,0.0,0.0,0.0,0.0,0.0,0.0,0.0,0.0,0.0,0.0,0.0,0.0,0.0,0.0,0.0,0.0,0.0,0.0,0.0,0.0,0.0,0.0,0.0,0.0,0.0,0.0,0.0,0.0,0.0,0.0,0.0,0.0,0.0,0.0,0.0,0.0,0.0,0.0,0.0,0.0,0.0,0.0,0.0,0.0,0.0,0.0,0.0,0.0,0.0,0.0,0.0,-4.9858,-5.0232,-4.9636,-4.8498,-4.6518,-4.3692,0.0,0.0,0.0,0.0,0.0,0.0,0.0,0.0,0.0,0.0,0.0,0.0,0.0,0.0,0.0,0.0,0.0,0.0,0.0,0.0,0.0,0.0,0.0,0.0,0.0,0.0,0.0,0.0,0.0,0.0,0.0,0.0,0.0,0.0,0.0,0.0,0.0,0.0,0.0,0.0,0.0,0.0,0.0,0.0,0.0,0.0,0.0,0.0,0.0,0.0,0.0,0.0,0.0,0.0,0.0,0.0,0.0,0.0,0.0,0.0,0.0,0.0,0.0,0.0,0.0,0.0,0.0,0.0,0.0,0.0,0.0,0.0,0.0,0.0,0.0,0.0,0.0,0.0,0.0,0.0,0.0,0.0,0.0,0.0,0.0,0.0,0.0,0.0,0.0,0.0,0.0,0.0,0.0,0.0,0.0,0.0,0.0,0.0,0.0,0.0,0.0,0.0,0.0,0.0,0.0,0.0,0.0,0.0,-4.8545,-4.8783,-4.8844,-4.8881,-4.8768,-4.7136,0.0,0.0,0.0,0.0,0.0,0.0,0.0,0.0,0.0,0.0,0.0,0.0,0.0,0.0,0.0,0.0,0.0,0.0,0.0,0.0,0.0,0.0,0.0,0.0,0.0,0.0,0.0,0.0,0.0,0.0,0.0,0.0,0.0,0.0,0.0,0.0,0.0,0.0,0.0,0.0,0.0,0.0,0.0,0.0,0.0,0.0,0.0,0.0,0.0,0.0,0.0,0.0,0.0,0.0,0.0,0.0,0.0,0.0,0.0,0.0,0.0,0.0,0.0,0.0,0.0,0.0,0.0,0.0,0.0,0.0,0.0,0.0,0.0,0.0,0.0,0.0,0.0,0.0,0.0,0.0,0.0,0.0,0.0,0.0,0.0,0.0,0.0,0.0,0.0,0.0,0.0,0.0,0.0,0.0,0.0,0.0,0.0,0.0,0.0,0.0,0.0,0.0,0.0,0.0,0.0,0.0,0.0,0.0,0.0,-4.8541,-4.9685,-4.979,-4.8783,-4.8748,-4.7096,0.0,0.0,0.0,0.0,0.0,0.0,0.0,0.0,0.0,0.0,0.0,0.0,0.0,0.0,0.0,0.0,0.0,0.0,0.0,0.0,0.0,0.0,0.0,0.0,0.0,0.0,0.0,0.0,0.0,0.0,0.0,0.0,0.0,0.0,0.0,0.0,0.0,0.0,0.0,0.0,0.0,0.0,0.0,0.0,0.0,0.0,0.0,0.0,0.0,0.0,0.0,0.0,0.0,0.0,0.0,0.0,0.0,0.0,0.0,0.0,0.0,0.0,0.0,0.0,0.0,0.0,0.0,0.0,0.0,0.0,0.0,0.0,0.0,0.0,0.0,0.0,0.0,0.0,0.0,0.0,0.0,0.0,0.0,0.0,0.0,0.0,0.0,0.0,0.0,0.0,0.0,0.0,0.0,0.0,0.0,0.0,0.0,0.0,0.0,0.0,0.0,0.0,0.0,0.0,0.0,0.0,0.0,0.0,0.0,-4.8567,0.0,-5.0383,-4.8797,-4.8704,-4.7075,0.0,0.0,0.0,0.0,0.0,0.0,0.0,0.0,0.0,0.0,0.0,0.0,0.0,0.0,0.0,0.0,0.0,0.0,0.0,0.0,0.0,0.0,0.0,0.0,0.0,0.0,0.0,0.0,0.0,0.0,0.0,0.0,0.0,0.0,0.0,0.0,0.0,0.0,0.0,0.0,0.0,0.0,0.0,0.0,0.0,0.0,0.0,0.0,0.0,0.0,0.0,0.0,0.0,0.0,0.0,0.0,0.0,0.0,0.0,0.0,0.0,0.0,0.0,0.0,0.0,0.0,0.0,0.0,0.0,0.0,0.0,0.0,0.0,0.0,0.0,0.0,0.0,0.0,0.0,0.0,0.0,0.0,0.0,0.0,0.0,0.0,0.0,0.0,0.0,0.0,0.0,0.0,0.0,0.0,0.0,0.0,0.0,0.0,0.0,0.0,0.0,0.0,0.0,0.0,0.0,0.0,0.0,0.0,-4.6855,-4.8613,-5.0264,-5.0351,-4.8788,-4.8711,-4.7082,0.0,0.0,0.0,0.0,0.0,0.0,0.0,0.0,0.0,0.0,0.0,0.0,0.0,0.0,0.0,0.0,0.0,0.0,0.0,0.0,0.0,0.0,0.0,0.0,0.0,0.0,0.0,0.0,0.0,0.0,0.0,0.0,0.0,0.0,0.0,0.0,0.0,0.0,0.0,0.0,0.0,0.0,0.0,0.0,0.0,0.0,0.0,0.0,0.0,0.0,0.0,0.0,0.0,0.0,0.0,0.0,0.0,0.0,0.0,0.0,0.0,0.0,0.0,0.0,0.0,0.0,0.0,0.0,0.0,0.0,0.0,0.0,0.0,0.0,0.0,0.0,0.0,0.0,0.0,0.0,0.0,0.0,0.0,0.0,0.0,0.0,0.0,0.0,0.0,0.0,0.0,0.0,0.0,0.0,0.0,0.0,0.0,0.0,0.0,0.0,0.0,0.0,0.0,0.0,0.0,0.0,0.0,0.0,0.0,-5.0141,-5.0732,-5.0532,-4.9507,-4.8885,-4.7212,0.0,0.0,0.0,0.0,0.0,0.0,0.0,0.0,0.0,0.0,0.0,0.0,0.0,0.0,0.0,0.0,0.0,0.0,0.0,0.0,0.0,0.0,0.0,0.0,0.0,0.0,0.0,0.0,0.0,0.0,0.0,0.0,0.0,0.0,0.0,0.0,0.0,0.0,0.0,0.0,0.0,0.0,0.0,0.0,0.0,0.0,0.0,0.0,0.0,0.0,0.0,0.0,0.0,0.0,0.0,0.0,0.0,0.0,0.0,0.0,0.0,0.0,0.0,0.0,0.0,0.0,0.0,0.0,0.0,0.0,0.0,0.0,0.0,0.0,0.0,0.0,0.0,0.0,0.0,0.0,0.0,0.0,0.0,0.0,0.0,0.0,0.0,0.0,0.0,0.0,0.0,0.0,0.0,0.0,0.0,0.0,0.0,0.0,0.0,0.0,0.0,0.0,0.0,0.0,0.0,0.0,0.0,0.0,0.0,-5.1556,-5.1525,-5.1073,-5.0274,-4.9375,-4.754,-4.4639,0.0,0.0,0.0,0.0,0.0,0.0,0.0,0.0,0.0,0.0,0.0,0.0,0.0,0.0,0.0,0.0,0.0,0.0,0.0,0.0,0.0,0.0,0.0,0.0,0.0,0.0,0.0,0.0,0.0,0.0,0.0,0.0,0.0,0.0,0.0,0.0,0.0,0.0,0.0,0.0,0.0,0.0,0.0,0.0,0.0,0.0,0.0,0.0,0.0,0.0,0.0,0.0,0.0,0.0,0.0,0.0,0.0,0.0,0.0,0.0,0.0,0.0,0.0,0.0,0.0,0.0,0.0,0.0,0.0,0.0,0.0,0.0,0.0,0.0,0.0,0.0,0.0,0.0,0.0,0.0,0.0,0.0,0.0,0.0,0.0,0.0,0.0,0.0,0.0,0.0,0.0,0.0,0.0,0.0,0.0,0.0,0.0,0.0,0.0,0.0,0.0,0.0,0.0,0.0,0.0,0.0,0.0,0.0,-5.3,-5.2655,-5.2039,-5.1169,-5.0179,-4.8044,0.0,0.0,0.0,0.0,0.0,0.0,0.0,0.0,0.0,0.0,0.0,0.0,0.0,0.0,0.0,0.0,0.0,0.0,0.0,0.0,0.0,0.0,0.0,0.0,0.0,0.0,0.0,0.0,0.0,0.0,0.0,0.0,0.0,0.0,0.0,0.0,0.0,0.0,0.0,0.0,0.0,0.0,0.0,0.0,0.0,0.0,0.0,0.0,0.0,0.0,0.0,0.0,0.0,0.0,0.0,0.0,0.0,0.0,0.0,0.0,0.0,0.0,0.0,0.0,0.0,0.0,0.0,0.0,0.0,0.0,0.0,0.0,0.0,0.0,0.0,0.0,0.0,0.0,0.0,0.0,0.0,0.0,0.0,0.0,0.0,0.0,0.0,0.0,0.0,0.0,0.0,0.0,0.0,0.0,0.0,0.0,0.0,0.0,0.0,0.0,0.0,0.0,0.0,0.0,0.0,0.0,0.0,0.0,0.0,-5.3649,-5.4898,-5.4598,-5.2684,-5.118,-4.9082,0.0,0.0,0.0,0.0,0.0,0.0,0.0,0.0,0.0,0.0,0.0,0.0,0.0,0.0,0.0,0.0,0.0,0.0,0.0,0.0,0.0,0.0,0.0,0.0,0.0,0.0,0.0,0.0,0.0,0.0,0.0,0.0,0.0,0.0,0.0,0.0,0.0,0.0,0.0,0.0,0.0,0.0,0.0,0.0,0.0,0.0,0.0,0.0,0.0,0.0,0.0,0.0,0.0,0.0,0.0,0.0,0.0,0.0,0.0,0.0,0.0,0.0,0.0,0.0,0.0,0.0,0.0,0.0,0.0,0.0,0.0,0.0,0.0,0.0,0.0,0.0,0.0,0.0,0.0,0.0,0.0,0.0,0.0,0.0,0.0,0.0,0.0,0.0,0.0,0.0,0.0,0.0,0.0,0.0,0.0,0.0,0.0,0.0,0.0,0.0,0.0,0.0,0.0,0.0,0.0,0.0,0.0,0.0,-5.1788,-5.4329,-5.6173,-5.646,-5.5066,-5.2796,-5.0227,0.0,0.0,0.0,0.0,0.0,0.0,0.0,0.0,0.0,0.0,0.0,0.0,0.0,0.0,0.0,0.0,0.0,0.0,0.0,0.0,0.0,0.0,0.0,0.0,0.0,0.0,0.0,0.0,0.0,0.0,0.0,0.0,0.0,0.0,0.0,0.0,0.0,0.0,0.0,0.0,0.0,0.0,0.0,0.0,0.0,0.0,0.0,0.0,0.0,0.0,0.0,0.0,0.0,0.0,0.0,0.0,0.0,0.0,0.0,0.0,0.0,0.0,0.0,0.0,0.0,0.0,0.0,0.0,0.0,0.0,0.0,0.0,0.0,0.0,0.0,0.0,0.0,0.0,0.0,0.0,0.0,0.0,0.0,0.0,0.0,0.0,0.0,0.0,0.0,0.0,0.0,0.0,0.0,0.0,0.0,0.0,0.0,0.0,0.0,0.0,0.0,0.0,0.0,0.0,0.0,0.0,0.0,0.0,-5.2445,-5.4943,-5.6896,-5.7806,-5.7486,-5.4535,-5.1367,0.0,0.0,0.0,0.0,0.0,0.0,0.0,0.0,0.0,0.0,0.0,0.0,0.0,0.0,0.0,0.0,0.0,0.0,0.0,0.0,0.0,0.0,0.0,0.0,0.0,0.0,0.0,0.0,0.0,0.0,0.0,0.0,0.0,0.0,0.0,0.0,0.0,0.0,0.0,0.0,0.0,0.0,0.0,0.0,0.0,0.0,0.0,0.0,0.0,0.0,0.0,0.0,0.0,0.0,0.0,0.0,0.0,0.0,0.0,0.0,0.0,0.0,0.0,0.0,0.0,0.0,0.0,0.0,0.0,0.0,0.0,0.0,0.0,0.0,0.0,0.0,0.0,0.0,0.0,0.0,0.0,0.0,0.0,0.0,0.0,0.0,0.0,0.0,0.0,0.0,0.0,0.0,0.0,0.0,0.0,0.0,0.0,0.0,0.0,0.0,0.0,0.0,0.0,0.0,0.0,0.0,0.0,0.0,-5.3599,-5.5527,-5.7945,-5.863,-5.7449,-5.499,-5.2334,0.0,0.0,0.0,0.0,0.0,0.0,0.0,0.0,0.0,0.0,0.0,0.0,0.0,0.0,0.0,0.0,0.0,0.0,0.0,0.0,0.0,0.0,0.0,0.0,0.0,0.0,0.0,0.0,0.0,0.0,0.0,0.0,0.0,0.0,0.0,0.0,0.0,0.0,0.0,0.0,0.0,0.0,0.0,0.0,0.0,0.0,0.0,0.0,-4.638,0.0,0.0,0.0,0.0,0.0,0.0,0.0,0.0,0.0,0.0,0.0,0.0,0.0,0.0,0.0,0.0,0.0,0.0,0.0,0.0,0.0,0.0,0.0,0.0,0.0,0.0,0.0,0.0,0.0,0.0,0.0,0.0,0.0,0.0,0.0,0.0,0.0,0.0,0.0,0.0,0.0,0.0,0.0,0.0,0.0,0.0,0.0,0.0,0.0,0.0,0.0,0.0,0.0,0.0,0.0,0.0,0.0,0.0,0.0,-5.3202,-5.4938,-5.711,-5.7857,-5.6986,-5.5082,-5.2704,0.0,0.0,0.0,0.0,0.0,0.0,0.0,0.0,0.0,0.0,0.0,0.0,0.0,0.0,0.0,0.0,0.0,0.0,0.0,0.0,0.0,0.0,0.0,0.0,0.0,0.0,0.0,0.0,0.0,0.0,0.0,0.0,0.0,0.0,0.0,0.0,0.0,0.0,0.0,0.0,0.0,0.0,0.0,0.0,0.0,0.0,0.0,0.0,0.0,0.0,0.0,0.0,0.0,0.0,0.0,0.0,0.0,0.0,0.0,0.0,0.0,0.0,0.0,0.0,0.0,0.0,0.0,0.0,0.0,0.0,0.0,0.0,0.0,0.0,0.0,0.0,0.0,0.0,0.0,0.0,0.0,0.0,0.0,0.0,0.0,0.0,0.0,0.0,0.0,0.0,0.0,0.0,0.0,0.0,0.0,0.0,0.0,0.0,0.0,0.0,0.0,0.0,0.0,0.0,0.0,0.0,0.0,-5.0355,-5.2473,-5.4186,-5.5753,-5.6444,-5.6183,-5.4818,-5.2619,-4.9476,0.0,0.0,0.0,0.0,0.0,0.0,0.0,0.0,0.0,0.0,0.0,0.0,0.0,0.0,0.0,0.0,0.0,0.0,0.0,0.0,0.0,0.0,0.0,0.0,0.0,0.0,0.0,0.0,0.0,0.0,0.0,0.0,0.0,0.0,0.0,0.0,0.0,0.0,-4.2085,-4.395,0.0,0.0,0.0,0.0,0.0,0.0,0.0,0.0,-4.6035,0.0,0.0,0.0,0.0,0.0,0.0,0.0,0.0,0.0,0.0,0.0,0.0,0.0,0.0,0.0,0.0,0.0,0.0,0.0,0.0,0.0,0.0,0.0,0.0,0.0,0.0,0.0,0.0,0.0,0.0,0.0,0.0,0.0,0.0,0.0,0.0,0.0,0.0,0.0,0.0,0.0,0.0,0.0,0.0,0.0,0.0,0.0,0.0,0.0,0.0,0.0,0.0,0.0,0.0,0.0,0.0,-4.8438,-5.0916,-5.3027,-5.472,-5.5586,-5.5518,-5.4466,-5.3905,-5.1844,-4.8124,0.0,0.0,0.0,0.0,0.0,0.0,0.0,0.0,0.0,0.0,0.0,0.0,0.0,0.0,0.0,0.0,0.0,0.0,0.0,0.0,0.0,0.0,0.0,0.0,0.0,0.0,0.0,0.0,0.0,0.0,0.0,0.0,0.0,0.0,0.0,0.0,0.0,0.0,0.0,-4.3869,-4.5068,0.0,0.0,0.0,0.0,0.0,0.0,0.0,0.0,-4.6283,0.0,0.0,0.0,0.0,0.0,0.0,0.0,0.0,0.0,0.0,0.0,0.0,0.0,0.0,0.0,0.0,0.0,0.0,0.0,0.0,0.0,0.0,0.0,0.0,0.0,0.0,0.0,0.0,0.0,0.0,0.0,0.0,0.0,0.0,0.0,0.0,0.0,0.0,0.0,0.0,0.0,0.0,0.0,0.0,0.0,0.0,0.0,0.0,0.0,0.0,0.0,0.0,0.0,0.0,0.0,-4.8345,-4.9963,-5.1805,-5.3834,-5.4638,-5.4533,-5.3516,-5.2974,-5.1164,0.0,0.0,0.0,0.0,0.0,0.0,0.0,0.0,0.0,0.0,0.0,0.0,0.0,0.0,0.0,0.0,0.0,0.0,0.0,0.0,0.0,0.0,0.0,0.0,0.0,0.0,0.0,0.0,0.0,0.0,0.0,0.0,0.0,0.0,0.0,0.0,0.0,0.0,0.0,0.0,-4.4002,-4.4858,-4.4931,0.0,0.0,0.0,0.0,0.0,0.0,-4.6121,-4.5877,0.0,0.0,0.0,0.0,0.0,0.0,0.0,0.0,0.0,0.0,0.0,0.0,0.0,0.0,0.0,0.0,0.0,0.0,0.0,0.0,0.0,0.0,0.0,0.0,0.0,0.0,0.0,0.0,0.0,0.0,0.0,0.0,0.0,0.0,0.0,0.0,0.0,0.0,0.0,0.0,0.0,0.0,0.0,0.0,0.0,0.0,0.0,0.0,0.0,0.0,0.0,0.0,0.0,0.0,0.0,-4.7722,-4.8782,-5.0331,-5.2539,-5.3375,-5.3361,-5.2458,-5.188,-5.0266,0.0,0.0,0.0,0.0,0.0,0.0,0.0,0.0,0.0,0.0,0.0,0.0,0.0,0.0,0.0,0.0,0.0,0.0,0.0,0.0,0.0,0.0,0.0,0.0,0.0,0.0,0.0,0.0,0.0,0.0,0.0,0.0,0.0,0.0,0.0,0.0,0.0,0.0,0.0,0.0,0.0,-4.4861,-4.4744,-4.4985,0.0,0.0,0.0,0.0,-4.5601,-4.5649,0.0,0.0,0.0,0.0,0.0,0.0,0.0,0.0,0.0,0.0,0.0,0.0,0.0,0.0,0.0,0.0,0.0,0.0,0.0,0.0,0.0,0.0,0.0,0.0,0.0,0.0,0.0,0.0,0.0,0.0,0.0,0.0,0.0,0.0,0.0,0.0,0.0,0.0,0.0,0.0,0.0,0.0,0.0,0.0,0.0,0.0,0.0,0.0,0.0,0.0,0.0,0.0,0.0,0.0,0.0,0.0,-4.6478,-4.8016,-4.9589,-5.1253,-5.2004,-5.179,-5.0559,-5.0275,-4.8728,0.0,0.0,0.0,0.0,0.0,0.0,0.0,0.0,0.0,0.0,0.0,0.0,0.0,0.0,0.0,0.0,0.0,0.0,0.0,0.0,0.0,0.0,0.0,0.0,0.0,0.0,0.0,0.0,0.0,0.0,0.0,0.0,0.0,0.0,0.0,0.0,0.0,0.0,0.0,0.0,0.0,-4.5308,-4.4548,-4.5221,-4.5549,0.0,0.0,-4.5285,-4.6004,-4.618,0.0,0.0,0.0,0.0,0.0,0.0,0.0,0.0,0.0,0.0,0.0,0.0,0.0,0.0,0.0,0.0,0.0,0.0,0.0,0.0,0.0,0.0,0.0,0.0,0.0,0.0,0.0,0.0,0.0,0.0,0.0,0.0,0.0,0.0,0.0,0.0,0.0,0.0,0.0,0.0,0.0,0.0,0.0,0.0,0.0,0.0,0.0,0.0,0.0,0.0,0.0,0.0,0.0,0.0,0.0,-4.2685,-4.5795,-4.6516,-4.8049,-5.0401,-5.037,-5.024,-5.0134,-4.9268,-4.7765,0.0,0.0,0.0,0.0,0.0,0.0,0.0,0.0,0.0,0.0,0.0,0.0,0.0,0.0,0.0,0.0,0.0,0.0,0.0,0.0,0.0,0.0,0.0,0.0,0.0,0.0,0.0,0.0,0.0,0.0,0.0,0.0,0.0,0.0,0.0,0.0,0.0,0.0,0.0,0.0,0.0,0.0,-4.421,-4.4576,0.0,0.0,0.0,-4.5254,-4.5191,0.0,0.0,0.0,0.0,0.0,0.0,0.0,0.0,0.0,0.0,0.0,0.0,0.0,0.0,0.0,0.0,0.0,0.0,0.0,0.0,0.0,0.0,0.0,0.0,0.0,0.0,0.0,0.0,0.0,0.0,0.0,0.0,0.0,0.0,0.0,0.0,0.0,0.0,0.0,0.0,0.0,0.0,0.0,0.0,0.0,0.0,0.0,0.0,0.0,0.0,0.0,0.0,0.0,0.0,0.0,0.0,0.0,-4.502,-4.5228,-4.6612,-4.9243,-4.8995,-4.8985,-4.9331,-4.8158,0.0,0.0,0.0,0.0,0.0,0.0,0.0,0.0,0.0,0.0,0.0,0.0,0.0,0.0,0.0,0.0,0.0,0.0,0.0,0.0,0.0,0.0,0.0,0.0,0.0,0.0,0.0,-3.6388,0.0,0.0,0.0,0.0,0.0,0.0,0.0,0.0,0.0,0.0,0.0,0.0,0.0,0.0,-4.333,-4.3893,-4.4125,-4.418,0.0,0.0,-4.4863,-4.4377,-4.5034,-4.5176,0.0,0.0,0.0,0.0,0.0,0.0,0.0,0.0,0.0,0.0,0.0,0.0,0.0,0.0,0.0,0.0,0.0,0.0,0.0,0.0,0.0,0.0,0.0,0.0,0.0,0.0,0.0,0.0,0.0,0.0,0.0,0.0,0.0,0.0,0.0,0.0,0.0,0.0,0.0,0.0,0.0,0.0,0.0,0.0,0.0,0.0,0.0,0.0,0.0,0.0,0.0,0.0,0.0,0.0,0.0,-4.3728,-4.4568,-4.574,-4.735,-4.8076,-4.8093,-4.7385,-4.6648,-4.5474,0.0,0.0,0.0,0.0,0.0,0.0,0.0,0.0,0.0,0.0,0.0,0.0,0.0,0.0,0.0,0.0,0.0,0.0,0.0,0.0,0.0,0.0,0.0,0.0,0.0,0.0,0.0,0.0,0.0,0.0,0.0,0.0,0.0,0.0,0.0,0.0,0.0,0.0,0.0,0.0,0.0,-4.371,-4.3646,-4.4274,-4.4477,0.0,0.0,-4.3851,-4.3913,-4.461,-4.4896,-4.4177,0.0,0.0,0.0,0.0,0.0,0.0,0.0,0.0,0.0,0.0,0.0,0.0,0.0,0.0,0.0,0.0,0.0,0.0,0.0,0.0,0.0,0.0,0.0,0.0,0.0,0.0,0.0,0.0,0.0,0.0,0.0,0.0,0.0,0.0,0.0,0.0,0.0,0.0,0.0,0.0,0.0,0.0,0.0,0.0,0.0,0.0,0.0,0.0,0.0,0.0,0.0,0.0,0.0,-4.0885,-4.3276,-4.3556,-4.4587,-4.6424,-4.6399,-4.6355,-4.6527,-4.5442,-4.4344,0.0,0.0,0.0,0.0,0.0,0.0,0.0,0.0,0.0,0.0,0.0,0.0,0.0,0.0,0.0,0.0,0.0,0.0,0.0,0.0,0.0,0.0,0.0,0.0,0.0,0.0,0.0,0.0,-3.7683,-3.7897,-3.7984,0.0,0.0,0.0,0.0,0.0,0.0,0.0,0.0,0.0,0.0,-4.2927,-4.3352,-4.3648,0.0,0.0,-4.3901,-4.4083,-4.3603,-4.4278,-4.4438,-4.3197,-4.31,0.0,0.0,0.0,0.0,0.0,0.0,0.0,0.0,0.0,0.0,0.0,0.0,0.0,0.0,0.0,0.0,0.0,0.0,0.0,0.0,0.0,0.0,0.0,0.0,0.0,0.0,0.0,0.0,0.0,0.0,0.0,0.0,0.0,0.0,0.0,0.0,0.0,0.0,0.0,0.0,0.0,0.0,0.0,0.0,0.0,0.0,0.0,0.0,0.0,0.0,0.0,0.0,-4.1047,-4.2944,-4.3126,-4.4025,-4.574,-4.5224,-4.5162,-4.5567,-4.4258,-4.3243,0.0,0.0,0.0,0.0,0.0,0.0,0.0,0.0,0.0,0.0,0.0,0.0,0.0,0.0,0.0,0.0,0.0,0.0,0.0,0.0,0.0,0.0,0.0,0.0,0.0,0.0,0.0,0.0,-3.7577,-3.7613,-3.7667,0.0,0.0,0.0,0.0,0.0,0.0,0.0,0.0,0.0,0.0,-4.2011,-4.3014,-4.3105,-4.3087,-4.3142,-4.3689,-4.3889,-4.3323,-4.3797,-4.3833,-4.2717,0.0,0.0,0.0,0.0,0.0,0.0,0.0,0.0,0.0,0.0,0.0,0.0,0.0,0.0,0.0,0.0,0.0,0.0,0.0,0.0,0.0,0.0,0.0,0.0,0.0,0.0,0.0,0.0,0.0,0.0,0.0,0.0,0.0,0.0,0.0,0.0,0.0,0.0,0.0,0.0,0.0,0.0,0.0,0.0,0.0,0.0,0.0,0.0,0.0,0.0,0.0,0.0,0.0,-4.122,-4.2689,-4.344,-4.4226,-4.4995,-4.4875,-4.472,-4.4502,-4.2962,-4.2132,-4.2082,0.0,0.0,0.0,0.0,0.0,0.0,0.0,0.0,0.0,0.0,0.0,0.0,0.0,0.0,0.0,0.0,0.0,0.0,0.0,0.0,0.0,0.0,0.0,0.0,0.0,0.0,-3.7108,-3.7222,-3.7334,0.0,0.0,0.0,0.0,0.0,0.0,0.0,0.0,0.0,0.0,-4.0581,-4.1089,-4.2569,-4.2803,-4.2786,-4.2804,-4.2899,-4.2975,-4.305,-4.3104,-4.3104,0.0,0.0,0.0,0.0,0.0,0.0,0.0,0.0,0.0,0.0,0.0,0.0,0.0,0.0,0.0,0.0,0.0,0.0,0.0,0.0,0.0,0.0,0.0,0.0,0.0,0.0,0.0,-3.6115,-3.5691,0.0,0.0,0.0,0.0,0.0,0.0,0.0,0.0,0.0,0.0,0.0,-3.6671,-3.6619,0.0,0.0,0.0,0.0,0.0,0.0,0.0,0.0,0.0,0.0,0.0,0.0,-4.14,-4.2286,-4.3047,-4.3753,-4.4378,-4.4355,-4.4196,-4.3885,-4.2439,-4.1139,-4.0082,0.0,0.0,0.0,0.0,0.0,0.0,0.0,0.0,0.0,0.0,0.0,0.0,0.0,0.0,0.0,0.0,0.0,0.0,0.0,0.0,0.0,0.0,0.0,0.0,0.0,-3.6806,0.0,0.0,0.0,0.0,0.0,0.0,0.0,0.0,0.0,0.0,0.0,-3.8923,-3.9554,-4.0041,-4.0725,-4.1732,-4.1857,-4.2056,0.0,0.0,0.0,0.0,0.0,0.0,0.0,0.0,0.0,0.0,0.0,0.0,0.0,0.0,-3.9971,-3.9681,-3.945,-3.9285,-3.935,0.0,0.0,0.0,0.0,0.0,0.0,0.0,0.0,0.0,0.0,0.0,0.0,0.0,0.0,0.0,0.0,-3.5668,0.0,0.0,0.0,0.0,0.0,0.0,0.0,0.0,-3.6722,-3.6946,-3.6974,-3.7086,-3.7141,0.0,-3.6958,-3.718,0.0,0.0,0.0,0.0,0.0,0.0,0.0,0.0,-4.1456,-4.1959,-4.2858,-4.3538,-4.3902,-4.3894,-4.37,-4.3369,-4.1818,-4.023,-3.8672,-3.8882,-3.8867,0.0,0.0,0.0,0.0,0.0,0.0,0.0,0.0,0.0,0.0,0.0,0.0,0.0,0.0,0.0,0.0,0.0,0.0,0.0,0.0,0.0,0.0,0.0,-3.6564,0.0,0.0,0.0,0.0,0.0,0.0,0.0,0.0,0.0,-3.7503,-3.8273,-3.8954,-3.9297,-4.0014,-4.0677,-4.1119,0.0,0.0,0.0,0.0,0.0,0.0,0.0,-4.0678,-4.0194,-3.9947,-3.9626,-3.899,-3.9,-3.9283,-3.9859,0.0,0.0,-3.9342,-3.9149,-3.9036,-3.9073,-3.9101,-3.9175,-3.9259,-3.9376,-3.9489,0.0,0.0,0.0,0.0,0.0,0.0,0.0,0.0,-3.5433,-3.5429,0.0,-3.549,0.0,0.0,0.0,0.0,0.0,0.0,0.0,0.0,-3.7357,-3.7997,-3.8169,-3.851,-3.8852,-3.9108,-3.8263,-3.8044,-3.8319,-3.7355,0.0,0.0,0.0,0.0,0.0,0.0,-4.1345,-4.1721,-4.2908,-4.3578,-4.3549,-4.3432,-4.3157,-4.2754,-4.1118,-3.9475,-3.7995,-3.816,-3.8371,-3.8518,-3.8095,0.0,0.0,0.0,0.0,0.0,0.0,0.0,0.0,0.0,0.0,0.0,0.0,0.0,0.0,0.0,0.0,0.0,0.0,0.0,0.0,-3.6191,0.0,0.0,0.0,0.0,0.0,0.0,0.0,0.0,0.0,0.0,-3.7182,-3.8027,-3.8867,-3.9615,0.0,0.0,0.0,0.0,-4.1766,-4.1057,-4.1014,-4.1036,-4.0982,-4.0281,-3.9743,-3.9706,0.0,0.0,-3.8179,-3.8085,-3.8206,-3.8368,-3.8455,-3.8688,-3.9573,-3.9182,-3.8822,-3.8877,-3.8954,-3.9026,-3.9073,-3.9142,-3.9237,-3.8424,0.0,0.0,0.0,0.0,-3.7779,-3.7748,-3.7764,-3.7717,-3.7157,-3.6283,-3.6357,0.0,0.0,0.0,0.0,0.0,0.0,-3.6662,-3.708,-3.7388,-3.7772,-3.8215,-3.8317,-3.8343,-3.8264,-3.8161,-3.82,-3.8381,-3.8247,-3.7931,-3.7455,0.0,0.0,0.0,0.0,-4.0826,-4.1575,-4.2439,-4.2834,-4.2743,-4.2711,-4.196,-4.0497,-4.023,-3.922,-3.7466,-3.8025,-3.7982,-3.721,-3.7194,0.0,0.0,0.0,0.0,0.0,0.0,0.0,0.0,0.0,0.0,0.0,0.0,0.0,0.0,0.0,0.0,0.0,0.0,0.0,-3.6605,-3.6305,-3.6105,0.0,0.0,0.0,0.0,0.0,0.0,0.0,0.0,0.0,-3.652,-3.749,-3.8274,0.0,0.0,-3.9832,-3.9794,-4.0108,-4.022,-3.9964,0.0,0.0,0.0,-3.8965,-3.8685,-3.8116,-3.7983,-3.7899,-3.7757,-3.7897,-3.8052,-3.8103,-3.8239,-3.8411,-3.8627,-3.8663,-3.864,-3.8716,-3.8765,-3.8795,-3.8825,-3.891,-3.9007,-3.8882,-3.8724,-3.8357,-3.8262,-3.8378,-3.8246,-3.8228,-3.8295,-3.8228,-3.7739,-3.7039,-3.7135,-3.6552,-3.5584,-3.5829,0.0,0.0,0.0,-3.6774,-3.7138,-3.759,-3.798,-3.8371,-3.8591,-3.8663,-3.8614,-3.8474,-3.8473,-3.8644,-3.845,-3.8174,-3.7826,0.0,0.0,-3.9208,-3.9877,-4.0559,-4.121,-4.1853,-4.2158,-4.2077,-4.1964,-4.1038,-3.9297,-3.9667,-3.8977,-3.7031,-3.77,-3.7666,-3.6702,-3.659,-3.6311,0.0,0.0,0.0,0.0,0.0,0.0,0.0,0.0,0.0,0.0,0.0,-3.4847,-3.5241,0.0,0.0,0.0,-3.6296,-3.637,-3.6698,-3.6152,0.0,0.0,0.0,0.0,0.0,0.0,0.0,-3.5795,-3.5905,-3.5993,-3.6053,-3.6965,-3.7793,-3.8241,-3.9002,-3.9433,-3.9178,0.0,-3.9164,-3.8845,-3.8837,-3.8702,-3.8181,-3.7865,-3.7554,-3.7156,-3.726,-3.743,-3.7522,-3.7721,-3.788,-3.795,-3.807,-3.8206,-3.829,-3.837,-3.8465,-3.8593,-3.8624,-3.8624,-3.8692,-3.8765,-3.8822,-3.9452,-3.8782,-3.7901,-3.7728,-3.7945,-3.7623,-3.7603,-3.7755,-3.7603,-3.7588,-3.7729,-3.7729,-3.7436,-3.6968,-3.6396,0.0,0.0,-3.6484,-3.68,-3.689,-3.7922,-3.8527,-3.8772,-3.9197,-3.9481,-3.9666,-3.9043,-3.8862,-3.8985,-3.8364,-3.7997,-3.808,-3.886,-3.9217,-3.9265,-3.9907,-4.0432,-4.0849,-4.1338,-4.1555,-4.1522,-4.1221,-4.0313,-3.8815,-3.9435,-3.8718,-3.6615,-3.7249,-3.7327,-3.66,-3.6162,-3.5862,-3.5724,0.0,0.0,0.0,0.0,0.0,0.0,0.0,0.0,0.0,0.0,0.0,0.0,0.0,0.0,0.0,-3.6348,0.0,-3.6434,-3.5793,0.0,0.0,0.0,-3.5308,-3.5308,-3.5308,-3.5354,-3.5486,0.0,0.0,0.0,0.0,-3.7382,-3.8338,-3.9123,-3.9359,-3.8762,-3.8673,-3.8456,-3.7798,-3.7694,-3.7715,-3.7648,-3.7078,-3.6716,-3.6788,-3.6952,-3.7166,-3.7354,-3.7577,-3.7739,-3.7881,-3.7933,-3.8052,-3.8257,-3.829,-3.834,-3.8462,-3.8494,-3.8544,-3.8624,-3.8673,-3.8719,-3.9808,-3.9095,-3.8879,-3.8701,-3.8578,-3.8506,-3.8506,-3.8542,-3.847,-3.8204,-3.778,-3.7766,-3.753,-3.7058,-3.7049,-3.7042,-3.7023,-3.7188,-3.7533,-3.7997,-3.8277,-3.8712,-3.9206,-3.9349,-3.9424,-3.9445,-3.9331,-3.9272,-3.9277,-3.9127,-3.9123,-3.9285,-3.948,-3.9531,-3.9426,-3.9614,-4.0122,-4.1019,-4.1158,-4.1153,-4.0987,-4.0765,-3.9995,-3.8635,-3.9221,-3.8521,-3.6381,-3.6949,-3.6733,-3.5461,-3.5309,-3.4973,-3.4393,-3.4225,0.0,0.0,0.0,0.0,0.0,0.0,0.0,0.0,0.0,-3.392,-3.4818,0.0,-3.538,0.0,-3.6813,-3.6488,-3.6017,-3.5481,0.0,0.0,-3.5245,-3.5308,-3.5308,-3.5308,-3.5314,-3.5337,-3.536,-3.5429,-3.5543,-3.6253,-3.6846,-3.7211,-3.8094,-3.8465,-3.7787,-3.7732,-3.7538,-3.6851,-3.678,-3.6804,-3.6821,-3.6762,-3.6664,-3.6725,-3.6906,-3.7068,-3.7147,-3.7429,-3.7667,-3.7864,-3.7968,-3.8071,-3.8191,-3.8207,-3.8257,-3.8322,-3.8385,-3.843,-3.8446,-3.8512,-3.8541,-4.0255,-3.9596,-3.9596,-3.9386,-3.8963,-3.8781,-3.8708,-3.8782,-3.8782,-3.859,-3.8237,-3.792,-3.7668,-3.7419,-3.7312,-3.7267,-3.7312,-3.7684,-3.8048,-3.8407,-3.8706,-3.905,-3.9388,-3.9388,-3.9388,-3.9388,-3.9388,-3.9388,-3.9388,-3.9388,-3.9445,-3.9553,-3.9553,-3.9586,-3.9608,-3.9661,-4.0033,-4.0574,-4.0693,-4.0727,-4.0662,-4.0558,-3.9859,-3.8501,-3.9069,-3.8371,-3.6208,-3.6757,-3.6571,-3.5363,-3.503,-3.4666,-3.4196,-3.4181,-3.4227,0.0,0.0,0.0,0.0,0.0,0.0,0.0,0.0,0.0,0.0,0.0,-3.5244,0.0,-3.6189,0.0,-3.5551,-3.5062,-3.4763,-3.4811,-3.4947,-3.5018,-3.5034,-3.5088,-3.5152,-3.5198,-3.5222,-3.5268,-3.54,-3.5759,-3.6074,-3.619,-3.6718,-3.7098,-3.7108,-3.6918,-3.6585,-3.6238,-3.6276,-3.636,-3.6402,-3.6482,-3.6544,-3.6585,-3.6745,-3.6888,-3.6952,-3.7185,-3.7448,-3.7649,-3.7792,-3.7933,-3.8088,-3.8157,-3.8225,-3.8241,-3.8272,-3.832,-3.8382,-3.843,-3.8462,-4.0829,-4.0234,-4.022,-3.9842,-3.916,-3.8783,-3.8626,-3.8708,-3.8708,-3.8708,-3.8664,-3.812,-3.787,-3.7876,-3.7473,-3.7292,-3.7371,-3.8117,-3.8476,-3.8521,-3.9104,-3.9388,-3.9388,-3.9388,-3.9388,-3.9388,-3.9388,-3.9388,-3.9388,-3.9388,-3.9388,-3.9388,-3.9388,-3.9481,-3.9661,-3.9803,-3.9975,-4.0011,-4.0187,-4.0296,-4.0436,-4.0436,-3.9722,-3.8381,-3.884,-3.8129,-3.608,-3.6535,-3.6483,-3.5718,-3.5067,-3.4718,-3.4592,-3.456,-3.4543,0.0,-3.4496,0.0,0.0,0.0,0.0,0.0,0.0,0.0,0.0,-3.5116,-3.5172,-3.5537,-3.5048,-3.4797,-3.4978,-3.4549,-3.4325,-3.4448,-3.4594,-3.4667,-3.4691,-3.4804,-3.4923,-3.5041,-3.5065,-3.5111,-3.5245,-3.5268,-3.5314,-3.5496,-3.5599,-3.5926,-3.6491,-3.6197,-3.5873,-3.5954,-3.6101,-3.6208,-3.6276,-3.628,-3.6322,-3.6461,-3.6602,-3.6684,-3.6788,-3.697,-3.7184,-3.7355,-3.7559,-3.7757,-3.7966,-3.8105,-3.8192,-3.8191,-3.8209,-3.8241,-3.8336,-3.8385,-3.8382,-4.1512,-4.0916,-4.0916,-4.0249,-3.9189,-3.9111,-3.8772,-3.8315,-3.8315,-3.8315,-3.83,-3.8347,-3.8377,-3.8385,-3.8451,-3.8465,-3.8516,-3.8816,-3.8984,-3.8999,-3.9241,-3.9388,-3.9388,-3.9388,-3.9388,-3.9388,-3.9388,-3.9388,-3.9388,-3.9388,-3.9388,-3.9388,-3.9388,-3.9424,-3.9445,0.0,0.0,0.0,-4.0046,-4.0066,-4.0101,-4.0101,-3.9428,-3.8102,-3.8162,0.0,-3.5857,-3.5872,-3.5806,-3.5554,-3.5257,0.0,0.0,0.0,0.0,0.0,0.0,0.0,0.0,0.0,0.0,0.0,-3.3966,-3.3935,-3.3557,-3.4198,-3.4501,-3.4281,-3.4329,-3.4244,-3.3846,-3.4021,-3.4151,-3.4176,-3.4399,-3.4594,-3.4667,-3.4715,-3.4787,-3.4923,-3.4947,-3.4994,-3.5111,-3.5135,-3.5198,-3.5331,-3.5423,-3.5565,-3.5745,-3.5718,-3.5706,-3.58,-3.5971,-3.6101,-3.6225,-3.6208,-3.6233,-3.6339,-3.6444,-3.6582,-3.6722,-3.6869,-3.7089,-3.7354,-3.7504,-3.7703,-3.7932,-3.8018,-3.8088,-3.8192,-3.8192,-3.8209,-3.8241,-3.8272,-3.8322,-4.1903,0.0,-4.1599,-4.0844,0.0,-3.9639,-3.9088,-3.8202,-3.8202,-3.8202,-3.8202,-3.8329,-3.8366,-3.8366,-3.859,-3.8649,-3.8649,-3.8885,-3.8943,-3.8958,-3.9141,-3.925,-3.925,-3.9352,-3.9388,-3.9388,-3.9388,-3.9388,-3.9388,-3.9388,-3.9388,-3.9388,-3.9388,-3.9388,-3.9388,-3.9388,-3.9553,-3.9839,-3.9839,-3.9889,-4.0011,-4.0011,-3.9323,-3.7918,0.0,0.0,0.0,0.0,0.0,0.0,0.0,0.0,0.0,0.0,0.0,-3.4831,-3.4817,-3.4735,-3.4668,-3.4635,-3.4259,-3.3323,-3.2744,-3.2553,-3.2823,-3.3634,-3.3794,-3.3156,-3.3522,-3.3638,-3.3128,-3.3513,-3.3838,-3.3899,-3.4201,-3.444,-3.4497,-3.4618,-3.4715,-3.4787,-3.4859,-3.4947,-3.4994,-3.4994,-3.5041,-3.5158,-3.5245,-3.5337,-3.5508,-3.5549,-3.5644,-3.5756,-3.5844,-3.5932,-3.6079,-3.6101,-3.6144,-3.6251,-3.6314,-3.6419,-3.6564,-3.6687,-3.6869,-3.7145,-3.7353,-3.7539,-3.7757,-3.788,-3.7967,-3.8071,-3.8105,-3.814,-3.8192,-3.8242,-3.8241,-4.2092,-4.2078,-4.1961,-4.1221,-4.0089,-3.9987,-3.9276,-3.8202,0.0,0.0,0.0,-3.8202,-3.8202,-3.8202,-3.8366,-3.8441,-3.8478,-3.8649,-3.8745,-3.876,-3.8943,-3.9068,-3.9104,-3.9265,-3.9388,-3.9388,-3.9388,-3.9388,-3.9388,-3.9388,-3.9388,-3.9388,-3.9388,-3.9388,-3.9388,-3.9388,-3.9481,-3.9574,-3.9625,-3.9732,-3.9889,-3.9748,-3.9013,-3.7635,-3.7364,-3.6581,-3.5207,-3.4968,-3.4902,-3.4902,-3.4868,-3.4835,-3.4802,-3.4769,-3.4702,-3.4563,-3.4597,-3.4515,-3.438,-3.4366,-3.392,-3.2774,-3.1722,-3.1544,-3.2571,-3.3141,-3.3125,-3.2338,-3.2907,-3.3139,-3.2624,-3.3033,-3.3461,-3.3642,-3.3975,-3.4226,-3.43,-3.4472,-3.4618,-3.4707,-3.4787,-3.4875,-3.4899,-3.4923,-3.4963,-3.5041,-3.5088,-3.5182,-3.5446,-3.5566,-3.5644,-3.5728,-3.5756,-3.5817,-3.591,-3.5954,-3.6019,-3.6127,-3.6204,-3.6251,-3.6398,-3.6482,-3.6609,-3.6888,-3.7105,-3.7316,-3.7503,-3.7721,-3.7881,-3.7949,-3.7984,-3.8002,-3.8106,-3.814,-3.8157,-4.2092,-4.2049,-4.1468,-4.08,-4.006,-3.9538,-3.8884,-3.8217,-3.8202,-3.8202,-3.8202,-3.8202,-3.8202,-3.8202,-3.824,-3.824,-3.824,-3.8478,-3.8553,0.0,-3.876,-3.8943,-3.909,-3.9141,-3.9213,-3.9373,-3.9388,-3.9388,-3.9388,-3.9388,-3.9388,-3.9388,-3.9388,-3.9388,-3.9388,-3.9388,-3.9337,-3.9177,-3.9352,-3.946,-3.9481,-3.882,-3.8072,-3.7292,-3.6541,-3.5769,-3.4964,-3.4887,-3.4902,-3.4902,-3.4783,-3.465,-3.4481,-3.4312,-3.4176,-3.4034,-3.4108,-3.4162,-3.4128,-3.4312,-3.4109,-3.3431,-3.2771,-3.2408,-3.2377,-3.2437,-3.2527,-3.2598,-3.2924,-3.2867,-3.249,-3.2711,-3.3087,-3.3461,-3.3668,-3.3924,-3.425,-3.4325,-3.4448,-3.4643,-3.4732,-3.478,-3.4851,-3.4899,-3.4899,-3.4947,-3.5018,-3.5198,-3.5406,-3.5549,-3.56,-3.5639,-3.5622,-3.5706,-3.5778,-3.5839,-3.5866,-3.5997,-3.6122,-3.6182,-3.6229,-3.6377,-3.6544,-3.6705,-3.6888,-3.7126,-3.7355,-3.754,-3.7703,-3.7828,-3.7899,-3.7916,-3.7951,-3.7985,-3.8071,-4.2092,-4.202,-4.1381,-4.0713,-4.0031,-3.9073,-3.8478,-3.8217,-3.8202,-3.8202,-3.8202,-3.8202,-3.8202,-3.8202,-3.8202,-3.8202,-3.8202,-3.8277,-3.8329,-3.8366,-3.8538,-3.8686,-3.8811,-3.8995,-3.9156,-3.9228,-3.9337,-3.9388,-3.9388,-3.9388,-3.9388,-3.9388,-3.9388,-3.9388,-3.9388,-3.9388,-3.9301,-3.909,-3.9177,-3.9013,-3.8614,-3.8231,-3.7558,-3.6532,-3.6021,-3.5477,-3.4813,-3.4683,-3.4582,-3.4467,-3.4399,-3.4327,-3.4137,-3.4054,-3.3951,-3.3896,-3.3951,-3.4005,-3.4094,-3.3979,-3.3808,-3.3503,-3.2925,-3.2733,-3.3029,-3.3234,-3.324,-3.3005,-3.3216,-3.3153,-3.2644,-3.2653,-3.2819,-3.3087,-3.3445,-3.3797,-3.405,-3.4226,-3.4349,-3.4472,-3.4546,-3.4618,-3.4683,-3.4739,-3.4804,-3.4787,-3.4947,-3.5135,-3.5268,-3.5383,-3.5464,-3.5594,-3.5616,-3.5622,-3.5667,-3.5706,-3.5734,-3.5866,-3.5949,-3.6014,-3.6079,-3.6229,-3.6377,-3.6544,-3.6725,-3.6928,-3.7203,-3.728,-3.7411,-3.7594,-3.7703,-3.7739,-3.7793,-3.7881,-3.7985,-4.2092,-4.2034,-4.1366,-4.0626,-3.9799,-3.8681,-3.8202,-3.8202,-3.8202,-3.8202,-3.8202,-3.8202,-3.8202,-3.8202,-3.8202,-3.8202,-3.8202,-3.8202,-3.8202,-3.824,-3.8366,-3.8441,-3.8501,-3.8797,-3.8995,-3.9068,-3.9213,-3.9352,-3.9337,-3.9388,-3.9388,-3.9388,-3.9388,-3.9388,-3.9388,-3.9337,-3.9228,-3.9068,-3.8995,-3.8685,-3.814,-3.7773,-3.709,-3.6148,-3.561,-3.5161,-3.466,-3.4448,-3.4264,-3.4128,-3.4074,-3.3985,-3.3848,-3.3813,-3.3813,-3.3779,-3.3827,-3.3917,-3.4065,-3.3816,-3.3674,-3.3674,-3.3238,-3.3184,-3.3769,-3.4136,-3.4048,-3.3565,-3.3663,-3.3562,-3.3065,-3.2913,-3.2878,-3.2987,-3.3376,-3.3767,-3.4012,-3.4267,-3.4444,-3.4453,-3.4619,-3.4685,-3.457,-3.4594,-3.4667,-3.4715,-3.4899,-3.5041,-3.5088,-3.5198,-3.5321,-3.5464,-3.5554,-3.5571,-3.5577,-3.56,-3.5644,-3.5734,-3.5778,-3.5861,-3.5932,-3.6058,-3.6187,-3.6377,-3.6541,-3.6728,-3.6915,-3.7069,-3.7185,-3.7373,-3.7484,-3.754,-3.7631,-3.7739,-3.7881,-4.2092,-4.199,-4.1366,-4.0379,-3.9233,-3.8507,-3.8202,-3.8202,-3.8202,-3.8202,-3.8202,-3.8202,-3.8202,-3.8202,-3.8202,-3.8202,-3.8202,-3.8202,-3.8202,-3.8202,-3.824,-3.8329,-3.8478,-3.8553,-3.8649,-3.8819,-3.9031,-3.9141,-3.9141,-3.9301,-3.9388,-3.9388,-3.9388,-3.9388,-3.9388,-3.9228,-3.9031,-3.8833,-3.8664,-3.8598,-3.8649,-3.7395,-3.6643,-3.6547,-3.5199,-3.4472,-3.4414,-3.423,-3.4128,-3.4094,-3.3971,-3.3827,-3.364,-3.3605,-3.3536,-3.3396,-3.3536,-3.3764,-3.4059,-3.407,-3.4114,-3.4293,-3.4192,-3.4196,-3.4317,-3.4514,-3.4515,-3.4167,-3.4146,-3.3961,-3.3653,-3.3562,-3.3496,-3.3496,-3.3619,-3.3826,-3.4329,-3.4627,-3.4828,-3.5004,-3.5126,-3.5125,-3.466,-3.4546,-3.457,-3.4667,-3.4787,-3.4947,-3.5041,-3.5088,-3.5152,-3.5314,-3.5406,-3.5475,-3.5498,-3.5549,-3.5594,-3.5616,-3.5711,-3.5773,-3.5817,-3.5927,-3.6058,-3.6144,-3.6314,-3.6527,-3.6673,-3.6856,-3.7108,-3.7184,-3.7297,-3.7353,-3.7429,-3.7558,-3.7703,-4.2092,-4.199,-4.0945,-3.977,-3.8638,-3.8318,-3.8202,-3.8202,-3.8202,-3.8202,-3.8202,-3.8202,-3.8202,-3.8202,-3.8202,-3.8202,-3.8202,-3.8202,-3.8202,-3.8202,-3.8202,-3.8225,-3.8329,-3.8441,-3.8553,-3.8649,-3.8833,-3.8943,-3.8943,-3.9104,-3.9301,-3.9388,-3.9388,-3.9388,-3.9388,-3.9316,-3.9141,-3.8819,-3.8723,-3.8612,-3.8318,-3.7099,-3.6247,-3.5846,-3.4913,-3.4346,-3.423,-3.4113,-3.4025,-3.3833,-3.373,-3.364,-3.3431,-3.3431,-3.3382,-3.3326,-3.3501,-3.3675,-3.3799,-3.4005,-3.4128,-3.423,-3.4346,-3.438,-3.438,-3.4481,-3.4485,-3.4486,-3.4297,-3.4196,-3.413,-3.3893,-3.3713,-3.3797,-3.4014,-3.433,-3.4626,-3.4987,-3.5304,-3.5449,-3.5287,-3.5121,-3.4901,-3.461,-3.4456,-3.457,-3.4691,-3.4828,-3.4875,-3.4923,-3.4994,-3.5065,-3.5158,-3.5291,-3.5377,-3.5406,-3.5429,-3.5452,-3.5543,-3.5611,-3.5633,-3.5773,-3.5905,-3.5954,-3.6105,-3.6276,-3.6406,-3.6571,-3.6791,-3.6928,-3.7124,-3.7239,-3.7334,-3.7391,-3.7483,-4.2092,-4.1889,-4.0655,-3.9465,-3.8492,-3.8275,-3.8202,-3.8202,-3.8202,-3.8202,-3.8202,-3.8202,-3.8202,-3.8202,-3.8202,-3.8202,-3.8202,-3.8202,-3.8202,-3.8202,-3.8202,-3.8202,-3.8188,-3.8352,-3.8389,-3.8441,-3.8612,-3.876,-3.8833,-3.8943,-3.909,-3.9228,-3.9301,-3.9301,-3.9337,-3.9316,-3.9141,-3.8833,-3.876,-3.8538,-3.8109,-3.7128,-3.6272,-3.5654,-3.4835,-3.4312,-3.4094,-3.4059,-3.3902,-3.3619,-3.357,-3.3466,-3.3312,-3.3276,-3.3276,-3.3312,-3.3431,-3.3536,-3.3605,-3.3833,-3.3991,-3.4094,-3.423,-3.4346,-3.438,-3.438,-3.4481,-3.4654,-3.4475,-3.4436,-3.4601,-3.437,-3.4226,-3.4167,-3.4438,-3.4722,-3.4971,-3.536,-3.566,-3.5868,-3.573,-3.5342,-3.514,-3.485,-3.4643,-3.4513,-3.457,-3.4643,-3.4667,-3.4739,-3.4851,-3.4835,-3.4947,-3.5105,-3.5222,-3.5291,-3.5308,-3.5331,-3.5406,-3.5446,-3.5446,-3.5588,-3.5684,-3.5728,-3.5844,-3.5997,-3.6191,-3.6339,-3.6485,-3.6647,-3.6849,-3.7048,-3.7124,-3.7201,-3.7239,-4.2092,-4.1874,-4.0655,-3.9683,-3.9102,-3.8478,-3.8202,-3.8202,-3.8202,-3.8202,-3.8202,-3.8202,-3.8202,-3.8202,-3.8202,-3.8202,-3.8202,-3.8173,-3.8173,-3.8202,-3.8202,-3.8202,-3.8202,-3.8202,-3.824,-3.824,-3.8427,-3.8612,-3.8782,-3.8797,-3.8833,-3.8855,-3.9031,-3.909,-3.9104,-3.9104,-3.898,-3.8797,-3.859,-3.8404,-3.813,-3.7541,-3.6874,-3.6193,-3.5082,-3.4341,-3.4094,-3.3971,-3.3779,-3.3605,-3.3431,-3.3312,-3.3276,-3.3276,-3.3276,-3.329,-3.3326,-3.3396,-3.3585,-3.364,-3.3779,-3.4025,-3.4094,-3.4196,-3.4346,-3.438,-3.4481,-3.4664,-3.4658,-3.4765,-3.5029,-3.5123,-3.5075,-3.4706,-3.4708,-3.4972,-3.5399,-3.5595,-3.5892,-3.6272,-3.6403,-3.6039,-3.5208,-3.5211,-3.4966,-3.4602,-3.4472,-3.453,-3.4521,-3.4635,-3.4691,-3.4715,-3.4811,-3.4963,-3.5065,-3.5175,-3.5261,-3.5285,-3.5245,-3.5331,-3.5314,-3.5337,-3.5406,-3.552,-3.5661,-3.5817,-3.5997,-3.617,-3.6339,-3.6506,-3.6708,-3.6849,-3.6908,-3.7029,-3.705,-4.1584,-4.0757,-3.9886,-3.9146,-3.8565,-3.8304,-3.8202,-3.8202,-3.8202,-3.8202,-3.8202,-3.8202,-3.8202,-3.8202,-3.8202,-3.8202,-3.8159,-3.7825,-3.7825,-3.8159,-3.8202,-3.8202,-3.8202,-3.8202,-3.8202,-3.8202,-3.8277,-3.8389,-3.859,-3.8627,-3.8686,-3.8782,-3.887,-3.8907,-3.887,-3.876,-3.8627,-3.8427,-3.824,-3.8014,-3.7782,-3.7236,-3.679,-3.6517,-3.5445,-3.458,-3.3985,-3.3799,-3.3605,-3.3396,-3.3312,-3.3276,-3.3276,-3.3276,-3.3276,-3.3276,-3.3276,-3.3326,-3.3431,-3.355,-3.364,-3.3764,-3.3991,-3.4128,-3.4196,-3.4312,-3.4414,-3.4515,-3.4631,-3.4779,-3.4898,-3.5129,-3.5255,-3.5222,-3.5307,-3.5389,-3.5625,-3.5875,-3.6184,-3.6574,-3.6748,-3.6478,-3.5883,-3.5733,-3.5548,-3.5019,-3.4984,-3.4855,-3.4513,-3.4489,-3.4652,-3.457,-3.4618,-3.4683,-3.4707,-3.4923,-3.5058,-3.5081,-3.5105,-3.5152,-3.5175,-3.5245,-3.5314,-3.536,-3.5481,-3.5526,-3.5684,-3.591,-3.6105,-3.6381,-3.6564,-3.6647,-3.6745,-3.6829,-3.6871,-4.112,-4.0089,-3.9465,-3.8812,-3.8231,-3.8202,-3.8202,-3.8202,-3.8202,-3.8202,-3.8202,-3.8202,-3.8202,-3.8159,-3.7999,-3.8043,-3.8144,-3.7781,-3.7825,-3.8173,-3.8202,-3.8202,-3.8202,-3.8202,-3.8202,-3.8202,-3.8202,-3.8277,-3.8404,-3.8404,-3.8464,-3.8598,-3.8671,-3.8686,-3.8686,-3.859,-3.8404,-3.8202,-3.7985,-3.781,-3.7553,-3.721,-3.6882,-3.6648,-3.5912,-3.5082,-3.417,-3.3788,-3.3501,-3.3347,-3.3276,-3.3276,-3.3276,-3.3276,-3.3276,-3.3276,-3.3276,-3.3276,-3.3312,-3.3431,-3.3536,-3.3605,-3.3868,-3.4025,-3.4094,-3.4312,-3.438,-3.4414,-3.4515,-3.4631,-3.4731,-3.4916,-3.5129,-3.5359,-3.5524,-3.5638,-3.5735,-3.5911,-3.6243,-3.663,-3.689,-3.6715,-3.6306,-3.6273,-3.6012,-3.5544,-3.5552,-3.536,-3.508,-3.5026,-3.5126,-3.5093,-3.4996,-3.498,-3.4931,-3.4971,-3.4862,-3.4837,-3.4875,-3.4947,-3.4994,-3.5088,-3.5175,-3.5222,-3.5245,-3.5268,-3.5406,-3.5616,-3.5905,-3.6187,-3.6339,-3.6406,-3.6523,-3.6643,-3.6667,-4.0699,-4.0002,-3.9436,-3.8783,-3.8246,-3.8202,-3.8202,-3.8202,-3.8202,-3.8202,-3.8202,-3.8202,-3.8202,-3.8101,-3.7738,-3.7709,-3.8115,-3.813,-3.813,-3.8202,-3.8202,-3.8202,-3.8202,-3.8202,-3.8202,-3.8202,-3.8202,-3.8202,-3.824,-3.824,-3.824,-3.8277,-3.8441,-3.8516,-3.8478,-3.8441,-3.8366,-3.8127,-3.7938,-3.7749,-3.761,-3.7477,-3.7206,-3.6787,-3.6409,-3.5753,-3.4589,-3.3952,-3.3557,-3.3326,-3.3276,-3.3276,-3.329,-3.3333,-3.3333,-3.3375,-3.3347,-3.3347,-3.3424,-3.348,-3.3642,-3.3797,-3.3893,-3.4123,-3.4218,-3.438,-3.4453,-3.4428,-3.4414,-3.4481,-3.4664,-3.4731,-3.4865,-3.5148,-3.5359,-3.5539,-3.5638,-3.572,-3.5926,-3.643,-3.6844,-3.6939,-3.6643,-3.6724,-3.6646,-3.6194,-3.6066,-3.604,-3.5952,-3.6003,-3.6267,-3.6179,-3.5834,-3.5526,-3.5298,-3.507,-3.4792,-3.4587,-3.4676,-3.4715,-3.4763,-3.4835,-3.4923,-3.497,-3.5018,-3.5041,-3.5245,-3.5458,-3.5532,-3.5778,-3.5958,-3.6114,-3.6174,-3.6293,-3.6461,-4.0046,-3.9421,-3.8783,-3.8405,-3.8217,-3.8202,-3.8202,-3.8202,-3.8202,-3.8202,-3.8202,-3.8202,-3.8202,-3.8173,-3.7999,-3.8028,-3.8188,-3.8202,-3.8202,-3.8202,-3.8202,-3.8202,-3.8202,-3.8202,-3.8202,-3.8202,-3.8202,-3.8202,-3.8202,-3.8202,-3.8202,-3.8202,-3.8277,-3.8277,-3.8292,-3.8028,-3.7839,-3.7763,-3.7443,-3.7236,-3.7187,-3.7187,-3.7074,-3.6876,-3.6457,-3.5968,-3.5587,-3.4592,-3.3825,-3.3333,-3.3276,-3.3276,-3.3347,-3.3683,-3.3894,-3.3964,-3.4379,-3.4612,-3.4612,-3.4598,-3.457,-3.4721,-3.4816,-3.4797,-3.4632,-3.477,-3.4741,-3.4496,-3.438,-3.4414,-3.4515,-3.4631,-3.4798,-3.4968,-3.518,-3.5326,-3.5427,-3.5686,-3.5973,-3.6163,-3.6693,-3.695,-3.7018,-3.7218,-3.7135,-3.6758,-3.6681,-3.6651,-3.6271,-3.6379,-3.6297,-3.6275,-3.6084,-3.6104,-3.5952,-3.5717,-3.5407,-3.5034,-3.4873,-3.4628,-3.4603,-3.4602,-3.4691,-3.4739,-3.4787,-3.4906,-3.5088,-3.5245,-3.5344,-3.5441,-3.565,-3.5739,-3.5783,-3.5932,-3.6127,-3.9538,-3.9146,-3.8492,-3.8202,-3.8202,-3.8202,-3.8202,-3.8202,-3.8202,-3.8202,-3.8202,-3.8202,-3.8202,-3.8202,-3.8202,-3.8202,-3.8202,-3.8202,-3.8202,-3.8202,-3.8202,-3.8202,-3.8159,-3.7955,-3.8014,-3.8115,-3.797,-3.7984,-3.8188,-3.8202,-3.8202,-3.8202,-3.8202,-3.8202,-3.8165,-3.7877,-3.7701,-3.7663,-3.7356,-3.7095,-3.7095,-3.7017,-3.6978,-3.6922,-3.6652,-3.6342,-3.6089,-3.5307,-3.4483,-3.3796,-3.3627,-3.3627,-3.3669,-3.4225,-3.4576,-3.4646,-3.4936,-3.5161,-3.5189,-3.5119,-3.5189,-3.5226,-3.5337,-3.5305,-3.5131,-3.5239,-3.5185,-3.477,-3.4757,-3.4675,-3.4472,-3.4515,-3.4616,-3.4702,-3.4935,-3.5115,-3.5246,-3.5587,-3.5829,-3.5973,-3.632,-3.6693,-3.6998,-3.724,-3.7411,-3.7214,-3.7262,-3.7283,-3.683,-3.6936,-3.6911,-3.6869,-3.6805,-3.6799,-3.6675,-3.64,-3.6076,-3.5646,-3.5228,-3.4815,-3.4562,-3.453,-3.457,-3.4618,-3.4667,-3.4763,-3.4906,-3.5041,-3.5135,-3.5274,-3.5396,-3.5481,-3.5571,-3.5667,-3.5822,-3.9189,-3.9059,-3.8463,-3.8202,-3.8202,-3.8202,-3.8202,-3.8202,-3.8202,-3.8202,-3.8202,-3.8202,-3.8202,-3.8202,-3.8202,-3.8202,-3.8202,-3.8202,-3.8202,-3.8202,-3.8202,-3.8202,-3.8144,-3.7767,-3.7825,-3.8057,-3.7709,-3.7738,-3.8188,-3.8202,-3.8202,-3.8202,-3.8202,-3.8202,-3.8179,-3.7991,-3.7891,-3.7815,-3.7495,-3.7264,-3.7264,-3.7095,-3.6978,-3.6978,-3.6922,-3.6722,-3.63,-3.6019,-3.5419,-3.4441,-3.4259,-3.4245,-3.4393,-3.4871,-3.5231,-3.5245,-3.5273,-3.5414,-3.5358,-3.5498,-3.547,-3.5498,-3.561,-3.5481,-3.5532,-3.5768,-3.5669,-3.5107,-3.5166,-3.5053,-3.4525,-3.4414,-3.4448,-3.4448,-3.4702,-3.4983,-3.5148,-3.5374,-3.5507,-3.5671,-3.5863,-3.6179,-3.6693,-3.6923,-3.727,-3.749,-3.7605,-3.761,-3.7681,-3.7668,-3.8023,-3.7854,-3.7443,-3.7418,-3.7289,-3.7258,-3.6918,-3.641,-3.5971,-3.5535,-3.4919,-3.4798,-3.471,-3.471,-3.466,-3.4725,-3.4739,-3.4892,-3.4987,-3.5088,-3.5198,-3.5261,-3.5354,-3.5452,-3.5594,-3.8913,-3.8463,-3.8275,-3.8202,-3.8202,-3.8202,-3.8202,-3.8202,-3.8202,-3.8202,-3.8202,-3.8202,-3.8202,-3.8202,-3.8202,-3.8202,-3.8202,-3.8202,-3.8202,-3.8202,-3.8202,-3.8202,-3.8202,-3.8043,-3.7999,-3.8063,-3.7846,-3.8043,-3.8188,-3.8121,-3.8188,-3.8202,-3.8202,-3.8202,-3.8165,-3.8005,-3.7891,-3.7868,-3.751,-3.7303,-3.7264,-3.7109,-3.6978,-3.6978,-3.6978,-3.6894,-3.6722,-3.6328,-3.578,-3.5026,-3.495,-3.495,-3.5006,-3.5527,-3.5864,-3.592,-3.6258,-3.6511,-3.6459,-3.6483,-3.6511,-3.6539,-3.6413,-3.6457,-3.6155,-3.6253,-3.5896,-3.5317,-3.5128,-3.5001,-3.452,-3.438,-3.438,-3.4414,-3.4616,-3.4817,-3.4983,-3.5148,-3.5279,-3.5394,-3.591,-3.6289,-3.6569,-3.6953,-3.7331,-3.751,-3.7628,-3.7716,-3.7759,-3.7876,-3.8008,-3.8049,-3.7821,-3.7935,-3.7943,-3.7947,-3.7728,-3.7198,-3.6848,-3.6589,-3.5902,-3.5402,-3.5268,-3.514,-3.497,-3.4931,-3.4816,-3.4805,-3.4885,-3.5254,-3.5236,-3.5407,-3.5191,-3.5218,-3.5452,-3.8551,-3.8202,-3.8202,-3.8202,-3.8202,-3.8202,-3.8202,-3.8202,-3.8202,-3.8202,-3.8202,-3.8202,-3.8202,-3.8202,-3.8202,-3.8202,-3.8202,-3.8202,-3.8202,-3.8202,-3.8202,-3.7968,-3.7705,-3.7699,-3.7531,-3.6974,-3.7137,-3.7313,-3.75,-3.7572,-3.7777,-3.8121,-3.8202,-3.8202,-3.8188,-3.8104,-3.8028,-3.7967,-3.7649,-3.7419,-3.7419,-3.7162,-3.7031,-3.6978,-3.6978,-3.6978,-3.6922,-3.668,-3.6103,-3.547,-3.5414,-3.5569,-3.5625,-3.6159,-3.6483,-3.6511,-3.6849,-3.6964,-3.6978,-3.6978,-3.6978,-3.6978,-3.6978,-3.6887,-3.6721,-3.6712,-3.6447,-3.5788,-3.5518,-3.5158,-3.4764,-3.452,-3.4395,-3.4414,-3.4515,-3.465,-3.4817,-3.4968,-3.5115,-3.5311,-3.5636,-3.61,-3.632,-3.6831,-3.7135,-3.7345,-3.751,-3.7569,-3.7628,-3.7746,-3.7817,-3.7876,-3.7934,-3.7956,-3.7994,-3.8015,-3.804,-3.7648,-3.7538,-3.7344,-3.6697,-3.6044,-3.587,-3.5672,-3.5356,-3.5172,-3.5225,-3.535,-3.5745,-3.5927,-3.5729,-3.5712,-3.5703,-3.5536,-3.5706,-3.8202,-3.8202,-3.8202,-3.8202,-3.8202,-3.8202,-3.8202,-3.8202,-3.8202,-3.8202,-3.8202,-3.8202,-3.8202,-3.8202,-3.8202,-3.8202,-3.8202,-3.8202,-3.8202,-3.8202,-3.8107,-3.7682,-3.6648,-3.7088,-3.6724,-3.5997,-3.5787,-3.6216,-3.6696,-3.6805,-3.7307,-3.7922,-3.8127,-3.8202,-3.8202,-3.8202,-3.8202,-3.8104,-3.7725,-3.7495,-3.7419,-3.7123,-3.6889,-3.6875,-3.6915,-3.694,-3.6978,-3.688,-3.6525,-3.5456,-3.592,-3.6174,-3.6272,-3.6712,-3.6908,-3.6922,-3.695,-3.6978,-3.6978,-3.6978,-3.6978,-3.6978,-3.6978,-3.6978,-3.6986,-3.7035,-3.6868,-3.6287,-3.5957,-3.5432,-3.5008,-3.462,-3.4491,-3.4477,-3.4496,-3.4481,-3.4616,-3.4783,-3.4935,-3.5148,-3.518,-3.5589,-3.5958,-3.6367,-3.6693,-3.7165,-3.7345,-3.7464,-3.7524,-3.7628,-3.7671,-3.77,-3.7788,-3.7892,-3.7963,-3.8033,-3.8075,-3.8003,-3.8036,-3.7822,-3.7203,-3.667,-3.6502,-3.6281,-3.5961,-3.5916,-3.6043,-3.6303,-3.6537,-3.65,-3.6238,-3.6545,-3.6835,-3.6514,-3.6473,-3.8202,-3.8202,-3.8202,-3.8202,-3.8202,-3.8202,-3.8202,-3.8202,-3.8202,-3.8202,-3.8202,-3.8202,-3.8202,-3.8202,-3.8202,-3.8202,-3.8202,-3.8202,-3.8202,-3.8202,-3.8202,-3.7112,-3.6097,-3.6433,-3.6548,-3.6125,-3.6038,-3.6099,-3.6307,-3.6845,-3.7491,-3.7677,-3.806,-3.8202,-3.8202,-3.8202,-3.8202,-3.8089,-3.7649,-3.738,-3.7264,-3.685,-3.6589,-3.6589,-3.6707,-3.685,-3.694,-3.6978,-3.6852,-3.6736,-3.6669,-3.675,-3.6754,-3.688,-3.6978,-3.6978,-3.6978,-3.6978,-3.6978,-3.6978,-3.6978,-3.6978,-3.6978,-3.6978,-3.6978,-3.7031,-3.6852,-3.6387,-3.5852,-3.5358,-3.4989,-3.4476,-3.4445,-3.4701,-3.4596,-3.4409,-3.4481,-3.4631,-3.4765,-3.4883,-3.5264,-3.5671,-3.5816,-3.6336,-3.6646,-3.6984,-3.7195,-3.7329,-3.7435,-3.7494,-3.7569,-3.7599,-3.7642,-3.773,-3.7804,-3.7892,-3.7979,-3.8036,-3.8164,-3.8189,-3.7544,-3.7305,-3.7138,-3.6858,-3.6546,-3.6615,-3.6815,-3.6657,-3.678,-3.6744,-3.6806,-3.7049,-3.7216,-3.7145,-3.7246,-3.8202,-3.8202,-3.8202,-3.8202,-3.8202,-3.8202,-3.8202,-3.8202,-3.8202,-3.8202,-3.8202,-3.8202,-3.8202,-3.8202,-3.8202,-3.8202,-3.8202,-3.8202,-3.8202,-3.8202,-3.8173,-3.7368,-3.6111,-3.5773,-3.5628,-3.4924,-3.519,-3.5264,-3.5391,-3.6245,-3.6921,-3.7248,-3.7855,-3.8188,-3.8202,-3.8202,-3.8202,-3.8089,-3.7596,-3.7303,-3.7187,-3.6733,-3.6405,-3.6405,-3.6524,-3.6668,-3.6811,-3.685,-3.6915,-3.6954,-3.6978,-3.6978,-3.6978,-3.6978,-3.6978,-3.6978,-3.6978,-3.6978,-3.6978,-3.6978,-3.6978,-3.6978,-3.6978,-3.6978,-3.6978,-3.6978,-3.6905,-3.6626,-3.6156,-3.5571,-3.513,-3.4696,-3.4716,-3.478,-3.4749,-3.4508,-3.4365,-3.4448,-3.4597,-3.4731,-3.4983,-3.5311,-3.5653,-3.6085,-3.643,-3.6662,-3.7089,-3.7224,-3.7329,-3.7389,-3.751,-3.7539,-3.7553,-3.7612,-3.7642,-3.773,-3.7847,-3.7905,-3.802,-3.8049,-3.7792,-3.7729,-3.7773,-3.7494,-3.7263,-3.7452,-3.7588,-3.734,-3.7281,-3.7617,-3.7763,-3.7643,-3.7664,-3.7892,-3.8011,-3.8202,-3.8202,-3.8202,-3.8202,-3.8202,-3.8202,-3.8202,-3.8202,-3.8202,-3.8202,-3.8202,-3.8202,-3.8202,-3.8202,-3.8202,-3.8202,-3.8202,-3.8202,-3.8202,-3.8202,-3.8202,-3.7558,-3.6582,-3.5642,-3.4673,-3.2864,-3.3788,-3.4144,-3.4533,-3.5316,-3.6476,-3.6873,-3.774,-3.815,-3.8202,-3.8127,-3.8052,-3.7976,-3.738,-3.707,-3.6993,-3.6536,-3.6272,-3.6325,-3.6351,-3.6445,-3.6603,-3.6668,-3.6747,-3.6915,-3.6954,-3.694,-3.6978,-3.6978,-3.6978,-3.6978,-3.6978,-3.6978,-3.6978,-3.6978,-3.6978,-3.6978,-3.6978,-3.6978,-3.6978,-3.6978,-3.695,-3.6792,-3.6423,-3.5874,-3.5543,-3.5145,-3.4975,-3.5025,-3.4989,-3.4638,-3.4361,-3.4283,-3.4395,-3.4631,-3.4798,-3.5016,-3.5311,-3.5686,-3.6005,-3.6383,-3.68,-3.7164,-3.7224,-3.73,-3.7405,-3.751,-3.7524,-3.7553,-3.7569,-3.7599,-3.77,-3.7759,-3.7847,-3.7876,-3.7905,-3.7892,-3.7923,-3.8161,-3.8137,-3.8153,-3.8149,-3.7998,-3.8103,-3.856,-3.8474,-3.81,-3.8297,-3.8701,-3.8635,-3.8202,-3.8202,-3.8202,-3.8202,-3.8202,-3.8202,-3.8202,-3.8202,-3.8202,-3.8202,-3.8202,-3.8202,-3.8202,-3.8202,-3.8202,-3.8202,-3.8202,-3.8202,-3.8202,-3.8202,-3.8173,-3.7667,-3.6662,-3.5829,-3.4855,-3.4209,-3.3943,-3.3902,-3.4643,-3.5614,-3.6356,-3.6995,-3.7715,-3.8127,-3.8052,-3.7901,-3.7739,-3.7649,-3.7046,-3.6693,-3.6536,-3.6178,-3.5965,-3.6112,-3.6112,-3.6232,-3.6405,-3.6445,-3.6563,-3.6747,-3.6747,-3.685,-3.6954,-3.6978,-3.6978,-3.6978,-3.6978,-3.6978,-3.6978,-3.6978,-3.6978,-3.6978,-3.6978,-3.6978,-3.6978,-3.6978,-3.6978,-3.6824,-3.6511,-3.6047,-3.6,-3.5586,-3.5617,-3.5705,-3.5366,-3.4818,-3.4632,-3.443,-3.4324,-3.4636,-3.4738,-3.4731,-3.503,-3.5344,-3.5668,-3.602,-3.6414,-3.6831,-3.7104,-3.721,-3.73,-3.7405,-3.751,-3.751,-3.751,-3.7539,-3.7569,-3.7612,-3.7671,-3.773,-3.7759,-3.786,-3.7976,-3.8107,-3.825,-3.827,-3.8286,-3.8363,-3.8408,-3.8464,-3.8464,-3.8448,-3.8532,-3.86,-3.8644,-3.8202,-3.8202,-3.8202,-3.8202,-3.8202,-3.8202,-3.8202,-3.8202,-3.8202,-3.8202,-3.8202,-3.8202,-3.8202,-3.8202,-3.8202,-3.8202,-3.8202,-3.8202,-3.8202,-3.8202,-3.8173,-3.7667,-3.6837,-3.6162,-3.5808,-3.5185,-3.4448,-3.4111,-3.4742,-3.5764,-3.641,-3.6807,-3.7382,-3.7711,-3.7877,-3.7649,-3.7471,-3.7317,-3.6889,-3.651,-3.6351,-3.5924,-3.5804,-3.5844,-3.5898,-3.6032,-3.6206,-3.6246,-3.6365,-3.6524,-3.6642,-3.6761,-3.685,-3.6954,-3.6978,-3.6978,-3.6978,-3.6978,-3.6978,-3.6978,-3.6978,-3.6978,-3.6978,-3.6978,-3.6978,-3.6978,-3.6978,-3.6852,-3.6511,-3.6244,-3.6511,-3.6052,-3.585,-3.5732,-3.5538,-3.5228,-3.481,-3.4676,-3.4768,-3.4836,-3.4629,-3.4651,-3.4765,-3.5063,-3.5344,-3.5668,-3.602,-3.6445,-3.6892,-3.7059,-3.715,-3.7405,-3.751,-3.751,-3.751,-3.751,-3.751,-3.7539,-3.7539,-3.7599,-3.7658,-3.773,-3.7788,-3.7876,-3.802,-3.8164,-3.825,-3.825,-3.8323,-3.8379,-3.8379,-3.8363,-3.8408,-3.8464,-3.8492,-3.8202,-3.8202,-3.8202,-3.8202,-3.8202,-3.8202,-3.8202,-3.8202,-3.8202,-3.8202,-3.8202,-3.8202,-3.8202,-3.8202,-3.8202,-3.8202,-3.8202,-3.8202,-3.8202,-3.8202,-3.8202,-3.7734,-3.723,-3.6748,-3.6518,-3.6316,-3.5418,-3.4992,-3.537,-3.5947,-3.642,-3.6954,-3.7133,-3.738,-3.7739,-3.7457,-3.7317,-3.7109,-3.6797,-3.6496,-3.6218,-3.5924,-3.571,-3.571,-3.571,-3.5817,-3.5992,-3.6032,-3.6152,-3.6325,-3.6484,-3.6589,-3.6707,-3.685,-3.6954,-3.6978,-3.6978,-3.6978,-3.6978,-3.6978,-3.6978,-3.6978,-3.6978,-3.6978,-3.6978,-3.6978,-3.6978,-3.688,-3.6497,-3.6244,-3.6511,-3.6356,-3.592,-3.5719,-3.5831,-3.5831,-3.5308,-3.5099,-3.5178,-3.5074,-3.466,-3.4646,-3.4849,-3.5043,-3.5422,-3.5326,-3.5668,-3.61,-3.6492,-3.6831,-3.7014,-3.7345,-3.751,-3.751,-3.751,-3.751,-3.751,-3.751,-3.751,-3.7539,-3.7569,-3.7599,-3.7658,-3.7716,-3.773,-3.7876,-3.802,-3.8135,-3.8135,-3.8164,-3.825,-3.8307,-3.8307,-3.8351,-3.8379,-3.8202,-3.8202,-3.8202,-3.8202,-3.8202,-3.8202,-3.8202,-3.8202,-3.8202,-3.8202,-3.8202,-3.8202,-3.8202,-3.8202,-3.8202,-3.8202,-3.8202,-3.8202,-3.8202,-3.8202,-3.8202,-3.8107,-3.7858,-3.7055,-3.7129,-3.7111,-3.6372,-3.6332,-3.6406,-3.635,-3.6668,-3.7306,-3.752,-3.7815,-3.7777,-3.7303,-3.7056,-3.6954,-3.6457,-3.6058,-3.5884,-3.575,-3.571,-3.571,-3.571,-3.571,-3.5804,-3.5804,-3.5884,-3.6126,-3.6166,-3.6365,-3.6628,-3.6721,-3.6864,-3.6915,-3.6978,-3.6978,-3.6978,-3.6978,-3.6978,-3.6978,-3.6978,-3.6978,-3.6978,-3.6978,-3.6978,-3.7003,-3.6469,-3.6174,-3.6272,-3.6145,-3.6019,-3.5977,-3.5934,-3.6047,-3.5803,-3.5672,-3.5774,-3.5764,-3.55,-3.5168,-3.5129,-3.529,-3.5443,-3.533,-3.5297,-3.575,-3.6179,-3.6538,-3.6908,-3.7241,-3.7361,-3.7361,-3.7375,-3.7421,-3.7435,-3.7464,-3.751,-3.751,-3.7539,-3.7539,-3.7539,-3.7569,-3.7583,-3.7642,-3.7817,-3.7934,-3.7934,-3.7992,-3.8078,-3.8135,-3.8193,-3.8237,-3.8237,-3.8202,-3.8202,-3.8202,-3.8202,-3.8202,-3.8202,-3.8202,-3.8202,-3.8202,-3.8202,-3.8202,-3.8202,-3.8202,-3.8202,-3.8202,-3.8202,-3.8202,-3.8202,-3.8202,-3.8202,-3.8202,-3.8202,-3.8092,-3.7777,-3.7765,-3.7595,-3.7382,-3.7258,-3.7324,-3.7076,-3.7076,-3.7715,-3.7481,-3.7394,-3.7663,-3.7123,-3.6903,-3.6707,-3.6391,-3.6112,-3.6018,-3.5844,-3.571,-3.571,-3.571,-3.571,-3.571,-3.571,-3.575,-3.5898,-3.5992,-3.6166,-3.6391,-3.6549,-3.6747,-3.6811,-3.6954,-3.6978,-3.6978,-3.6978,-3.6978,-3.6978,-3.6978,-3.6978,-3.6978,-3.6978,-3.6978,-3.6978,-3.6416,-3.6131,-3.5977,-3.578,-3.5639,-3.5639,-3.5836,-3.6061,-3.6159,-3.6413,-3.6395,-3.6386,-3.6307,-3.5912,-3.5482,-3.5288,-3.5232,-3.4955,-3.5016,-3.5329,-3.5863,-3.6399,-3.6754,-3.7121,-3.7151,-3.7151,-3.7195,-3.7225,-3.727,-3.7329,-3.7464,-3.748,-3.751,-3.751,-3.745,-3.748,-3.7494,-3.7583,-3.7671,-3.773,-3.7788,-3.7847,-3.7905,-3.7963,-3.802,-3.8049,-3.8078,-3.8202,-3.8202,-3.8202,-3.8202,-3.8202,-3.8202,-3.8202,-3.8202,-3.8202,-3.8202,-3.8159,-3.8072,-3.8028,-3.813,-3.8057,-3.7999,-3.8202,-3.8202,-3.8202,-3.8202,-3.8202,-3.8202,-3.8188,-3.8136,-3.8034,-3.7999,-3.78,-3.769,-3.7647,-3.7605,-3.7653,-3.8127,-3.7495,-3.7303,-3.7356,-3.7123,-3.6786,-3.6603,-3.6365,-3.6206,-3.6112,-3.5844,-3.5764,-3.571,-3.571,-3.571,-3.571,-3.571,-3.571,-3.5764,-3.5858,-3.6032,-3.6152,-3.6365,-3.6589,-3.6707,-3.685,-3.6915,-3.6954,-3.6978,-3.6978,-3.6978,-3.6978,-3.6978,-3.6978,-3.6978,-3.6978,-3.6978,-3.6216,-3.5934,-3.5752,-3.5316,-3.5048,-3.5161,-3.5456,-3.5794,-3.6103,-3.63,-3.6595,-3.6718,-3.6574,-3.6434,-3.596,-3.5446,-3.5072,-3.468,-3.475,-3.5016,-3.5557,-3.6163,-3.6507,-3.6816,-3.6999,-3.6999,-3.706,-3.7075,-3.7104,-3.7194,-3.7345,-3.7315,-3.7285,-3.7301,-3.7301,-3.7331,-3.7345,-3.7435,-3.7464,-3.7583,-3.7671,-3.77,-3.773,-3.7788,-3.7847,-3.7847,-3.7905,-3.8202,-3.8202,-3.8202,-3.8202,-3.8202,-3.8202,-3.8202,-3.8202,-3.8202,-3.8202,-3.813,-3.7738,-3.781,-3.7999,-3.7825,-3.781,-3.8202,-3.8202,-3.8202,-3.8202,-3.8202,-3.8202,-3.8202,-3.8144,-3.7984,-3.768,-3.7843,-3.7786,-3.7643,-3.7884,-3.8008,-3.8127,-3.761,-3.7534,-3.7457,-3.7148,-3.6811,-3.6628,-3.6445,-3.6192,-3.5978,-3.575,-3.571,-3.571,-3.571,-3.571,-3.571,-3.571,-3.571,-3.571,-3.5764,-3.5858,-3.6032,-3.6166,-3.6351,-3.6549,-3.6707,-3.6811,-3.6929,-3.6978,-3.6978,-3.6978,-3.6978,-3.6978,-3.6978,-3.6978,-3.6978,-3.6894,-3.6159,-3.5583,-3.5245,-3.4759,-3.4674,-3.4983,-3.5498,-3.5878,-3.6117,-3.6131,-3.6441,-3.6824,-3.6817,-3.6499,-3.6208,-3.5605,-3.5153,-3.4735,-3.4864,-3.5133,-3.5353,-3.5874,-3.6162,-3.6476,-3.6754,-3.6847,-3.6908,-3.6923,-3.6877,-3.6968,-3.7135,-3.7044,-3.6907,-3.6984,-3.7151,-3.703,-3.7044,-3.7165,-3.7255,-3.7315,-3.7345,-3.7464,-3.7539,-3.7553,-3.7596,-3.7655,-3.7743,-3.8202,-3.8202,-3.8202,-3.8202,-3.8202,-3.8202,-3.8202,-3.8202,-3.8202,-3.8202,-3.8173,-3.7984,-3.7984,-3.8072,-3.8043,-3.797,-3.8188,-3.8202,-3.8202,-3.8202,-3.8202,-3.8202,-3.8202,-3.8173,-3.8086,-3.7897,-3.8086,-3.806,-3.7789,-3.7927,-3.7857,-3.7801,-3.7649,-3.7534,-3.7341,-3.7187,-3.6993,-3.6836,-3.6628,-3.6312,-3.631,-3.5871,-3.571,-3.571,-3.571,-3.571,-3.571,-3.571,-3.571,-3.571,-3.571,-3.5764,-3.5858,-3.5992,-3.6152,-3.6351,-3.651,-3.6707,-3.6825,-3.6915,-3.6978,-3.6978,-3.6978,-3.6978,-3.6978,-3.6978,-3.6978,-3.6712,-3.6258,-3.5695,-3.5667,-3.5259,-3.5034,-3.533,-3.5625,-3.5949,-3.6159,-3.6174,-3.6413,-3.6838,-3.6613,-3.6296,-3.6019,-3.5713,-3.5267,-3.4864,-3.5072,-3.5223,-3.5352,-3.5589,-3.5914,-3.5955,-3.6148,-3.632,-3.6383,-3.6445,-3.6538,-3.6739,-3.6892,-3.677,-3.6662,-3.6908,-3.7015,-3.6847,-3.6677,-3.677,-3.6846,-3.6938,-3.7059,-3.721,-3.7255,-3.7225,-3.7329,-3.7433,-3.7567,-3.8202,-3.8202,-3.8202,-3.8202,-3.8202,-3.8202,-3.8202,-3.8202,-3.8202,-3.8072,-3.7941,-3.7941,-3.7941,-3.7941,-3.7912,-3.8057,-3.8144,-3.8202,-3.8202,-3.8202,-3.8202,-3.8202,-3.8202,-3.8159,-3.8072,-3.8057,-3.8046,-3.7933,-3.7541,-3.7738,-3.7672,-3.7572,-3.7495,-3.7419,-3.7303,-3.7095,-3.707,-3.6968,-3.6733,-3.6431,-3.6403,-3.5991,-3.571,-3.571,-3.571,-3.571,-3.571,-3.571,-3.571,-3.571,-3.571,-3.571,-3.5764,-3.5858,-3.6032,-3.6152,-3.6312,-3.651,-3.6668,-3.685,-3.6978,-3.6978,-3.6978,-3.6978,-3.6978,-3.6978,-3.6978,-3.6922,-3.6469,-3.6117,-3.6089,-3.5527,-3.5203,-3.5372,-3.5428,-3.5723,-3.6117,-3.6272,-3.6567,-3.6866,-3.6585,-3.6469,-3.6155,-3.585,-3.5052,-3.4781,-3.4946,-3.4976,-3.4806,-3.5171,-3.5692,-3.5618,-3.5512,-3.5608,-3.5705,-3.5911,-3.6148,-3.6352,-3.6476,-3.6507,-3.6507,-3.6677,-3.6677,-3.646,-3.6352,-3.6352,-3.6352,-3.6336,-3.6616,-3.6952,-3.6998,-3.7014,-3.7105,-3.7255,-3.7329,-3.8202,-3.8202,-3.8202,-3.8202,-3.8202,-3.8202,-3.8202,-3.8202,-3.8202,-3.7926,-3.7564,-3.7506,-3.7491,-3.7491,-3.7636,-3.7854,-3.8144,-3.8202,-3.8202,-3.8202,-3.8202,-3.8202,-3.8202,-3.8159,-3.7991,-3.7562,-3.7682,-3.767,-3.7135,-3.7458,-3.7467,-3.7341,-3.7303,-3.7303,-3.7264,-3.7095,-3.6915,-3.6707,-3.6549,-3.6351,-3.6192,-3.5884,-3.571,-3.571,-3.571,-3.571,-3.571,-3.571,-3.571,-3.571,-3.571,-3.571,-3.571,-3.5764,-3.5858,-3.6032,-3.6126,-3.6246,-3.6405,-3.6772,-3.6915,-3.6978,-3.6978,-3.6978,-3.6978,-3.6978,-3.6978,-3.6936,-3.6553,-3.6244,-3.5963,-3.5695,-3.5597,-3.5583,-3.5695,-3.5836,-3.6258,-3.6258,-3.6511,-3.6754,-3.688,-3.6852,-3.6535,-3.6033,-3.5008,-3.4675,-3.4844,-3.4773,-3.4495,-3.4767,-3.5336,-3.5148,-3.4957,-3.5136,-3.5299,-3.5527,-3.5752,-3.5958,-3.6053,-3.6085,-3.6085,-3.6116,-3.6053,-3.6005,-3.5878,-3.5782,-3.575,-3.5718,-3.6085,-3.6414,-3.6754,-3.6877,-3.6938,-3.6999,-3.7075,-3.8202,-3.8202,-3.8202,-3.8202,-3.8202,-3.8202,-3.8202,-3.8202,-3.8188,-3.8072,-3.7941,-3.7912,-3.7897,-3.7897,-3.7883,-3.7984,-3.8144,-3.8202,-3.8202,-3.8202,-3.8202,-3.8202,-3.8202,-3.8173,-3.8011,-3.7841,-3.782,-3.7668,-3.7239,-3.7347,-3.726,-3.7134,-3.7134,-3.7095,-3.7056,-3.7017,-3.6954,-3.6836,-3.6575,-3.6351,-3.6232,-3.5924,-3.571,-3.571,-3.571,-3.571,-3.571,-3.571,-3.571,-3.571,-3.571,-3.571,-3.571,-3.571,-3.5764,-3.5898,-3.5952,-3.6206,-3.6365,-3.6589,-3.6733,-3.6875,-3.694,-3.694,-3.6978,-3.6978,-3.6978,-3.6978,-3.6768,-3.6599,-3.6585,-3.6543,-3.6473,-3.6487,-3.6557,-3.6595,-3.6722,-3.6342,-3.63,-3.6571,-3.6768,-3.6595,-3.6272,-3.6014,-3.5153,-3.454,-3.4654,-3.4524,-3.4298,-3.4528,-3.4967,-3.4621,-3.4452,-3.4702,-3.4902,-3.5162,-3.5377,-3.5572,-3.5671,-3.5672,-3.564,-3.5623,-3.5649,-3.5677,-3.5454,-3.5246,-3.5231,-3.5329,-3.5557,-3.5863,-3.6195,-3.646,-3.6538,-3.6616,-3.6708,-3.8202,-3.8202,-3.8202,-3.8202,-3.8159,-3.7984,-3.7781,-3.7636,-3.7752,-3.768,-3.7331,-3.7607,-3.7694,-3.768,-3.7984,-3.8202,-3.8202,-3.8202,-3.8202,-3.8202,-3.8202,-3.8202,-3.8202,-3.8202,-3.8075,-3.7929,-3.7777,-3.7596,-3.7285,-3.7197,-3.7148,-3.7031,-3.6978,-3.7017,-3.6978,-3.6978,-3.6978,-3.6875,-3.6693,-3.647,-3.6312,-3.6058,-3.5804,-3.5723,-3.571,-3.571,-3.571,-3.571,-3.571,-3.571,-3.571,-3.571,-3.571,-3.571,-3.571,-3.5764,-3.5858,-3.6072,-3.6232,-3.6272,-3.647,-3.6733,-3.6797,-3.685,-3.6875,-3.6875,-3.6954,-3.6954,-3.6978,-3.6978,-3.6964,-3.6993,-3.6978,-3.6964,-3.695,-3.6936,-3.6852,-3.6525,-3.6469,-3.6697,-3.6726,-3.6469,-3.6131,-3.5752,-3.5296,-3.4834,-3.4426,-3.4264,-3.4192,-3.4547,-3.4825,-3.4616,-3.4433,-3.4698,-3.4787,-3.4785,-3.499,-3.5177,-3.5276,-3.5323,-3.5299,-3.5249,-3.5317,-3.5307,-3.5134,-3.496,-3.485,-3.4935,-3.5198,-3.5427,-3.5653,-3.591,-3.6053,-3.6242,-3.6383,-3.8202,-3.8202,-3.8202,-3.8202,-3.8115,-3.7694,-3.7085,-3.6504,-3.7114,-3.6722,-3.5712,-3.707,-3.7331,-3.6896,-3.7709,-3.8173,-3.8202,-3.8202,-3.8202,-3.8202,-3.8202,-3.8202,-3.8202,-3.8202,-3.8028,-3.7891,-3.7715,-3.7548,-3.7264,-3.707,-3.7007,-3.6968,-3.6929,-3.6954,-3.6993,-3.6978,-3.6978,-3.6915,-3.685,-3.6589,-3.6391,-3.6246,-3.5938,-3.5804,-3.571,-3.571,-3.571,-3.571,-3.571,-3.571,-3.571,-3.571,-3.571,-3.571,-3.571,-3.571,-3.5723,-3.5898,-3.6032,-3.6072,-3.6152,-3.6338,-3.6351,-3.6484,-3.6642,-3.6707,-3.6733,-3.685,-3.6875,-3.6915,-3.6954,-3.6993,-3.6978,-3.6978,-3.6978,-3.6978,-3.6978,-3.688,-3.6866,-3.6936,-3.6936,-3.6712,-3.6385,-3.5953,-3.5531,-3.4922,-3.4558,-3.451,-3.4512,-3.4725,-3.4996,-3.506,-3.4939,-3.4875,-3.4879,-3.4929,-3.4854,-3.5122,-3.4995,-3.5018,-3.4982,-3.4865,-3.4852,-3.4825,-3.4829,-3.4704,-3.4511,-3.4582,-3.4802,-3.5001,-3.5198,-3.5507,-3.575,-3.5926,-3.6085,-3.8202,-3.8202,-3.8202,-3.8202,-3.8188,-3.8014,-3.7593,-3.7143,-3.7665,-3.7462,-3.6809,-3.7578,-3.7651,-3.7723,-3.8072,-3.8173,-3.8202,-3.8202,-3.8202,-3.8202,-3.8202,-3.8202,-3.8202,-3.8165,-3.7991,-3.7777,-3.7586,-3.7433,-3.7109,-3.6889,-3.6786,-3.6786,-3.6825,-3.6889,-3.6954,-3.6978,-3.6978,-3.6993,-3.6929,-3.6707,-3.651,-3.6325,-3.6058,-3.5858,-3.571,-3.571,-3.571,-3.571,-3.571,-3.571,-3.571,-3.571,-3.571,-3.571,-3.571,-3.571,-3.571,-3.5764,-3.5804,-3.5844,-3.5884,-3.5924,-3.5924,-3.6138,-3.6351,-3.647,-3.651,-3.6628,-3.6733,-3.6772,-3.6811,-3.6875,-3.6915,-3.6954,-3.6954,-3.6978,-3.6978,-3.6978,-3.6978,-3.6978,-3.6978,-3.6922,-3.6571,-3.629,-3.5826,-3.511,-3.4702,-3.4725,-3.4756,-3.4963,-3.5325,-3.5455,-3.5378,-3.5301,-3.5381,-3.5418,-3.518,-3.5047,-3.4929,-3.4732,-3.4549,-3.4477,-3.4403,-3.4427,-3.4582,-3.4412,-3.4103,-3.4259,-3.4467,-3.4515,-3.4716,-3.5082,-3.5409,-3.5589,-3.5735,-3.8202,-3.8202,-3.8202,-3.8202,-3.8202,-3.8202,-3.7738,-3.7128,-3.7564,-3.7389,-3.6693,-3.7418,-3.7854,-3.7825,-3.8043,-3.8202,-3.8202,-3.8202,-3.8202,-3.8202,-3.8202,-3.8202,-3.8202,-3.8165,-3.7938,-3.7725,-3.7534,-3.738,-3.7031,-3.6825,-3.6721,-3.6721,-3.6721,-3.6825,-3.6968,-3.6978,-3.6978,-3.6978,-3.6954,-3.6811,-3.6628,-3.6431,-3.6152,-3.5898,-3.5764,-3.571,-3.571,-3.571,-3.571,-3.571,-3.571,-3.571,-3.571,-3.571,-3.571,-3.571,-3.571,-3.571,-3.571,-3.571,-3.571,-3.571,-3.571,-3.5844,-3.6058,-3.6178,-3.6312,-3.6445,-3.651,-3.6589,-3.6668,-3.6733,-3.6811,-3.6875,-3.6915,-3.6978,-3.6978,-3.6978,-3.6978,-3.6978,-3.6978,-3.6978,-3.6796,-3.6543,-3.6234,-3.57,-3.5321,-3.5217,-3.5077,-3.4987,-3.5573,-3.6048,-3.5887,-3.5704,-3.5787,-3.5798,-3.551,-3.5218,-3.4931,-3.4708,-3.4358,-3.4129,-3.412,-3.4272,-3.4481,-3.4239,-3.4025,-3.4014,-3.4142,-3.421,-3.4346,-3.475,-3.5049,-3.5166,-3.5282,-3.8173,-3.8115,-3.813,-3.813,-3.8202,-3.8188,-3.7491,-3.646,-3.7157,-3.6693,-3.6017,-3.6794,-3.7418,-3.768,-3.7897,-3.8101,-3.8159,-3.8202,-3.8202,-3.8202,-3.8202,-3.8202,-3.8202,-3.8165,-3.7953,-3.7725,-3.7495,-3.7341,-3.6993,-3.6733,-3.6642,-3.6682,-3.6682,-3.6772,-3.6954,-3.6978,-3.6978,-3.6978,-3.6954,-3.6889,-3.6668,-3.6484,-3.6325,-3.6018,-3.5844,-3.571,-3.571,-3.571,-3.571,-3.571,-3.571,-3.571,-3.571,-3.571,-3.571,-3.571,-3.571,-3.571,-3.571,-3.571,-3.571,-3.571,-3.571,-3.575,-3.5884,-3.5978,-3.6112,-3.6192,-3.6272,-3.6351,-3.6431,-3.6549,-3.6668,-3.6693,-3.6733,-3.6797,-3.6875,-3.6915,-3.6978,-3.6978,-3.6978,-3.6978,-3.6964,-3.6697,-3.6445,-3.6174,-3.592,-3.5695,-3.5569,-3.533,-3.5709,-3.6427,-3.638,-3.6169,-3.6193,-3.6113,-3.5755,-3.5433,-3.5173,-3.4718,-3.4434,-3.4163,-3.3876,-3.3943,-3.4044,-3.4157,-3.4078,-3.3941,-3.3868,-3.4005,-3.4176,-3.4481,-3.4683,-3.4817,-3.4953,-3.7926,-3.7535,-3.752,-3.7767,-3.8173,-3.8202,-3.7462,-3.6446,-3.752,-3.7201,-3.6388,-3.691,-3.7535,-3.7839,-3.7694,-3.7839,-3.8159,-3.8202,-3.8202,-3.8202,-3.8202,-3.8202,-3.8202,-3.8202,-3.7953,-3.7725,-3.751,-3.724,-3.6747,-3.651,-3.647,-3.647,-3.647,-3.6654,-3.6954,-3.6954,-3.6978,-3.6978,-3.6978,-3.685,-3.6549,-3.6536,-3.6403,-3.6005,-3.571,-3.571,-3.571,-3.571,-3.571,-3.571,-3.571,-3.571,-3.571,-3.571,-3.571,-3.571,-3.5683,-3.5696,-3.5764,-3.5737,-3.5751,-3.5737,-3.5724,-3.5683,-3.5723,-3.5764,-3.5844,-3.5938,-3.6018,-3.6112,-3.6192,-3.6365,-3.6484,-3.6524,-3.6549,-3.6668,-3.6733,-3.6836,-3.694,-3.6978,-3.6978,-3.6978,-3.6978,-3.6852,-3.6613,-3.6399,-3.6174,-3.6005,-3.6019,-3.5906,-3.5906,-3.6469,-3.6778,-3.6694,-3.6652,-3.6511,-3.6221,-3.5982,-3.576,-3.5224,-3.4538,-3.4285,-3.403,-3.3642,-3.3543,-3.3755,-3.3818,-3.355,-3.3521,-3.373,-3.3868,-3.4108,-3.4288,-3.4424,-3.4631,-3.7767,-3.7694,-3.7709,-3.7883,-3.8115,-3.7926,-3.7215,-3.6562,-3.707,-3.6809,-3.6214,-3.707,-3.7767,-3.7941,-3.7694,-3.7781,-3.8159,-3.8202,-3.8202,-3.8202,-3.8202,-3.8202,-3.8202,-3.8202,-3.7953,-3.7701,-3.738,-3.6993,-3.6484,-3.6405,-3.6391,-3.6312,-3.6351,-3.6549,-3.685,-3.6915,-3.6978,-3.6978,-3.6978,-3.6811,-3.6524,-3.651,-3.6377,-3.5978,-3.5764,-3.5764,-3.571,-3.571,-3.571,-3.571,-3.571,-3.571,-3.571,-3.571,-3.571,-3.5669,-3.567,-3.567,-3.5832,-3.5845,-3.579,-3.5722,-3.5749,-3.5775,-3.5534,-3.5562,-3.5683,-3.5764,-3.5858,-3.5938,-3.5978,-3.6098,-3.6246,-3.6286,-3.6405,-3.6524,-3.6589,-3.6693,-3.6772,-3.6811,-3.6875,-3.6978,-3.6978,-3.6978,-3.6782,-3.6754,-3.6539,-3.6497,-3.6483,-3.6346,-3.6427,-3.6511,-3.6796,-3.6936,-3.6852,-3.6835,-3.675,-3.6539,-3.6262,-3.5428,-3.4677,-3.443,-3.4176,-3.3677,-3.3438,-3.3593,-3.3564,-3.3347,-3.3312,-3.3486,-3.3591,-3.3709,-3.389,-3.4163,-3.4582,-3.752,-3.8043,-3.797,-3.7999,-3.8014,-3.7549,-3.6867,-3.6272,-3.6301,-3.5938,-3.5566,-3.7085,-3.7549,-3.7651,-3.768,-3.797,-3.8173,-3.8202,-3.8202,-3.8202,-3.8202,-3.8202,-3.8202,-3.8165,-3.7915,-3.761,-3.7264,-3.685,-3.6405,-3.6405,-3.6312,-3.6152,-3.6272,-3.6431,-3.6668,-3.6811,-3.6875,-3.6929,-3.6889,-3.6864,-3.6682,-3.6524,-3.6286,-3.6072,-3.5858,-3.571,-3.571,-3.571,-3.571,-3.5873,-3.59,-3.5818,-3.5737,-3.571,-3.571,-3.5669,-3.5588,-3.575,-3.5897,-3.5854,-3.5783,-3.5738,-3.5816,-3.5687,-3.5438,-3.5453,-3.5534,-3.5629,-3.571,-3.5791,-3.5831,-3.5871,-3.6019,-3.6099,-3.6259,-3.6365,-3.6431,-3.651,-3.6589,-3.6668,-3.6772,-3.6875,-3.6982,-3.6982,-3.7024,-3.701,-3.7049,-3.7021,-3.7003,-3.6782,-3.6712,-3.6726,-3.688,-3.6978,-3.6978,-3.6964,-3.6922,-3.6838,-3.6459,-3.5545,-3.4801,-3.4506,-3.4126,-3.3621,-3.3445,-3.3515,-3.3459,-3.3304,-3.3312,-3.3312,-3.3396,-3.355,-3.3802,-3.4133,-3.4694,-3.6881,-3.7418,-3.691,-3.6968,-3.7418,-3.7317,-3.6635,-3.577,-3.6069,-3.5691,-3.5198,-3.5967,-3.6809,-3.7273,-3.6765,-3.7085,-3.8057,-3.8144,-3.8202,-3.8202,-3.8202,-3.8202,-3.8165,-3.8089,-3.7915,-3.7572,-3.7187,-3.6811,-3.6484,-3.6405,-3.6312,-3.6112,-3.6126,-3.6246,-3.6431,-3.6536,-3.6615,-3.6707,-3.6786,-3.6761,-3.6682,-3.6524,-3.6325,-3.6072,-3.5844,-3.5764,-3.571,-3.571,-3.6008,-3.6266,-3.6347,-3.6117,-3.5873,-3.571,-3.571,-3.5669,-3.5588,-3.5642,-3.5734,-3.5678,-3.5607,-3.5429,-3.5387,-3.5364,-3.5234,-3.5357,-3.5493,-3.5602,-3.5683,-3.5791,-3.5818,-3.5872,-3.5926,-3.598,-3.6047,-3.6086,-3.6178,-3.6312,-3.6445,-3.6484,-3.651,-3.667,-3.6872,-3.6995,-3.7242,-3.7296,-3.7459,-3.7389,-3.7021,-3.6993,-3.7007,-3.6978,-3.6978,-3.6978,-3.6978,-3.6978,-3.695,-3.6922,-3.6712,-3.5911,-3.5194,-3.4526,-3.409,-3.3697,-3.3417,-3.3361,-3.329,-3.3276,-3.3276,-3.3312,-3.3312,-3.3424,-3.3691,-3.4186,-3.4832]},{"header":{"parameterUnit":"m.s-1","parameterCategory":1,"la1":31.0,"la2":29.5877,"lo1":-88.7671,"lo2":-86.6584,"dy":0.0162,"dx":0.0185,"nx":115,"ny":88,"refTime":"2023-05-06T12:00:00:Z","depth":0,"parameterNumber":3,"parameterNumberName":"V-component_of_WINDS"},"data":[0.0,0.0,0.0,0.0,0.0,0.0,0.0,0.0,0.0,0.0,0.0,0.0,0.0,0.0,0.0,0.0,0.0,0.0,0.0,0.0,0.0,0.0,0.0,0.0,0.0,0.0,0.0,0.0,0.0,0.0,0.0,0.0,0.0,0.0,0.0,0.0,0.0,0.0,0.0,0.0,0.0,0.0,0.0,0.0,0.0,0.0,0.0,0.0,0.0,0.0,0.0,0.0,0.0,0.0,0.0,0.0,0.0,0.0,0.0,0.0,0.0,0.0,0.0,0.0,0.0,0.0,0.0,0.0,0.0,0.0,0.0,0.0,0.0,0.0,0.0,0.0,0.0,0.0,0.0,0.0,0.0,0.0,0.0,0.0,0.0,0.0,0.0,0.0,0.0,0.0,0.0,0.0,0.0,0.0,0.0,0.0,0.0,0.0,0.0,0.0,0.0,0.0,0.0,0.0,0.0,0.0,0.0,0.0,0.0,0.0,0.0,0.0,0.0,0.0,0.0,0.0,0.0,0.0,0.0,0.0,0.0,0.0,0.0,0.0,0.0,0.0,0.0,0.0,0.0,0.0,0.0,0.0,0.0,0.0,0.0,0.0,0.0,0.0,0.0,0.0,0.0,0.0,0.0,0.0,0.0,0.0,0.0,0.0,0.0,0.0,0.0,0.0,0.0,0.0,0.0,0.0,0.0,0.0,0.0,0.0,0.0,0.0,0.0,0.0,0.0,0.0,0.0,0.0,0.0,0.0,0.0,0.0,0.0,0.0,0.0,0.0,0.0,0.0,0.0,0.0,0.0,0.0,0.0,0.0,0.0,0.0,0.0,0.0,0.0,0.0,0.0,0.0,0.0,0.0,0.0,0.0,0.0,0.0,0.0,0.0,0.0,0.0,0.0,0.0,0.0,0.0,0.0,0.0,0.0,0.0,0.0,0.0,0.0,0.0,0.0,0.0,0.0,0.0,0.0,0.0,0.0,0.0,0.0,0.0,0.0,0.0,0.0,0.0,0.0,0.0,0.0,0.0,0.0,0.0,0.0,0.0,0.0,0.0,0.0,0.0,0.0,0.0,0.0,0.0,0.0,0.0,0.0,0.0,0.0,0.0,0.0,0.0,0.0,0.0,0.0,0.0,0.0,0.0,0.0,0.0,0.0,0.0,0.0,0.0,0.0,0.0,0.0,0.0,0.0,0.0,0.0,0.0,0.0,0.0,0.0,0.0,0.0,0.0,0.0,0.0,0.0,0.0,0.0,0.0,0.0,0.0,0.0,0.0,0.0,0.0,0.0,0.0,0.0,0.0,0.0,0.0,0.0,0.0,0.0,0.0,0.0,0.0,0.0,0.0,0.0,0.0,0.0,0.0,0.0,0.0,0.0,0.0,0.0,0.0,0.0,0.0,0.0,0.0,0.0,0.0,0.0,0.0,0.0,0.0,0.0,0.0,0.0,0.0,0.0,0.0,0.0,0.0,0.0,0.0,0.0,0.0,0.0,0.0,0.0,0.0,0.0,0.0,0.0,0.0,0.0,0.0,0.0,0.0,0.0,0.0,0.0,0.0,0.0,0.0,0.0,0.0,0.0,0.0,0.0,0.0,0.0,0.0,0.0,0.0,0.0,0.0,0.0,0.0,0.0,0.0,0.0,0.0,0.0,0.0,0.0,0.0,0.0,0.0,0.0,0.0,0.0,0.0,0.0,0.0,0.0,0.0,0.0,0.0,0.0,0.0,0.0,0.0,0.0,0.0,0.0,0.0,0.0,0.0,0.0,0.0,0.0,0.0,0.0,0.0,0.0,0.0,0.0,0.0,0.0,0.0,0.0,0.0,0.0,0.0,0.0,0.0,0.0,0.0,0.0,0.0,0.0,0.0,0.0,0.0,0.0,0.0,0.0,0.0,0.0,0.0,0.0,0.0,0.0,0.0,0.0,0.0,0.0,0.0,0.0,0.0,0.0,0.0,0.0,0.0,0.0,0.0,0.0,0.0,0.0,0.0,0.0,0.0,0.0,0.0,0.0,0.0,0.0,0.0,0.0,0.0,0.0,0.0,0.0,0.0,0.0,0.0,0.0,0.0,0.0,0.0,0.0,0.0,0.0,0.0,0.0,0.0,0.0,0.0,0.0,0.0,0.0,0.0,0.0,0.0,0.0,0.0,0.0,0.0,0.0,0.0,0.0,0.0,0.0,0.0,0.0,0.0,0.0,0.0,0.0,0.0,0.0,0.0,0.0,0.0,0.0,0.0,0.0,0.0,0.0,0.0,0.0,0.0,0.0,0.0,0.0,0.0,0.0,0.0,0.0,0.0,0.0,0.0,0.0,0.0,0.0,0.0,0.0,0.0,0.0,0.0,0.0,0.0,0.0,0.0,0.0,0.0,0.0,0.0,0.0,0.0,0.0,0.0,0.0,0.0,0.0,0.0,0.0,0.0,0.0,0.0,0.0,0.0,0.0,0.0,0.0,0.0,0.0,0.0,0.0,0.0,0.0,0.0,0.0,0.0,0.0,0.0,0.0,0.0,0.0,0.0,0.0,0.0,0.0,0.0,0.0,0.0,0.0,0.0,0.0,0.0,0.0,0.0,0.0,0.0,0.0,0.0,0.0,0.0,0.0,0.0,0.0,0.0,0.0,0.0,0.0,0.0,0.0,0.0,0.0,0.0,0.0,0.0,0.0,0.0,0.0,0.0,0.0,0.0,0.0,0.0,0.0,0.0,0.0,0.0,0.0,0.0,0.0,0.0,0.0,0.0,0.0,0.0,0.0,0.0,0.0,0.0,0.0,0.0,0.0,0.0,0.0,0.0,0.0,0.0,0.0,0.0,0.0,0.0,0.0,0.0,0.0,0.0,0.0,0.0,0.0,0.0,0.0,0.0,0.0,0.0,0.0,0.0,0.0,0.0,0.0,0.0,0.0,0.0,0.0,0.0,0.0,0.0,0.0,0.0,0.0,0.0,0.0,0.0,0.0,0.0,0.0,0.0,0.0,0.0,0.0,0.0,0.0,0.0,0.0,0.0,0.0,0.0,0.0,0.0,0.0,0.0,0.0,0.0,0.0,0.0,0.0,0.0,0.0,0.0,0.0,0.0,0.0,0.0,0.0,0.0,0.0,0.0,0.0,0.0,0.0,0.0,0.0,0.0,0.0,0.0,0.0,0.0,0.0,0.0,0.0,0.0,0.0,0.0,0.0,0.0,0.0,0.0,0.0,0.0,0.0,0.0,0.0,0.0,0.0,0.0,0.0,0.0,0.0,0.0,0.0,0.0,0.0,0.0,0.0,0.0,0.0,0.0,0.0,0.0,0.0,0.0,0.0,0.0,0.0,0.0,0.0,0.0,0.0,0.0,0.0,0.0,0.0,0.0,0.0,0.0,0.0,0.0,0.0,0.0,0.0,0.0,0.0,0.0,0.0,0.0,0.0,0.0,0.0,0.0,0.0,0.0,0.0,0.0,0.0,0.0,0.0,0.0,0.0,0.0,0.0,0.0,0.0,0.0,0.0,0.0,0.0,0.0,0.0,0.0,0.0,0.0,0.0,0.0,0.0,0.0,0.0,0.0,0.0,0.0,0.0,0.0,0.0,0.0,0.0,0.0,0.0,0.0,0.0,0.0,0.0,0.0,0.0,0.0,0.0,0.0,0.0,0.0,0.0,0.0,0.0,0.0,0.0,0.0,0.0,0.0,0.0,0.0,0.0,0.0,0.0,0.0,0.0,0.0,0.0,0.0,0.0,0.0,0.0,0.0,0.0,0.0,0.0,0.0,0.0,0.0,0.0,0.0,0.0,0.0,0.0,0.0,0.0,0.0,0.0,0.0,0.0,0.0,0.0,0.0,0.0,0.0,0.0,0.0,0.0,0.0,0.0,0.0,0.0,0.0,0.0,0.0,0.0,0.0,0.0,0.0,0.0,0.0,0.0,0.0,0.0,0.0,0.0,0.0,0.0,0.0,0.0,0.0,0.0,0.0,0.0,0.0,0.0,0.0,0.0,0.0,0.0,0.0,0.0,0.0,0.0,0.0,0.0,0.0,0.0,0.0,0.0,0.0,0.0,0.0,0.0,0.0,0.0,0.0,0.0,0.0,0.0,0.0,0.0,0.0,0.0,0.0,0.0,0.0,0.0,0.0,0.0,0.0,0.0,0.0,0.0,0.0,0.0,0.0,0.0,0.0,0.0,0.0,0.0,0.0,0.0,0.0,0.0,0.0,0.0,0.0,0.0,0.0,0.0,0.0,0.0,0.0,0.0,0.0,0.0,0.0,0.0,0.0,0.0,0.0,0.0,0.0,0.1046,0.0,0.0,0.0,0.0,0.0,0.0,0.0,0.0,0.0,0.0,0.0,0.0,0.0,0.0,0.0,0.0,0.0,0.0,0.0,0.0,0.0,0.0,0.0,0.0,0.0,0.0,0.0,0.0,0.0,0.0,0.0,0.0,0.0,0.0,0.0,0.0,0.0,0.0,0.0,0.0,0.0,0.0,0.0,0.0,0.0,0.0,0.0,0.0,0.0,0.0,0.0,0.0,0.0,0.0,0.0,0.0,0.0,0.0,0.0,0.0,0.0,0.0,0.0,0.0,0.0,0.0,0.0,0.0,0.0,0.0,0.0,0.0,0.0,0.0,0.0,0.0,0.0,0.0,0.0,0.0,0.0,0.0,0.0,0.0,0.0,0.0,0.0,0.0,0.0,0.0,0.0,0.0,0.0,0.0,0.0,0.0,0.0,0.0,0.0,0.0,0.0,0.0,0.0,0.0,0.0,0.0,0.0,0.0,0.0,0.0,0.2534,0.1948,0.1677,0.1548,0.16,0.0,0.0,0.0,0.0,0.0,0.0,0.0,0.0,0.0,0.0,0.0,0.0,0.0,0.0,0.0,0.0,0.0,0.0,0.0,0.0,0.0,0.0,0.0,0.0,0.0,0.0,0.0,0.0,0.0,0.0,0.0,0.0,0.0,0.0,0.0,0.0,0.0,0.0,0.0,0.0,0.0,0.0,0.0,0.0,0.0,0.0,0.0,0.0,0.0,0.0,0.0,0.0,0.0,0.0,0.0,0.0,0.0,0.0,0.0,0.0,0.0,0.0,0.0,0.0,0.0,0.0,0.0,0.0,0.0,0.0,0.0,0.0,0.0,0.0,0.0,0.0,0.0,0.0,0.0,0.0,0.0,0.0,0.0,0.0,0.0,0.0,0.0,0.0,0.0,0.0,0.0,0.0,0.0,0.0,0.0,0.0,0.0,0.0,0.0,0.0,0.0,0.0,0.0,0.0,0.0,0.0,0.0,0.0,0.0,0.0,0.0,0.0,0.239,0.2188,0.2245,0.0,0.0,0.0,0.0,0.0,0.0,0.0,0.0,0.0,0.0,0.0,0.0,0.0,0.0,0.0,0.0,0.0,0.0,0.0,0.0,0.0,0.0,0.0,0.0,0.0,0.0,0.0,0.0,0.0,0.0,0.0,0.0,0.0,0.0,0.0,0.0,0.0,0.0,0.0,0.0,0.0,0.0,0.0,0.0,0.0,0.0,0.0,0.0,0.0,0.0,0.0,0.0,0.0,0.0,0.0,0.0,0.0,0.0,0.0,0.0,0.0,0.0,0.0,0.0,0.0,0.0,0.0,0.0,0.0,0.0,0.0,0.0,0.0,0.0,0.0,0.0,0.0,0.0,0.0,0.0,0.0,0.0,0.0,0.0,0.0,0.0,0.0,0.0,0.0,0.0,0.0,0.0,0.0,0.0,0.0,0.0,0.0,0.0,0.0,0.0,0.0,0.0,0.0,0.0,0.0,0.0,0.0,0.0,0.0,0.0,0.3609,0.3395,0.2823,0.0,0.287,0.0,0.0,0.0,0.0,0.0,0.0,0.0,0.0,0.0,0.0,0.0,0.0,0.0,0.0,0.0,0.0,0.0,0.0,0.0,0.0,0.0,0.0,0.0,0.0,0.0,0.0,0.0,0.0,0.0,0.0,0.0,0.0,0.0,0.0,0.0,0.0,0.0,0.0,0.0,0.0,0.0,0.0,0.0,0.0,0.0,0.0,0.0,0.0,0.0,0.0,0.0,0.0,0.0,0.0,0.0,0.0,0.0,0.0,0.0,0.0,0.0,0.0,0.0,0.0,0.0,0.0,0.0,0.0,0.0,0.0,0.0,0.0,0.0,0.0,0.0,0.0,0.0,0.0,0.0,0.0,0.0,0.0,0.0,0.0,0.0,0.0,0.0,0.0,0.0,0.0,0.0,0.0,0.0,0.0,0.0,0.0,0.0,0.0,0.0,0.0,0.0,0.0,0.0,0.0,0.0,0.0,0.0,0.0,0.0,0.0,0.4065,0.3784,0.3106,0.2831,0.0,0.0,0.0,0.0,0.0,0.0,0.0,0.0,0.0,0.0,0.0,0.0,0.0,0.0,0.0,0.0,0.0,0.0,0.0,0.0,0.0,0.0,0.0,0.0,0.0,0.0,0.0,0.0,0.0,0.0,0.0,0.0,0.0,0.0,0.0,0.0,0.0,0.0,0.0,0.0,0.0,0.0,0.0,0.0,0.0,0.0,0.0,0.0,0.0,0.0,0.0,0.0,0.0,0.0,0.0,0.0,0.0,0.0,0.0,0.0,0.0,0.0,0.0,0.0,0.0,0.0,0.0,0.0,0.0,0.0,0.0,0.0,0.0,0.0,0.0,0.0,0.0,0.0,0.0,0.0,0.0,0.0,0.0,0.0,0.0,0.0,0.0,0.0,0.0,0.0,0.0,0.0,0.0,0.0,0.0,0.0,0.0,0.0,0.0,0.0,0.0,0.0,0.0,0.0,0.0,0.0,0.0,0.0,0.0,0.0,0.4691,0.4229,0.3852,0.3338,0.31,0.3199,0.0,0.0,0.0,0.0,0.0,0.0,0.0,0.0,0.0,0.0,0.0,0.0,0.0,0.0,0.0,0.0,0.0,0.0,0.0,0.0,0.0,0.0,0.0,0.0,0.0,0.0,0.0,0.0,0.0,0.0,0.0,0.0,0.0,0.0,0.0,0.0,0.0,0.0,0.0,0.0,0.0,0.0,0.0,0.0,0.0,0.0,0.0,0.0,0.0,0.0,0.0,0.0,0.0,0.0,0.0,0.0,0.0,0.0,0.0,0.0,0.0,0.0,0.0,0.0,0.0,0.0,0.0,0.0,0.0,0.0,0.0,0.0,0.0,0.0,0.0,0.0,0.0,0.0,0.0,0.0,0.0,0.0,0.0,0.0,0.0,0.0,0.0,0.0,0.0,0.0,0.0,0.0,0.0,0.0,0.0,0.0,0.0,0.0,0.0,0.0,0.0,0.0,0.0,0.0,0.0,0.0,0.0,0.0,0.5424,0.4644,0.3951,0.3472,0.341,0.3503,0.0,0.0,0.0,0.0,0.0,0.0,0.0,0.0,0.0,0.0,0.0,0.0,0.0,0.0,0.0,0.0,0.0,0.0,0.0,0.0,0.0,0.0,0.0,0.0,0.0,0.0,0.0,0.0,0.0,0.0,0.0,0.0,0.0,0.0,0.0,0.0,0.0,0.0,0.0,0.0,0.0,0.0,0.0,0.0,0.0,0.0,0.0,0.0,0.0,0.0,0.0,0.0,0.0,0.0,0.0,0.0,0.0,0.0,0.0,0.0,0.0,0.0,0.0,0.0,0.0,0.0,0.0,0.0,0.0,0.0,0.0,0.0,0.0,0.0,0.0,0.0,0.0,0.0,0.0,0.0,0.0,0.0,0.0,0.0,0.0,0.0,0.0,0.0,0.0,0.0,0.0,0.0,0.0,0.0,0.0,0.0,0.0,0.0,0.0,0.0,0.0,0.0,0.0,0.0,0.0,0.0,0.0,0.0,0.0,0.5799,0.5058,0.4356,0.3732,0.3676,0.3758,0.0,0.0,0.0,0.0,0.0,0.0,0.0,0.0,0.0,0.0,0.0,0.0,0.0,0.0,0.0,0.0,0.0,0.0,0.0,0.0,0.0,0.0,0.0,0.0,0.0,0.0,0.0,0.0,0.0,0.0,0.0,0.0,0.0,0.0,0.0,0.0,0.0,0.0,0.0,0.0,0.0,0.0,0.0,0.0,0.0,0.0,0.0,0.0,0.0,0.0,0.0,0.0,0.0,0.0,0.0,0.0,0.0,0.0,0.0,0.0,0.0,0.0,0.0,0.0,0.0,0.0,0.0,0.0,0.0,0.0,0.0,0.0,0.0,0.0,0.0,0.0,0.0,0.0,0.0,0.0,0.0,0.0,0.0,0.0,0.0,0.0,0.0,0.0,0.0,0.0,0.0,0.0,0.0,0.0,0.0,0.0,0.0,0.0,0.0,0.0,0.0,0.0,0.0,0.0,0.0,0.0,0.0,0.0,0.0,0.5748,0.0,0.474,0.4055,0.3993,0.4015,0.0,0.0,0.0,0.0,0.0,0.0,0.0,0.0,0.0,0.0,0.0,0.0,0.0,0.0,0.0,0.0,0.0,0.0,0.0,0.0,0.0,0.0,0.0,0.0,0.0,0.0,0.0,0.0,0.0,0.0,0.0,0.0,0.0,0.0,0.0,0.0,0.0,0.0,0.0,0.0,0.0,0.0,0.0,0.0,0.0,0.0,0.0,0.0,0.0,0.0,0.0,0.0,0.0,0.0,0.0,0.0,0.0,0.0,0.0,0.0,0.0,0.0,0.0,0.0,0.0,0.0,0.0,0.0,0.0,0.0,0.0,0.0,0.0,0.0,0.0,0.0,0.0,0.0,0.0,0.0,0.0,0.0,0.0,0.0,0.0,0.0,0.0,0.0,0.0,0.0,0.0,0.0,0.0,0.0,0.0,0.0,0.0,0.0,0.0,0.0,0.0,0.0,0.0,0.0,0.0,0.0,0.0,0.0,0.5753,0.5163,0.5338,0.507,0.4376,0.4369,0.4378,0.0,0.0,0.0,0.0,0.0,0.0,0.0,0.0,0.0,0.0,0.0,0.0,0.0,0.0,0.0,0.0,0.0,0.0,0.0,0.0,0.0,0.0,0.0,0.0,0.0,0.0,0.0,0.0,0.0,0.0,0.0,0.0,0.0,0.0,0.0,0.0,0.0,0.0,0.0,0.0,0.0,0.0,0.0,0.0,0.0,0.0,0.0,0.0,0.0,0.0,0.0,0.0,0.0,0.0,0.0,0.0,0.0,0.0,0.0,0.0,0.0,0.0,0.0,0.0,0.0,0.0,0.0,0.0,0.0,0.0,0.0,0.0,0.0,0.0,0.0,0.0,0.0,0.0,0.0,0.0,0.0,0.0,0.0,0.0,0.0,0.0,0.0,0.0,0.0,0.0,0.0,0.0,0.0,0.0,0.0,0.0,0.0,0.0,0.0,0.0,0.0,0.0,0.0,0.0,0.0,0.0,0.0,0.0,0.0,0.6546,0.6229,0.5757,0.5258,0.5192,0.5223,0.0,0.0,0.0,0.0,0.0,0.0,0.0,0.0,0.0,0.0,0.0,0.0,0.0,0.0,0.0,0.0,0.0,0.0,0.0,0.0,0.0,0.0,0.0,0.0,0.0,0.0,0.0,0.0,0.0,0.0,0.0,0.0,0.0,0.0,0.0,0.0,0.0,0.0,0.0,0.0,0.0,0.0,0.0,0.0,0.0,0.0,0.0,0.0,0.0,0.0,0.0,0.0,0.0,0.0,0.0,0.0,0.0,0.0,0.0,0.0,0.0,0.0,0.0,0.0,0.0,0.0,0.0,0.0,0.0,0.0,0.0,0.0,0.0,0.0,0.0,0.0,0.0,0.0,0.0,0.0,0.0,0.0,0.0,0.0,0.0,0.0,0.0,0.0,0.0,0.0,0.0,0.0,0.0,0.0,0.0,0.0,0.0,0.0,0.0,0.0,0.0,0.0,0.0,0.0,0.0,0.0,0.0,0.0,0.0,0.8339,0.7241,0.6497,0.6117,0.6063,0.6101,0.6274,0.0,0.0,0.0,0.0,0.0,0.0,0.0,0.0,0.0,0.0,0.0,0.0,0.0,0.0,0.0,0.0,0.0,0.0,0.0,0.0,0.0,0.0,0.0,0.0,0.0,0.0,0.0,0.0,0.0,0.0,0.0,0.0,0.0,0.0,0.0,0.0,0.0,0.0,0.0,0.0,0.0,0.0,0.0,0.0,0.0,0.0,0.0,0.0,0.0,0.0,0.0,0.0,0.0,0.0,0.0,0.0,0.0,0.0,0.0,0.0,0.0,0.0,0.0,0.0,0.0,0.0,0.0,0.0,0.0,0.0,0.0,0.0,0.0,0.0,0.0,0.0,0.0,0.0,0.0,0.0,0.0,0.0,0.0,0.0,0.0,0.0,0.0,0.0,0.0,0.0,0.0,0.0,0.0,0.0,0.0,0.0,0.0,0.0,0.0,0.0,0.0,0.0,0.0,0.0,0.0,0.0,0.0,0.0,1.0362,0.8517,0.7371,0.6964,0.6996,0.702,0.0,0.0,0.0,0.0,0.0,0.0,0.0,0.0,0.0,0.0,0.0,0.0,0.0,0.0,0.0,0.0,0.0,0.0,0.0,0.0,0.0,0.0,0.0,0.0,0.0,0.0,0.0,0.0,0.0,0.0,0.0,0.0,0.0,0.0,0.0,0.0,0.0,0.0,0.0,0.0,0.0,0.0,0.0,0.0,0.0,0.0,0.0,0.0,0.0,0.0,0.0,0.0,0.0,0.0,0.0,0.0,0.0,0.0,0.0,0.0,0.0,0.0,0.0,0.0,0.0,0.0,0.0,0.0,0.0,0.0,0.0,0.0,0.0,0.0,0.0,0.0,0.0,0.0,0.0,0.0,0.0,0.0,0.0,0.0,0.0,0.0,0.0,0.0,0.0,0.0,0.0,0.0,0.0,0.0,0.0,0.0,0.0,0.0,0.0,0.0,0.0,0.0,0.0,0.0,0.0,0.0,0.0,0.0,0.0,1.1098,1.0423,0.9566,0.8462,0.8221,0.8103,0.0,0.0,0.0,0.0,0.0,0.0,0.0,0.0,0.0,0.0,0.0,0.0,0.0,0.0,0.0,0.0,0.0,0.0,0.0,0.0,0.0,0.0,0.0,0.0,0.0,0.0,0.0,0.0,0.0,0.0,0.0,0.0,0.0,0.0,0.0,0.0,0.0,0.0,0.0,0.0,0.0,0.0,0.0,0.0,0.0,0.0,0.0,0.0,0.0,0.0,0.0,0.0,0.0,0.0,0.0,0.0,0.0,0.0,0.0,0.0,0.0,0.0,0.0,0.0,0.0,0.0,0.0,0.0,0.0,0.0,0.0,0.0,0.0,0.0,0.0,0.0,0.0,0.0,0.0,0.0,0.0,0.0,0.0,0.0,0.0,0.0,0.0,0.0,0.0,0.0,0.0,0.0,0.0,0.0,0.0,0.0,0.0,0.0,0.0,0.0,0.0,0.0,0.0,0.0,0.0,0.0,0.0,0.0,1.2016,1.2294,1.2004,1.1487,1.0891,1.0083,0.9479,0.0,0.0,0.0,0.0,0.0,0.0,0.0,0.0,0.0,0.0,0.0,0.0,0.0,0.0,0.0,0.0,0.0,0.0,0.0,0.0,0.0,0.0,0.0,0.0,0.0,0.0,0.0,0.0,0.0,0.0,0.0,0.0,0.0,0.0,0.0,0.0,0.0,0.0,0.0,0.0,0.0,0.0,0.0,0.0,0.0,0.0,0.0,0.0,0.0,0.0,0.0,0.0,0.0,0.0,0.0,0.0,0.0,0.0,0.0,0.0,0.0,0.0,0.0,0.0,0.0,0.0,0.0,0.0,0.0,0.0,0.0,0.0,0.0,0.0,0.0,0.0,0.0,0.0,0.0,0.0,0.0,0.0,0.0,0.0,0.0,0.0,0.0,0.0,0.0,0.0,0.0,0.0,0.0,0.0,0.0,0.0,0.0,0.0,0.0,0.0,0.0,0.0,0.0,0.0,0.0,0.0,0.0,0.0,1.3441,1.3763,1.3332,1.3213,1.347,1.209,1.1036,0.0,0.0,0.0,0.0,0.0,0.0,0.0,0.0,0.0,0.0,0.0,0.0,0.0,0.0,0.0,0.0,0.0,0.0,0.0,0.0,0.0,0.0,0.0,0.0,0.0,0.0,0.0,0.0,0.0,0.0,0.0,0.0,0.0,0.0,0.0,0.0,0.0,0.0,0.0,0.0,0.0,0.0,0.0,0.0,0.0,0.0,0.0,0.0,0.0,0.0,0.0,0.0,0.0,0.0,0.0,0.0,0.0,0.0,0.0,0.0,0.0,0.0,0.0,0.0,0.0,0.0,0.0,0.0,0.0,0.0,0.0,0.0,0.0,0.0,0.0,0.0,0.0,0.0,0.0,0.0,0.0,0.0,0.0,0.0,0.0,0.0,0.0,0.0,0.0,0.0,0.0,0.0,0.0,0.0,0.0,0.0,0.0,0.0,0.0,0.0,0.0,0.0,0.0,0.0,0.0,0.0,0.0,0.0,1.4801,1.5008,1.5188,1.4958,1.4124,1.2822,1.2082,0.0,0.0,0.0,0.0,0.0,0.0,0.0,0.0,0.0,0.0,0.0,0.0,0.0,0.0,0.0,0.0,0.0,0.0,0.0,0.0,0.0,0.0,0.0,0.0,0.0,0.0,0.0,0.0,0.0,0.0,0.0,0.0,0.0,0.0,0.0,0.0,0.0,0.0,0.0,0.0,0.0,0.0,0.0,0.0,0.0,0.0,0.0,0.0,0.5284,0.0,0.0,0.0,0.0,0.0,0.0,0.0,0.0,0.0,0.0,0.0,0.0,0.0,0.0,0.0,0.0,0.0,0.0,0.0,0.0,0.0,0.0,0.0,0.0,0.0,0.0,0.0,0.0,0.0,0.0,0.0,0.0,0.0,0.0,0.0,0.0,0.0,0.0,0.0,0.0,0.0,0.0,0.0,0.0,0.0,0.0,0.0,0.0,0.0,0.0,0.0,0.0,0.0,0.0,0.0,0.0,0.0,0.0,0.0,1.5696,1.5883,1.6241,1.6113,1.567,1.463,1.3691,0.0,0.0,0.0,0.0,0.0,0.0,0.0,0.0,0.0,0.0,0.0,0.0,0.0,0.0,0.0,0.0,0.0,0.0,0.0,0.0,0.0,0.0,0.0,0.0,0.0,0.0,0.0,0.0,0.0,0.0,0.0,0.0,0.0,0.0,0.0,0.0,0.0,0.0,0.0,0.0,0.0,0.0,0.0,0.0,0.0,0.0,0.0,0.0,0.0,0.0,0.0,0.0,0.0,0.0,0.0,0.0,0.0,0.0,0.0,0.0,0.0,0.0,0.0,0.0,0.0,0.0,0.0,0.0,0.0,0.0,0.0,0.0,0.0,0.0,0.0,0.0,0.0,0.0,0.0,0.0,0.0,0.0,0.0,0.0,0.0,0.0,0.0,0.0,0.0,0.0,0.0,0.0,0.0,0.0,0.0,0.0,0.0,0.0,0.0,0.0,0.0,0.0,0.0,0.0,0.0,0.0,0.0,1.6179,1.6608,1.676,1.7045,1.7189,1.7177,1.6629,1.5462,1.3663,0.0,0.0,0.0,0.0,0.0,0.0,0.0,0.0,0.0,0.0,0.0,0.0,0.0,0.0,0.0,0.0,0.0,0.0,0.0,0.0,0.0,0.0,0.0,0.0,0.0,0.0,0.0,0.0,0.0,0.0,0.0,0.0,0.0,0.0,0.0,0.0,0.0,0.0,1.0835,1.045,0.0,0.0,0.0,0.0,0.0,0.0,0.0,0.0,0.601,0.0,0.0,0.0,0.0,0.0,0.0,0.0,0.0,0.0,0.0,0.0,0.0,0.0,0.0,0.0,0.0,0.0,0.0,0.0,0.0,0.0,0.0,0.0,0.0,0.0,0.0,0.0,0.0,0.0,0.0,0.0,0.0,0.0,0.0,0.0,0.0,0.0,0.0,0.0,0.0,0.0,0.0,0.0,0.0,0.0,0.0,0.0,0.0,0.0,0.0,0.0,0.0,0.0,0.0,0.0,0.0,1.6501,1.7284,1.7807,1.7978,1.8531,1.824,1.7108,1.758,1.7096,1.5462,0.0,0.0,0.0,0.0,0.0,0.0,0.0,0.0,0.0,0.0,0.0,0.0,0.0,0.0,0.0,0.0,0.0,0.0,0.0,0.0,0.0,0.0,0.0,0.0,0.0,0.0,0.0,0.0,0.0,0.0,0.0,0.0,0.0,0.0,0.0,0.0,0.0,0.0,0.0,1.0785,1.056,0.0,0.0,0.0,0.0,0.0,0.0,0.0,0.0,0.6917,0.0,0.0,0.0,0.0,0.0,0.0,0.0,0.0,0.0,0.0,0.0,0.0,0.0,0.0,0.0,0.0,0.0,0.0,0.0,0.0,0.0,0.0,0.0,0.0,0.0,0.0,0.0,0.0,0.0,0.0,0.0,0.0,0.0,0.0,0.0,0.0,0.0,0.0,0.0,0.0,0.0,0.0,0.0,0.0,0.0,0.0,0.0,0.0,0.0,0.0,0.0,0.0,0.0,0.0,0.0,1.7358,1.7939,1.8472,1.9063,1.9483,1.9311,1.8492,1.8564,1.8118,0.0,0.0,0.0,0.0,0.0,0.0,0.0,0.0,0.0,0.0,0.0,0.0,0.0,0.0,0.0,0.0,0.0,0.0,0.0,0.0,0.0,0.0,0.0,0.0,0.0,0.0,0.0,0.0,0.0,0.0,0.0,0.0,0.0,0.0,0.0,0.0,0.0,0.0,0.0,0.0,1.1533,1.134,1.1047,0.0,0.0,0.0,0.0,0.0,0.0,0.7925,0.7729,0.0,0.0,0.0,0.0,0.0,0.0,0.0,0.0,0.0,0.0,0.0,0.0,0.0,0.0,0.0,0.0,0.0,0.0,0.0,0.0,0.0,0.0,0.0,0.0,0.0,0.0,0.0,0.0,0.0,0.0,0.0,0.0,0.0,0.0,0.0,0.0,0.0,0.0,0.0,0.0,0.0,0.0,0.0,0.0,0.0,0.0,0.0,0.0,0.0,0.0,0.0,0.0,0.0,0.0,0.0,1.8199,1.8543,1.9194,2.0037,2.0422,2.035,1.9809,1.9462,1.8981,0.0,0.0,0.0,0.0,0.0,0.0,0.0,0.0,0.0,0.0,0.0,0.0,0.0,0.0,0.0,0.0,0.0,0.0,0.0,0.0,0.0,0.0,0.0,0.0,0.0,0.0,0.0,0.0,0.0,0.0,0.0,0.0,0.0,0.0,0.0,0.0,0.0,0.0,0.0,0.0,0.0,1.2178,1.1937,1.1477,0.0,0.0,0.0,0.0,0.9019,0.8873,0.0,0.0,0.0,0.0,0.0,0.0,0.0,0.0,0.0,0.0,0.0,0.0,0.0,0.0,0.0,0.0,0.0,0.0,0.0,0.0,0.0,0.0,0.0,0.0,0.0,0.0,0.0,0.0,0.0,0.0,0.0,0.0,0.0,0.0,0.0,0.0,0.0,0.0,0.0,0.0,0.0,0.0,0.0,0.0,0.0,0.0,0.0,0.0,0.0,0.0,0.0,0.0,0.0,0.0,0.0,0.0,1.8956,1.9583,2.0224,2.0903,2.1541,2.1188,1.9852,2.0249,1.9749,0.0,0.0,0.0,0.0,0.0,0.0,0.0,0.0,0.0,0.0,0.0,0.0,0.0,0.0,0.0,0.0,0.0,0.0,0.0,0.0,0.0,0.0,0.0,0.0,0.0,0.0,0.0,0.0,0.0,0.0,0.0,0.0,0.0,0.0,0.0,0.0,0.0,0.0,0.0,0.0,0.0,1.3045,1.2932,1.2488,1.2098,0.0,0.0,1.0663,1.0674,1.0608,0.0,0.0,0.0,0.0,0.0,0.0,0.0,0.0,0.0,0.0,0.0,0.0,0.0,0.0,0.0,0.0,0.0,0.0,0.0,0.0,0.0,0.0,0.0,0.0,0.0,0.0,0.0,0.0,0.0,0.0,0.0,0.0,0.0,0.0,0.0,0.0,0.0,0.0,0.0,0.0,0.0,0.0,0.0,0.0,0.0,0.0,0.0,0.0,0.0,0.0,0.0,0.0,0.0,0.0,0.0,1.8505,1.9972,2.0468,2.1204,2.2308,2.2426,2.2237,2.1799,2.1486,2.0831,0.0,0.0,0.0,0.0,0.0,0.0,0.0,0.0,0.0,0.0,0.0,0.0,0.0,0.0,0.0,0.0,0.0,0.0,0.0,0.0,0.0,0.0,0.0,0.0,0.0,0.0,0.0,0.0,0.0,0.0,0.0,0.0,0.0,0.0,0.0,0.0,0.0,0.0,0.0,0.0,0.0,0.0,1.3516,1.3522,0.0,0.0,0.0,1.2444,1.2003,0.0,0.0,0.0,0.0,0.0,0.0,0.0,0.0,0.0,0.0,0.0,0.0,0.0,0.0,0.0,0.0,0.0,0.0,0.0,0.0,0.0,0.0,0.0,0.0,0.0,0.0,0.0,0.0,0.0,0.0,0.0,0.0,0.0,0.0,0.0,0.0,0.0,0.0,0.0,0.0,0.0,0.0,0.0,0.0,0.0,0.0,0.0,0.0,0.0,0.0,0.0,0.0,0.0,0.0,0.0,0.0,0.0,2.0933,2.1271,2.2046,2.329,2.3173,2.3103,2.3332,2.2521,0.0,0.0,0.0,0.0,0.0,0.0,0.0,0.0,0.0,0.0,0.0,0.0,0.0,0.0,0.0,0.0,0.0,0.0,0.0,0.0,0.0,0.0,0.0,0.0,0.0,0.0,0.0,1.4471,0.0,0.0,0.0,0.0,0.0,0.0,0.0,0.0,0.0,0.0,0.0,0.0,0.0,0.0,1.3974,1.4262,1.4497,1.4515,0.0,0.0,1.3984,1.3303,1.3286,1.3007,0.0,0.0,0.0,0.0,0.0,0.0,0.0,0.0,0.0,0.0,0.0,0.0,0.0,0.0,0.0,0.0,0.0,0.0,0.0,0.0,0.0,0.0,0.0,0.0,0.0,0.0,0.0,0.0,0.0,0.0,0.0,0.0,0.0,0.0,0.0,0.0,0.0,0.0,0.0,0.0,0.0,0.0,0.0,0.0,0.0,0.0,0.0,0.0,0.0,0.0,0.0,0.0,0.0,0.0,0.0,2.1683,2.2099,2.2681,2.3479,2.3774,2.3782,2.3496,2.3004,2.2425,0.0,0.0,0.0,0.0,0.0,0.0,0.0,0.0,0.0,0.0,0.0,0.0,0.0,0.0,0.0,0.0,0.0,0.0,0.0,0.0,0.0,0.0,0.0,0.0,0.0,0.0,0.0,0.0,0.0,0.0,0.0,0.0,0.0,0.0,0.0,0.0,0.0,0.0,0.0,0.0,0.0,1.4997,1.5242,1.5515,1.5586,0.0,0.0,1.4885,1.464,1.471,1.4588,1.3823,0.0,0.0,0.0,0.0,0.0,0.0,0.0,0.0,0.0,0.0,0.0,0.0,0.0,0.0,0.0,0.0,0.0,0.0,0.0,0.0,0.0,0.0,0.0,0.0,0.0,0.0,0.0,0.0,0.0,0.0,0.0,0.0,0.0,0.0,0.0,0.0,0.0,0.0,0.0,0.0,0.0,0.0,0.0,0.0,0.0,0.0,0.0,0.0,0.0,0.0,0.0,0.0,0.0,2.0944,2.2528,2.2795,2.352,2.4684,2.4606,2.4647,2.4739,2.3908,2.3269,0.0,0.0,0.0,0.0,0.0,0.0,0.0,0.0,0.0,0.0,0.0,0.0,0.0,0.0,0.0,0.0,0.0,0.0,0.0,0.0,0.0,0.0,0.0,0.0,0.0,0.0,0.0,0.0,1.5947,1.594,1.5733,0.0,0.0,0.0,0.0,0.0,0.0,0.0,0.0,0.0,0.0,1.5571,1.5832,1.6103,0.0,0.0,1.5979,1.5936,1.5655,1.568,1.5519,1.4927,1.4421,0.0,0.0,0.0,0.0,0.0,0.0,0.0,0.0,0.0,0.0,0.0,0.0,0.0,0.0,0.0,0.0,0.0,0.0,0.0,0.0,0.0,0.0,0.0,0.0,0.0,0.0,0.0,0.0,0.0,0.0,0.0,0.0,0.0,0.0,0.0,0.0,0.0,0.0,0.0,0.0,0.0,0.0,0.0,0.0,0.0,0.0,0.0,0.0,0.0,0.0,0.0,0.0,2.194,2.3196,2.3476,2.4153,2.5289,2.5133,2.5163,2.5519,2.4659,2.4032,0.0,0.0,0.0,0.0,0.0,0.0,0.0,0.0,0.0,0.0,0.0,0.0,0.0,0.0,0.0,0.0,0.0,0.0,0.0,0.0,0.0,0.0,0.0,0.0,0.0,0.0,0.0,0.0,1.673,1.6599,1.6427,0.0,0.0,0.0,0.0,0.0,0.0,0.0,0.0,0.0,0.0,1.6127,1.6565,1.6817,1.6864,1.6669,1.6716,1.6738,1.6468,1.643,1.6334,1.5971,0.0,0.0,0.0,0.0,0.0,0.0,0.0,0.0,0.0,0.0,0.0,0.0,0.0,0.0,0.0,0.0,0.0,0.0,0.0,0.0,0.0,0.0,0.0,0.0,0.0,0.0,0.0,0.0,0.0,0.0,0.0,0.0,0.0,0.0,0.0,0.0,0.0,0.0,0.0,0.0,0.0,0.0,0.0,0.0,0.0,0.0,0.0,0.0,0.0,0.0,0.0,0.0,0.0,2.2848,2.3663,2.4079,2.4515,2.4941,2.5196,2.543,2.5693,2.5117,2.4756,2.4726,0.0,0.0,0.0,0.0,0.0,0.0,0.0,0.0,0.0,0.0,0.0,0.0,0.0,0.0,0.0,0.0,0.0,0.0,0.0,0.0,0.0,0.0,0.0,0.0,0.0,0.0,1.77,1.7505,1.731,0.0,0.0,0.0,0.0,0.0,0.0,0.0,0.0,0.0,0.0,1.6242,1.6705,1.7524,1.7675,1.7613,1.7621,1.7441,1.72,1.7012,1.6979,1.6979,0.0,0.0,0.0,0.0,0.0,0.0,0.0,0.0,0.0,0.0,0.0,0.0,0.0,0.0,0.0,0.0,0.0,0.0,0.0,0.0,0.0,0.0,0.0,0.0,0.0,0.0,0.0,2.2403,2.2087,0.0,0.0,0.0,0.0,0.0,0.0,0.0,0.0,0.0,0.0,0.0,2.3644,2.3724,0.0,0.0,0.0,0.0,0.0,0.0,0.0,0.0,0.0,0.0,0.0,0.0,2.3722,2.4414,2.4853,2.5388,2.5945,2.6062,2.6294,2.6696,2.5879,2.5272,2.4864,0.0,0.0,0.0,0.0,0.0,0.0,0.0,0.0,0.0,0.0,0.0,0.0,0.0,0.0,0.0,0.0,0.0,0.0,0.0,0.0,0.0,0.0,0.0,0.0,0.0,1.8451,0.0,0.0,0.0,0.0,0.0,0.0,0.0,0.0,0.0,0.0,0.0,1.6322,1.6384,1.6637,1.7025,1.7553,1.7659,1.769,0.0,0.0,0.0,0.0,0.0,0.0,0.0,0.0,0.0,0.0,0.0,0.0,0.0,0.0,1.3617,1.2559,1.225,1.2057,1.1843,0.0,0.0,0.0,0.0,0.0,0.0,0.0,0.0,0.0,0.0,0.0,0.0,0.0,0.0,0.0,0.0,2.3608,0.0,0.0,0.0,0.0,0.0,0.0,0.0,0.0,2.5534,2.569,2.565,2.5968,2.6127,0.0,2.5878,2.5315,0.0,0.0,0.0,0.0,0.0,0.0,0.0,0.0,2.4786,2.5087,2.5752,2.629,2.6706,2.6832,2.7109,2.7563,2.6834,2.6126,2.5475,2.5009,2.4523,0.0,0.0,0.0,0.0,0.0,0.0,0.0,0.0,0.0,0.0,0.0,0.0,0.0,0.0,0.0,0.0,0.0,0.0,0.0,0.0,0.0,0.0,0.0,1.8882,0.0,0.0,0.0,0.0,0.0,0.0,0.0,0.0,0.0,1.6894,1.699,1.714,1.7138,1.7399,1.7687,1.8039,0.0,0.0,0.0,0.0,0.0,0.0,0.0,1.7635,1.7425,1.7111,1.6616,1.5852,1.5461,1.5276,1.5301,0.0,0.0,1.3643,1.3242,1.2966,1.279,1.2705,1.254,1.2143,1.1757,1.137,0.0,0.0,0.0,0.0,0.0,0.0,0.0,0.0,2.5862,2.58,0.0,2.5549,0.0,0.0,0.0,0.0,0.0,0.0,0.0,0.0,2.8023,2.8568,2.8437,2.9283,2.9543,2.9137,2.8833,2.8474,2.7904,2.5196,0.0,0.0,0.0,0.0,0.0,0.0,2.6087,2.563,2.6682,2.7231,2.7278,2.7536,2.7893,2.8366,2.793,2.7321,2.6542,2.6166,2.5821,2.5495,2.468,0.0,0.0,0.0,0.0,0.0,0.0,0.0,0.0,0.0,0.0,0.0,0.0,0.0,0.0,0.0,0.0,0.0,0.0,0.0,0.0,1.9548,0.0,0.0,0.0,0.0,0.0,0.0,0.0,0.0,0.0,0.0,1.7635,1.7581,1.7764,1.8054,0.0,0.0,0.0,0.0,1.9034,1.8657,1.8422,1.8324,1.83,1.8145,1.8008,1.8043,0.0,0.0,1.5668,1.5436,1.5291,1.4824,1.4762,1.4754,1.4845,1.4213,1.3652,1.3434,1.327,1.3058,1.279,1.2577,1.2277,3.0224,0.0,0.0,0.0,0.0,2.8533,2.8575,2.8586,2.8616,2.8191,2.7403,2.7273,0.0,0.0,0.0,0.0,0.0,0.0,2.8131,2.8517,2.8949,2.9378,2.9857,3.0139,3.0295,3.0301,3.0084,2.9845,2.9451,2.8496,2.7307,2.5984,0.0,0.0,0.0,0.0,2.7279,2.7388,2.7957,2.8351,2.856,2.8606,2.8637,2.862,2.9162,2.8757,2.7283,2.7311,2.6967,2.5994,2.5503,0.0,0.0,0.0,0.0,0.0,0.0,0.0,0.0,0.0,0.0,0.0,0.0,0.0,0.0,0.0,0.0,0.0,0.0,0.0,2.0657,2.0072,1.9706,0.0,0.0,0.0,0.0,0.0,0.0,0.0,0.0,0.0,1.9011,1.8743,1.8564,0.0,0.0,1.8839,1.8874,1.8756,1.8702,1.8742,0.0,0.0,0.0,1.8066,1.7834,1.7622,1.716,1.6725,1.6417,1.594,1.5567,1.5443,1.5208,1.4985,1.5021,1.46,1.4159,1.3948,1.387,1.3786,1.3701,1.3398,1.3052,3.2481,3.1289,3.0716,3.0367,3.0187,3.0354,3.0408,3.0325,3.0408,3.0019,2.9331,2.9209,2.875,2.799,2.793,0.0,0.0,0.0,2.9382,2.974,3.0237,3.0687,3.1073,3.139,3.1519,3.1549,3.1225,3.0947,3.067,3.038,2.9624,2.8439,0.0,0.0,2.7838,2.8313,2.8532,2.8522,2.9034,2.9382,2.9531,2.9726,2.9611,2.9145,2.9891,2.9572,2.7968,2.8216,2.7935,2.6972,2.6462,2.608,0.0,0.0,0.0,0.0,0.0,0.0,0.0,0.0,0.0,0.0,0.0,2.2147,2.2182,0.0,0.0,0.0,2.2297,2.1799,2.1241,2.0663,0.0,0.0,0.0,0.0,0.0,0.0,0.0,2.0303,2.0108,1.9951,1.9882,1.9758,1.9569,1.938,1.9605,1.9661,1.9427,0.0,1.9102,1.8998,1.8837,1.8668,1.8622,1.8468,1.8215,1.7872,1.7424,1.7009,1.6853,1.6353,1.5982,1.5865,1.5575,1.5291,1.5131,1.4873,1.4573,1.4286,1.4201,1.4201,1.413,1.387,1.3652,3.4371,3.3713,3.2371,3.1517,3.1071,3.143,3.1483,3.1331,3.1483,3.1471,3.124,3.124,3.086,3.0137,2.9539,0.0,0.0,3.0142,3.0403,3.0478,3.168,3.2114,3.2033,3.2744,3.2982,3.2698,3.2256,3.1893,3.1711,3.1206,3.0976,3.0905,2.9886,2.9351,2.9254,2.9732,2.9713,2.9272,2.9896,3.0261,3.0306,3.0781,3.0655,2.9784,3.026,2.9911,2.8607,2.8841,2.8772,2.8211,2.7498,2.7085,2.7042,0.0,0.0,0.0,0.0,0.0,0.0,0.0,0.0,0.0,0.0,0.0,0.0,0.0,0.0,0.0,2.2989,0.0,2.173,2.1241,0.0,0.0,0.0,2.1215,2.1215,2.1215,2.1138,2.0955,0.0,0.0,0.0,0.0,2.0668,2.0546,2.0857,2.0872,2.0286,2.0078,1.9859,1.9259,1.9206,1.9165,1.9079,1.8994,1.8758,1.8442,1.8023,1.7578,1.7221,1.673,1.636,1.6128,1.5906,1.5567,1.5215,1.5131,1.5006,1.4524,1.444,1.4363,1.4201,1.4124,1.3997,3.5297,3.4894,3.4549,3.3865,3.3022,3.3106,3.3106,3.3064,3.3148,3.2918,3.2482,3.2469,3.2054,3.1372,3.1019,3.0876,3.0929,3.1066,3.1354,3.1743,3.2047,3.2411,3.2825,3.3018,3.3081,3.3025,3.2857,3.2807,3.2739,3.2614,3.2466,3.224,3.197,3.1374,3.0527,3.0603,3.0648,3.0561,3.0734,3.0871,3.1026,3.135,3.1037,3.0049,3.0505,3.0164,2.8809,2.9193,2.9088,2.8334,2.8086,2.7819,2.7418,2.7284,0.0,0.0,0.0,0.0,0.0,0.0,0.0,0.0,0.0,2.3917,2.4098,0.0,2.4487,0.0,2.3964,2.3022,2.2561,2.1796,0.0,0.0,2.1282,2.1215,2.1215,2.1215,2.1167,2.1128,2.1089,2.0974,2.078,2.1036,2.122,2.1053,2.0953,2.0722,2.025,2.0063,1.9802,1.9388,1.9146,1.9057,1.9066,1.8883,1.8732,1.8612,1.825,1.7829,1.7619,1.7057,1.6525,1.617,1.5873,1.5624,1.5382,1.534,1.5215,1.4999,1.4783,1.4608,1.4566,1.4447,1.4314,3.6087,3.5652,3.5652,3.5154,3.4396,3.401,3.3797,3.3713,3.3713,3.3546,3.3239,3.3036,3.2672,3.2243,3.1797,3.1549,3.1587,3.1691,3.1926,3.2227,3.2478,3.2767,3.3124,3.3124,3.3124,3.3124,3.3124,3.3124,3.3124,3.3124,3.3025,3.2896,3.2896,3.2488,3.1717,3.1619,3.1559,3.1629,3.1508,3.1463,3.1484,3.1617,3.1211,3.0284,3.0731,3.0385,2.8995,2.9434,2.9417,2.8829,2.8557,2.8323,2.8127,2.8114,2.8089,0.0,0.0,0.0,0.0,0.0,0.0,0.0,0.0,0.0,0.0,0.0,2.5256,0.0,2.441,0.0,2.3253,2.2499,2.1987,2.1911,2.1731,2.1617,2.1627,2.1502,2.1436,2.1359,2.132,2.1244,2.1061,2.1222,2.1302,2.1105,2.0933,2.0776,2.0517,2.0254,1.9968,1.9625,1.939,1.9231,1.9152,1.9042,1.8922,1.8843,1.8571,1.8241,1.8023,1.7538,1.7017,1.6615,1.6237,1.5906,1.5582,1.5465,1.5347,1.5257,1.5124,1.495,1.4734,1.4608,1.4524,3.6763,3.6227,3.6214,3.5874,3.526,3.4539,3.4098,3.3797,3.3797,3.3797,3.3759,3.3283,3.3065,3.2998,3.236,3.2062,3.2059,3.2268,3.2357,3.2395,3.2885,3.3124,3.3124,3.3124,3.3124,3.3124,3.3124,3.3124,3.3124,3.3124,3.3124,3.3124,3.3124,3.2982,3.2766,3.2593,3.2444,3.24,3.2181,3.1981,3.1805,3.1805,3.1385,3.053,3.0895,3.0533,2.9217,2.9585,2.9742,2.9443,2.9035,2.8875,2.9026,2.9064,2.9114,0.0,2.9139,0.0,0.0,0.0,0.0,0.0,0.0,0.0,0.0,2.6582,2.5789,2.5115,2.4655,2.4196,2.376,2.3139,2.2665,2.2478,2.2252,2.2138,2.2101,2.1959,2.1769,2.1578,2.154,2.1464,2.1282,2.1244,2.1167,2.1013,2.0917,2.0899,2.0857,2.0584,2.0244,1.9981,1.9754,1.9557,1.939,1.9341,1.9262,1.9082,1.8851,1.8692,1.8442,1.8031,1.7587,1.7172,1.6722,1.627,1.5775,1.5541,1.5431,1.5382,1.5389,1.5257,1.4908,1.4783,1.4734,3.7377,3.6841,3.6841,3.624,3.5286,3.5139,3.4757,3.4272,3.4272,3.4272,3.4259,3.4001,3.3879,3.3811,3.3498,3.3363,3.3334,3.3225,3.3148,3.3161,3.3147,3.3124,3.3124,3.3124,3.3124,3.3124,3.3124,3.3124,3.3124,3.3124,3.3124,3.3124,3.3124,3.3081,3.3025,0.0,0.0,0.0,3.2356,3.23,3.2257,3.2257,3.1786,3.0785,3.0834,0.0,2.9427,2.944,2.9582,2.9702,2.9782,0.0,0.0,0.0,0.0,0.0,0.0,0.0,0.0,0.0,0.0,0.0,2.9009,2.8349,2.6993,2.6719,2.6295,2.5483,2.5056,2.4539,2.392,2.3327,2.2927,2.2889,2.2553,2.2252,2.2138,2.2063,2.1949,2.1769,2.1731,2.1655,2.1464,2.1425,2.1359,2.1177,2.1022,2.0897,2.0898,2.0674,2.0459,2.0255,1.999,1.9754,1.9566,1.9557,1.9469,1.9271,1.9073,1.8891,1.866,1.8282,1.774,1.7221,1.6845,1.6443,1.5858,1.565,1.5582,1.5431,1.5431,1.5389,1.5257,1.5124,1.4999,3.773,0.0,3.7456,3.6776,0.0,3.5691,3.5195,3.4397,3.4397,3.4397,3.4397,3.4285,3.4243,3.4243,3.3992,3.3894,3.3894,3.3654,3.3556,3.3569,3.3356,3.3227,3.3227,3.3167,3.3124,3.3124,3.3124,3.3124,3.3124,3.3124,3.3124,3.3124,3.3124,3.3124,3.3124,3.3124,3.2896,3.255,3.255,3.2519,3.24,3.24,3.1914,3.098,0.0,0.0,0.0,0.0,0.0,0.0,0.0,0.0,0.0,0.0,0.0,3.0546,3.0533,3.0596,3.0672,3.071,3.031,2.9481,2.8779,2.7987,2.6937,2.7115,2.6821,2.5672,2.5549,2.5233,2.4513,2.3849,2.342,2.3298,2.2852,2.2526,2.2402,2.2214,2.2063,2.1949,2.1835,2.1731,2.1655,2.1655,2.1578,2.1387,2.1282,2.1128,2.0916,2.0731,2.0527,2.0333,2.0177,2.002,1.9794,1.9754,1.9676,1.9478,1.9359,1.9161,1.8882,1.8643,1.8282,1.7668,1.727,1.6861,1.6319,1.6031,1.5824,1.5624,1.5541,1.5506,1.5431,1.5305,1.5257,3.79,3.7887,3.7782,3.7116,3.6096,3.6005,3.5365,3.4397,0.0,0.0,0.0,3.4397,3.4397,3.4397,3.4243,3.416,3.4118,3.3894,3.3755,3.3768,3.3556,3.3441,3.3398,3.324,3.3124,3.3124,3.3124,3.3124,3.3124,3.3124,3.3124,3.3124,3.3124,3.3124,3.3124,3.3124,3.2982,3.284,3.281,3.268,3.2519,3.2476,3.2017,3.1231,3.1283,3.0968,3.0203,3.033,3.0406,3.0406,3.0444,3.0482,3.052,3.0558,3.0634,3.0849,3.0811,3.0874,3.1024,3.1011,3.0542,2.951,2.8313,2.7481,2.7149,2.7502,2.7246,2.5954,2.6117,2.5949,2.5147,2.4443,2.3922,2.3666,2.3187,2.2815,2.2703,2.244,2.2214,2.2111,2.1949,2.1845,2.1807,2.1769,2.1741,2.1578,2.1502,2.1349,2.0984,2.0741,2.0527,2.042,2.0333,2.0264,2.0059,1.9981,1.9863,1.9666,1.9606,1.9478,1.9201,1.9042,1.8754,1.8241,1.7797,1.7351,1.6894,1.6451,1.6128,1.5816,1.5782,1.5741,1.559,1.5506,1.5465,3.79,3.7861,3.7338,3.6737,3.607,3.56,3.5012,3.441,3.4397,3.4397,3.4397,3.4397,3.4397,3.4397,3.4356,3.4356,3.4356,3.4118,3.4034,0.0,3.3768,3.3556,3.3386,3.3356,3.327,3.3111,3.3124,3.3124,3.3124,3.3124,3.3124,3.3124,3.3124,3.3124,3.3124,3.3124,3.3154,3.3313,3.3167,3.3038,3.2982,3.2646,3.223,3.164,3.1347,3.0957,3.0394,3.0394,3.0406,3.0406,3.0571,3.0723,3.0911,3.1099,3.1248,3.1461,3.1323,3.1235,3.1272,3.1099,3.0712,3.0035,2.9249,2.8421,2.7592,2.7582,2.7415,2.6872,2.6721,2.6261,2.5384,2.4874,2.4371,2.3922,2.3629,2.3261,2.2777,2.2665,2.2478,2.2176,2.2073,2.1997,2.1883,2.1807,2.1807,2.1731,2.1617,2.1359,2.1012,2.0731,2.0605,2.0576,2.0566,2.0459,2.0294,2.0225,2.0137,1.9902,1.9715,1.9645,1.9518,1.924,1.8922,1.8652,1.8241,1.7708,1.7172,1.6812,1.6492,1.6203,1.6087,1.6046,1.5963,1.5831,1.5624,3.79,3.7835,3.726,3.6658,3.6044,3.5182,3.4646,3.441,3.4397,3.4397,3.4397,3.4397,3.4397,3.4397,3.4397,3.4397,3.4397,3.4314,3.4285,3.4243,3.4021,3.3852,3.3738,3.3526,3.3368,3.3283,3.3154,3.3124,3.3124,3.3124,3.3124,3.3124,3.3124,3.3124,3.3124,3.3124,3.3197,3.3386,3.3313,3.3174,3.298,3.2797,3.2291,3.1478,3.1381,3.1113,3.0597,3.0685,3.0798,3.0898,3.0973,3.1112,3.1349,3.141,3.1522,3.1609,3.1522,3.1434,3.131,3.0797,3.0375,3.01,2.9516,2.9087,2.8839,2.8573,2.8265,2.7817,2.7503,2.7027,2.6258,2.5397,2.4731,2.4371,2.3911,2.3446,2.3075,2.2815,2.2628,2.244,2.2327,2.2214,2.2149,2.2025,2.1959,2.1949,2.1731,2.1425,2.1244,2.1051,2.0838,2.0654,2.0615,2.0566,2.0489,2.0459,2.0372,2.0137,2.0029,1.9912,1.9794,1.9518,1.924,1.8922,1.8612,1.8161,1.7546,1.7335,1.7049,1.6738,1.6492,1.6409,1.6286,1.6079,1.5831,3.79,3.7848,3.7246,3.658,3.5835,3.4829,3.4397,3.4397,3.4397,3.4397,3.4397,3.4397,3.4397,3.4397,3.4397,3.4397,3.4397,3.4397,3.4397,3.4356,3.4243,3.416,3.4063,3.3725,3.3526,3.3441,3.327,3.3167,3.3154,3.3124,3.3124,3.3124,3.3124,3.3124,3.3124,3.3154,3.3283,3.3441,3.3526,3.3407,3.3082,3.2908,3.2384,3.1562,3.1436,3.1176,3.0799,3.0949,3.1123,3.1272,3.136,3.1485,3.1633,3.1669,3.1669,3.1706,3.1683,3.1559,3.1283,3.0716,3.032,3.032,2.9928,2.9813,3.0008,2.9739,2.9273,2.8667,2.8309,2.7851,2.7196,2.6298,2.5457,2.5027,2.4472,2.4031,2.365,2.3277,2.3015,2.2966,2.2751,2.2579,2.2397,2.2252,2.2138,2.2063,2.1807,2.1578,2.1502,2.1359,2.1118,2.0838,2.0683,2.0693,2.0644,2.0605,2.0527,2.0372,2.0294,2.0186,2.002,1.9833,1.9597,1.924,1.8971,1.8563,1.8055,1.7781,1.7538,1.718,1.6984,1.6812,1.6607,1.6409,1.6128,3.79,3.7808,3.7246,3.6358,3.5325,3.4672,3.4397,3.4397,3.4397,3.4397,3.4397,3.4397,3.4397,3.4397,3.4397,3.4397,3.4397,3.4397,3.4397,3.4397,3.4356,3.4285,3.4118,3.4034,3.3894,3.367,3.3484,3.3356,3.3356,3.3197,3.3124,3.3124,3.3124,3.3124,3.3124,3.3283,3.3484,3.3683,3.3907,3.3924,3.3597,3.2866,3.2419,3.2263,3.1486,3.1039,3.0986,3.1161,3.1272,3.131,3.1471,3.1683,3.1853,3.189,3.1963,3.2109,3.1963,3.1693,3.1347,3.122,3.1055,3.0945,3.0854,3.079,3.0831,3.067,3.0136,2.9375,2.9099,2.8623,2.7865,2.7544,2.6944,2.5935,2.568,2.5374,2.4656,2.4303,2.4049,2.3722,2.3471,2.3084,2.2616,2.2434,2.2289,2.2138,2.1949,2.1731,2.1578,2.1502,2.1436,2.1167,2.1012,2.0896,2.0858,2.0731,2.0654,2.0615,2.0411,2.0342,2.0264,2.0069,1.9833,1.9676,1.9359,1.8913,1.8585,1.8175,1.77,1.7587,1.7392,1.727,1.7057,1.682,1.6492,3.79,3.7808,3.6867,3.5809,3.4789,3.4502,3.4397,3.4397,3.4397,3.4397,3.4397,3.4397,3.4397,3.4397,3.4397,3.4397,3.4397,3.4397,3.4397,3.4397,3.4397,3.4343,3.4285,3.416,3.4034,3.3894,3.3683,3.3556,3.3556,3.3398,3.3197,3.3124,3.3124,3.3124,3.3124,3.321,3.3356,3.367,3.381,3.3937,3.3975,3.3112,3.2423,3.1993,3.1367,3.1061,3.1161,3.1259,3.1384,3.1619,3.173,3.1853,3.2073,3.2073,3.2096,3.2182,3.2,3.1817,3.1656,3.1434,3.1272,3.1161,3.1061,3.1024,3.1024,3.0911,3.0644,3.011,2.9553,2.8949,2.8512,2.8064,2.7545,2.6944,2.6574,2.6164,2.5739,2.5245,2.4835,2.4592,2.4139,2.3689,2.321,2.28,2.2537,2.2289,2.2101,2.1921,2.1845,2.1769,2.1655,2.154,2.1387,2.1205,2.1099,2.1012,2.0974,2.0935,2.078,2.0664,2.0625,2.0342,2.0108,1.9981,1.9706,1.939,1.9103,1.8785,1.8393,1.8161,1.7757,1.7514,1.731,1.7188,1.7033,3.79,3.7717,3.6606,3.5534,3.4659,3.4463,3.4397,3.4397,3.4397,3.4397,3.4397,3.4397,3.4397,3.4397,3.4397,3.4397,3.4397,3.4397,3.4397,3.4397,3.4397,3.4397,3.4384,3.423,3.4189,3.416,3.3937,3.3768,3.3683,3.3556,3.3386,3.3283,3.3197,3.3197,3.3154,3.321,3.3356,3.3683,3.3768,3.4021,3.4238,3.343,3.2659,3.2032,3.1365,3.1099,3.131,3.1347,3.1545,3.1904,3.1927,3.2036,3.2169,3.2205,3.2205,3.2169,3.2073,3.1963,3.189,3.1619,3.1421,3.131,3.1161,3.1061,3.1024,3.1024,3.0911,3.0659,3.0034,2.9541,2.9227,2.8712,2.8213,2.7854,2.7455,2.7128,2.6773,2.6225,2.5849,2.5525,2.5077,2.4404,2.387,2.3286,2.2821,2.252,2.2289,2.2176,2.2138,2.2025,2.1883,2.1873,2.1731,2.1512,2.132,2.1205,2.1215,2.1177,2.1012,2.0984,2.0984,2.0702,2.0498,2.042,2.0177,1.9902,1.9548,1.9271,1.8993,1.8723,1.8322,1.787,1.7757,1.7595,1.7514,3.79,3.7704,3.6606,3.573,3.5208,3.4646,3.4397,3.4397,3.4397,3.4397,3.4397,3.4397,3.4397,3.4397,3.4397,3.4397,3.4397,3.4371,3.4371,3.4397,3.4397,3.4397,3.4397,3.4397,3.4356,3.4356,3.4147,3.3937,3.3713,3.3725,3.3683,3.3628,3.3484,3.3386,3.3398,3.3398,3.3513,3.3725,3.3992,3.4202,3.4332,3.3876,3.3275,3.266,3.1588,3.1125,3.131,3.1471,3.1706,3.189,3.2073,3.2169,3.2205,3.2205,3.2205,3.2218,3.2182,3.2109,3.194,3.1853,3.1706,3.1384,3.131,3.1198,3.1061,3.1024,3.0911,3.0736,3.0595,3.0355,3.005,2.9668,2.9301,2.8737,2.8611,2.8257,2.7719,2.7436,2.7046,2.6535,2.6086,2.5352,2.4254,2.3694,2.3253,2.2848,2.2547,2.2424,2.2365,2.2225,2.2101,2.2063,2.1911,2.1741,2.154,2.1397,2.1292,2.1254,2.1282,2.1177,2.1167,2.1128,2.1012,2.0819,2.0537,2.0264,1.9902,1.9587,1.9271,1.8953,1.8603,1.8322,1.8201,1.791,1.7821,3.7442,3.6698,3.5913,3.5247,3.4724,3.4489,3.4397,3.4397,3.4397,3.4397,3.4397,3.4397,3.4397,3.4397,3.4397,3.4397,3.4358,3.4058,3.4058,3.4358,3.4397,3.4397,3.4397,3.4397,3.4397,3.4397,3.4314,3.4189,3.3992,3.3949,3.3852,3.3713,3.3641,3.3598,3.3641,3.3768,3.3949,3.4147,3.4356,3.4605,3.4772,3.427,3.386,3.3608,3.2408,3.1617,3.1485,3.1656,3.189,3.2109,3.2169,3.2205,3.2205,3.2205,3.2205,3.2205,3.2205,3.2182,3.2073,3.1977,3.1853,3.1693,3.1421,3.1272,3.1198,3.1099,3.0986,3.0874,3.0773,3.0635,3.047,3.0203,2.9845,2.949,2.9235,2.9043,2.8784,2.8472,2.8079,2.7373,2.6577,2.5542,2.4893,2.4387,2.4034,2.3455,2.3155,2.2961,2.2628,2.2451,2.2342,2.2289,2.2214,2.2149,2.2111,2.1769,2.1589,2.155,2.1512,2.1436,2.1397,2.1282,2.1167,2.1089,2.0848,2.077,2.0498,2.0059,1.9706,1.9192,1.8882,1.8723,1.8571,1.8362,1.8233,3.7024,3.6096,3.5534,3.4946,3.4424,3.4397,3.4397,3.4397,3.4397,3.4397,3.4397,3.4397,3.4397,3.4358,3.4214,3.4254,3.4345,3.4018,3.4058,3.4371,3.4397,3.4397,3.4397,3.4397,3.4397,3.4397,3.4397,3.4314,3.4202,3.4202,3.4105,3.3924,3.3839,3.3852,3.3852,3.3992,3.4202,3.4397,3.4579,3.4799,3.5019,3.4699,3.4393,3.41,3.3342,3.2571,3.2003,3.1924,3.2,3.2132,3.2205,3.2205,3.2205,3.2205,3.2205,3.2205,3.2205,3.2205,3.2169,3.2073,3.1963,3.189,3.1582,3.1384,3.131,3.1099,3.1024,3.0986,3.0874,3.0773,3.066,3.0419,3.0203,2.9934,2.9677,2.9509,2.9392,2.9145,2.87,2.8044,2.7111,2.6188,2.5481,2.5222,2.4808,2.4144,2.3923,2.3683,2.3329,2.3128,2.2975,2.2954,2.2781,2.2662,2.2522,2.2279,2.205,2.198,2.1845,2.1731,2.1655,2.1502,2.1397,2.132,2.1282,2.1244,2.1012,2.0615,2.0108,1.9597,1.9271,1.9103,1.8962,1.8772,1.8683,3.6645,3.6018,3.5508,3.492,3.4437,3.4397,3.4397,3.4397,3.4397,3.4397,3.4397,3.4397,3.4397,3.4306,3.3979,3.3953,3.4319,3.4332,3.4332,3.4397,3.4397,3.4397,3.4397,3.4397,3.4397,3.4397,3.4397,3.4397,3.4356,3.4356,3.4356,3.4314,3.416,3.4076,3.4118,3.416,3.4243,3.4481,3.4688,3.4895,3.5072,3.5101,3.4847,3.438,3.4326,3.3854,3.2896,3.229,3.2054,3.2182,3.2205,3.2205,3.2218,3.2259,3.2259,3.23,3.2273,3.2273,3.2277,3.2331,3.2276,3.2142,3.1813,3.1681,3.1492,3.1228,3.1089,3.0999,3.0986,3.0911,3.0736,3.066,3.0508,3.0152,2.9934,2.9689,2.9509,2.938,2.9157,2.8526,2.7827,2.7209,2.6622,2.6074,2.5541,2.4992,2.473,2.4596,2.4307,2.4057,2.4119,2.4003,2.3606,2.3292,2.3033,2.2775,2.2594,2.2407,2.2197,2.2063,2.1987,2.1873,2.1769,2.1693,2.1617,2.1578,2.1282,2.0886,2.0722,2.0294,1.9932,1.9608,1.9539,1.9399,1.9082,3.6057,3.5495,3.492,3.458,3.441,3.4397,3.4397,3.4397,3.4397,3.4397,3.4397,3.4397,3.4397,3.4371,3.4214,3.4241,3.4384,3.4397,3.4397,3.4397,3.4397,3.4397,3.4397,3.4397,3.4397,3.4397,3.4397,3.4397,3.4397,3.4397,3.4397,3.4397,3.4314,3.4314,3.4327,3.4618,3.4825,3.4908,3.5223,3.5413,3.5521,3.5521,3.5413,3.5224,3.49,3.4507,3.4142,3.326,3.2593,3.2259,3.2205,3.2205,3.2273,3.2599,3.2803,3.287,3.32,3.3352,3.3352,3.3338,3.3311,3.3238,3.3111,3.2733,3.2224,3.193,3.1557,3.1129,3.1024,3.0986,3.0874,3.0773,3.0584,3.033,3.0113,2.9972,2.9793,2.9482,2.9131,2.8895,2.8219,2.7654,2.7267,2.6793,2.6305,2.5619,2.5387,2.519,2.4812,2.4653,2.4425,2.4353,2.4111,2.401,2.3852,2.3641,2.3436,2.3079,2.2755,2.238,2.2311,2.2203,2.2101,2.2025,2.1949,2.1759,2.1502,2.1282,2.1079,2.0876,2.0479,2.0323,2.0245,2.002,1.9666,3.56,3.5247,3.4659,3.4397,3.4397,3.4397,3.4397,3.4397,3.4397,3.4397,3.4397,3.4397,3.4397,3.4397,3.4397,3.4397,3.4397,3.4397,3.4397,3.4397,3.4397,3.4397,3.4358,3.4175,3.4228,3.4319,3.4188,3.4201,3.4384,3.4397,3.4397,3.4397,3.4397,3.4397,3.4439,3.4784,3.5003,3.5044,3.5372,3.5588,3.5588,3.5669,3.571,3.5655,3.5317,3.5019,3.4775,3.4095,3.3373,3.2707,3.2544,3.2544,3.2585,3.305,3.339,3.3457,3.3664,3.388,3.3908,3.384,3.3908,3.3869,3.3754,3.3503,3.2976,3.2718,3.2171,3.1583,3.1364,3.1222,3.1039,3.0874,3.0761,3.0634,3.0368,3.019,3.0037,2.9663,2.9339,2.9131,2.8697,2.8219,2.7817,2.7493,2.6994,2.6362,2.6091,2.5924,2.555,2.5326,2.5191,2.5044,2.4825,2.4763,2.4738,2.4552,2.4334,2.3818,2.3317,2.288,2.2552,2.2424,2.2289,2.2214,2.2138,2.1987,2.1759,2.1578,2.1425,2.1195,2.0954,2.0848,2.0693,2.0489,2.0216,3.5286,3.5168,3.4633,3.4397,3.4397,3.4397,3.4397,3.4397,3.4397,3.4397,3.4397,3.4397,3.4397,3.4397,3.4397,3.4397,3.4397,3.4397,3.4397,3.4397,3.4397,3.4397,3.4345,3.4005,3.4058,3.4267,3.3953,3.3979,3.4384,3.4397,3.4397,3.4397,3.4397,3.4397,3.4452,3.466,3.4797,3.488,3.5195,3.544,3.544,3.5588,3.571,3.571,3.5655,3.5385,3.4978,3.4707,3.4204,3.3332,3.3156,3.3142,3.3213,3.3675,3.3948,3.3962,3.3989,3.4124,3.407,3.4206,3.4179,3.4206,3.4089,3.3744,3.3719,3.3354,3.2828,3.217,3.1873,3.1561,3.1155,3.0986,3.0949,3.0949,3.0634,3.0343,3.0152,2.9946,2.9728,2.947,2.9236,2.8843,2.8219,2.795,2.7452,2.7051,2.6823,2.658,2.6446,2.6192,2.6193,2.5956,2.5554,2.5417,2.5329,2.5131,2.4902,2.4501,2.4035,2.3632,2.3112,2.2869,2.2648,2.2541,2.2401,2.2229,2.2025,2.1856,2.1703,2.1502,2.1359,2.1292,2.1138,2.0935,2.081,3.5038,3.4633,3.4463,3.4397,3.4397,3.4397,3.4397,3.4397,3.4397,3.4397,3.4397,3.4397,3.4397,3.4397,3.4397,3.4397,3.4397,3.4397,3.4397,3.4397,3.4397,3.4397,3.4397,3.4254,3.4214,3.4347,3.4151,3.4254,3.4384,3.44,3.4384,3.4397,3.4397,3.4397,3.4439,3.4673,3.4797,3.4852,3.5208,3.5399,3.544,3.5602,3.571,3.571,3.571,3.5628,3.5385,3.5005,3.4477,3.3824,3.3677,3.3677,3.3731,3.4233,3.4558,3.4612,3.4938,3.5181,3.5208,3.5154,3.5181,3.5209,3.5087,3.49,3.431,3.4178,3.3474,3.2576,3.2118,3.1793,3.1219,3.1024,3.1024,3.0986,3.0761,3.0533,3.0343,3.0152,2.9998,2.9831,2.9209,2.8736,2.8379,2.7909,2.7435,2.719,2.7026,2.6903,2.6809,2.6644,2.649,2.6396,2.6176,2.6011,2.5895,2.5716,2.5448,2.515,2.4796,2.4621,2.4102,2.3655,2.3399,2.3203,2.2928,2.2738,2.2341,2.2067,2.1904,2.1976,2.1858,2.1804,2.1671,2.1476,2.1354,3.4711,3.4397,3.4397,3.4397,3.4397,3.4397,3.4397,3.4397,3.4397,3.4397,3.4397,3.4397,3.4397,3.4397,3.4397,3.4397,3.4397,3.4397,3.4397,3.4397,3.4397,3.4337,3.4249,3.4168,3.4091,3.4179,3.403,3.4041,3.4212,3.4278,3.4314,3.44,3.4397,3.4397,3.4384,3.4535,3.4618,3.4714,3.5031,3.5277,3.5277,3.5575,3.5683,3.571,3.571,3.571,3.5655,3.5344,3.4788,3.4179,3.4124,3.4273,3.4328,3.4843,3.5154,3.5181,3.5507,3.5696,3.571,3.571,3.571,3.571,3.571,3.5466,3.5076,3.4915,3.4286,3.3446,3.2905,3.2287,3.1647,3.1219,3.1037,3.0986,3.0874,3.0723,3.0533,3.033,3.019,2.996,2.9573,2.8973,2.8697,2.807,2.7667,2.7383,2.719,2.7108,2.7026,2.6862,2.6727,2.6644,2.6561,2.6393,2.6235,2.6066,2.5961,2.5634,2.5379,2.5248,2.481,2.4312,2.4081,2.3779,2.3513,2.3225,2.293,2.2738,2.2772,2.2778,2.2543,2.2424,2.2364,2.2152,2.1988,3.4397,3.4397,3.4397,3.4397,3.4397,3.4397,3.4397,3.4397,3.4397,3.4397,3.4397,3.4397,3.4397,3.4397,3.4397,3.4397,3.4397,3.4397,3.4397,3.4397,3.4387,3.4303,3.41,3.3911,3.3873,3.3937,3.3591,3.3846,3.422,3.4246,3.4336,3.4446,3.4481,3.4397,3.4397,3.4397,3.4397,3.4535,3.4949,3.5195,3.5277,3.5616,3.5858,3.5844,3.5804,3.575,3.571,3.5615,3.5195,3.4165,3.4612,3.4856,3.4951,3.5452,3.5642,3.5655,3.5683,3.571,3.571,3.571,3.571,3.571,3.571,3.571,3.5561,3.5453,3.5063,3.4285,3.3751,3.2969,3.222,3.1516,3.1192,3.1179,3.1129,3.0911,3.0761,3.0571,3.0368,3.0152,3.0113,2.9599,2.9118,2.8605,2.8219,2.7626,2.7383,2.7219,2.7138,2.7026,2.6933,2.6891,2.6768,2.6655,2.652,2.6385,2.629,2.6119,2.5898,2.5692,2.5212,2.485,2.4679,2.4414,2.4085,2.3941,2.3856,2.3745,2.3671,2.3477,2.3198,2.3226,2.3241,2.2983,2.2791,3.4397,3.4397,3.4397,3.4397,3.4397,3.4397,3.4397,3.4397,3.4397,3.4397,3.4397,3.4397,3.4397,3.4397,3.4397,3.4397,3.4397,3.4397,3.4397,3.4397,3.4397,3.4231,3.4031,3.39,3.4007,3.4058,3.4348,3.4482,3.4604,3.4661,3.4885,3.4828,3.4496,3.4397,3.4397,3.4397,3.4397,3.4522,3.5031,3.5318,3.544,3.5898,3.6192,3.6192,3.6072,3.5898,3.575,3.571,3.5588,3.5398,3.5411,3.5412,3.5493,3.5615,3.571,3.571,3.571,3.571,3.571,3.571,3.571,3.571,3.571,3.571,3.571,3.5683,3.5278,3.4605,3.3948,3.3334,3.2557,3.173,3.1563,3.1659,3.1425,3.105,3.0911,3.0773,3.0622,3.0457,2.9985,2.947,2.9263,2.8645,2.8247,2.7869,2.7586,2.7371,2.726,2.7179,2.7108,2.7067,2.6974,2.685,2.6779,2.6655,2.6531,2.6448,2.6229,2.6124,2.5683,2.534,2.5168,2.492,2.465,2.4581,2.4599,2.4378,2.4229,2.4033,2.3902,2.3888,2.3881,2.3664,2.3614,3.4397,3.4397,3.4397,3.4397,3.4397,3.4397,3.4397,3.4397,3.4397,3.4397,3.4397,3.4397,3.4397,3.4397,3.4397,3.4397,3.4397,3.4397,3.4397,3.4397,3.4371,3.4241,3.4044,3.3947,3.3958,3.3873,3.4355,3.4503,3.4401,3.4697,3.4808,3.4659,3.4461,3.4384,3.4397,3.4397,3.4397,3.4522,3.5059,3.5399,3.5521,3.6018,3.6405,3.6405,3.6286,3.6112,3.5938,3.5898,3.5804,3.5764,3.571,3.571,3.571,3.571,3.571,3.571,3.571,3.571,3.571,3.571,3.571,3.571,3.571,3.571,3.571,3.571,3.5561,3.5062,3.4536,3.3904,3.312,3.2355,3.2162,3.215,3.1982,3.1551,3.1215,3.0949,3.0811,3.066,3.0343,2.996,2.9521,2.8961,2.8526,2.8259,2.7696,2.7482,2.7371,2.729,2.719,2.7149,2.7097,2.7015,2.6974,2.685,2.6685,2.6603,2.6437,2.6396,2.6218,2.5931,2.5659,2.5409,2.5193,2.5262,2.5235,2.5009,2.4851,2.4839,2.4759,2.4621,2.4518,2.449,2.4449,3.4397,3.4397,3.4397,3.4397,3.4397,3.4397,3.4397,3.4397,3.4397,3.4397,3.4397,3.4397,3.4397,3.4397,3.4397,3.4397,3.4397,3.4397,3.4397,3.4397,3.4397,3.4265,3.4113,3.3971,3.3851,3.3589,3.4159,3.4219,3.4382,3.4478,3.4766,3.446,3.4355,3.4426,3.4397,3.4481,3.4564,3.4647,3.5318,3.5642,3.5723,3.6218,3.651,3.6484,3.6431,3.6365,3.6206,3.6112,3.6032,3.5804,3.5764,3.575,3.571,3.571,3.571,3.571,3.571,3.571,3.571,3.571,3.571,3.571,3.571,3.571,3.571,3.571,3.5683,3.5453,3.502,3.4492,3.3877,3.3133,3.2829,3.2804,3.2699,3.216,3.1625,3.1277,3.1037,3.0773,3.0584,3.0305,2.996,2.9482,2.9091,2.8618,2.8047,2.7563,2.7482,2.7412,2.7301,2.719,2.7138,2.7097,2.7108,2.7067,2.6891,2.6809,2.6685,2.6644,2.6603,2.6348,2.6063,2.5922,2.5784,2.5795,2.5732,2.557,2.552,2.5644,2.5526,2.5278,2.5228,2.5253,2.521,3.4397,3.4397,3.4397,3.4397,3.4397,3.4397,3.4397,3.4397,3.4397,3.4397,3.4397,3.4397,3.4397,3.4397,3.4397,3.4397,3.4397,3.4397,3.4397,3.4397,3.4371,3.429,3.4113,3.4001,3.4028,3.4209,3.439,3.465,3.5099,3.5151,3.5032,3.5184,3.4787,3.4481,3.4564,3.4729,3.4962,3.5031,3.5696,3.6058,3.6218,3.6575,3.6758,3.6668,3.6668,3.6549,3.6405,3.6365,3.6246,3.6032,3.6032,3.5898,3.5764,3.571,3.571,3.571,3.571,3.571,3.571,3.571,3.571,3.571,3.571,3.571,3.571,3.571,3.571,3.556,3.5181,3.4734,3.4614,3.3917,3.3799,3.3735,3.3269,3.2539,3.2224,3.1896,3.1521,3.1323,3.1005,3.066,3.0318,2.9921,2.9534,2.9104,2.8578,2.8007,2.7644,2.7534,2.7412,2.7301,2.719,2.719,2.719,2.7149,2.7108,2.7015,2.6933,2.685,2.6809,2.6633,2.6467,2.6313,2.6104,2.5935,2.5946,2.5937,2.5906,2.5822,2.5822,2.5812,2.5686,2.5549,2.5517,3.4397,3.4397,3.4397,3.4397,3.4397,3.4397,3.4397,3.4397,3.4397,3.4397,3.4397,3.4397,3.4397,3.4397,3.4397,3.4397,3.4397,3.4397,3.4397,3.4397,3.4371,3.429,3.4126,3.4018,3.4278,3.4501,3.4523,3.4636,3.5276,3.5609,3.5314,3.4929,3.4859,3.4936,3.4784,3.5031,3.5249,3.5413,3.5858,3.6272,3.6431,3.6797,3.6915,3.6875,3.685,3.6747,3.6603,3.6563,3.6445,3.6286,3.6166,3.6046,3.5898,3.5764,3.571,3.571,3.571,3.571,3.571,3.571,3.571,3.571,3.571,3.571,3.571,3.571,3.571,3.5588,3.5181,3.4924,3.5181,3.4588,3.4319,3.4131,3.3798,3.3357,3.289,3.2691,3.2421,3.2061,3.1593,3.1132,3.0622,3.0279,2.9921,2.9534,2.9104,2.8538,2.7926,2.7736,2.7615,2.7301,2.719,2.719,2.719,2.719,2.719,2.7149,2.7149,2.7067,2.6985,2.685,2.6768,2.6644,2.6437,2.6229,2.6104,2.6104,2.6032,2.5948,2.5948,2.5937,2.5906,2.5822,2.578,3.4397,3.4397,3.4397,3.4397,3.4397,3.4397,3.4397,3.4397,3.4397,3.4397,3.4397,3.4397,3.4397,3.4397,3.4397,3.4397,3.4397,3.4397,3.4397,3.4397,3.4397,3.4275,3.419,3.4193,3.4353,3.4765,3.4653,3.4612,3.5063,3.548,3.5247,3.4915,3.5238,3.5318,3.4962,3.5236,3.5413,3.5602,3.5924,3.6258,3.6536,3.6797,3.6978,3.6978,3.6978,3.6929,3.6786,3.6747,3.6628,3.6484,3.6325,3.6192,3.6072,3.5898,3.5764,3.571,3.571,3.571,3.571,3.571,3.571,3.571,3.571,3.571,3.571,3.571,3.571,3.5615,3.5168,3.4924,3.5181,3.5032,3.4612,3.4343,3.4451,3.4451,3.3727,3.338,3.3382,3.2923,3.225,3.1747,3.1378,3.0867,3.0522,2.9972,2.9534,2.8973,2.8447,2.807,2.7829,2.7383,2.719,2.719,2.719,2.719,2.719,2.719,2.719,2.7149,2.7108,2.7067,2.6985,2.6903,2.685,2.6644,2.6437,2.6271,2.6271,2.6229,2.6104,2.6021,2.6021,2.599,2.5948,3.4397,3.4397,3.4397,3.4397,3.4397,3.4397,3.4397,3.4397,3.4397,3.4397,3.4397,3.4397,3.4397,3.4397,3.4397,3.4397,3.4397,3.4397,3.4397,3.4397,3.4397,3.4387,3.4312,3.4178,3.4472,3.4834,3.4819,3.5086,3.5234,3.518,3.5102,3.4941,3.4911,3.488,3.4921,3.5399,3.5629,3.5764,3.6298,3.6693,3.6836,3.694,3.6978,3.6978,3.6978,3.6978,3.6915,3.6915,3.6836,3.6682,3.6642,3.6445,3.6152,3.6086,3.5912,3.5804,3.571,3.571,3.571,3.571,3.571,3.571,3.571,3.571,3.571,3.571,3.571,3.5656,3.5141,3.4856,3.4951,3.4829,3.4707,3.4666,3.4626,3.4734,3.4424,3.4223,3.4172,3.4013,3.3468,3.2794,3.2261,3.1706,3.1151,3.0509,2.9947,2.9404,2.8843,2.8419,2.8002,2.7557,2.7394,2.7394,2.7342,2.7313,2.726,2.7219,2.719,2.719,2.7149,2.7149,2.7149,2.7108,2.7056,2.6974,2.6727,2.6561,2.6561,2.6479,2.6354,2.6271,2.6188,2.6157,2.6157,3.4397,3.4397,3.4397,3.4397,3.4397,3.4397,3.4397,3.4397,3.4397,3.4397,3.4397,3.4397,3.4397,3.4397,3.4397,3.4397,3.4397,3.4397,3.4397,3.4397,3.4397,3.4397,3.4374,3.4314,3.453,3.46,3.4859,3.482,3.5035,3.5184,3.5184,3.4787,3.5182,3.5331,3.5044,3.5616,3.5871,3.6072,3.6391,3.6668,3.6733,3.6875,3.6978,3.6978,3.6978,3.6978,3.6978,3.6978,3.694,3.685,3.6786,3.6642,3.6391,3.6232,3.6032,3.5938,3.5764,3.571,3.571,3.571,3.571,3.571,3.571,3.571,3.571,3.571,3.571,3.571,3.5167,3.4816,3.4666,3.4477,3.4341,3.4341,3.4531,3.4748,3.4843,3.5087,3.4993,3.4832,3.4604,3.3857,3.3087,3.2406,3.1654,3.079,3.0305,2.9908,2.9236,2.8566,2.8139,2.7719,2.7679,2.7679,2.7586,2.7545,2.7452,2.7371,2.7219,2.7231,2.719,2.719,2.7272,2.7231,2.7179,2.7056,2.6933,2.685,2.6768,2.6685,2.6603,2.652,2.6437,2.6396,2.6354,3.4397,3.4397,3.4397,3.4397,3.4397,3.4397,3.4397,3.4397,3.4397,3.4397,3.4358,3.428,3.4241,3.4332,3.4267,3.4214,3.4397,3.4397,3.4397,3.4397,3.4397,3.4397,3.4384,3.4413,3.4321,3.4214,3.4637,3.4612,3.4573,3.4762,3.4883,3.4481,3.5195,3.5399,3.5372,3.5616,3.5992,3.6206,3.6445,3.6603,3.6668,3.6875,3.6954,3.6978,3.6978,3.6978,3.6978,3.6978,3.6978,3.6954,3.6889,3.6747,3.6628,3.6445,3.6192,3.6072,3.5898,3.5804,3.5764,3.571,3.571,3.571,3.571,3.571,3.571,3.571,3.571,3.571,3.4897,3.4626,3.445,3.403,3.3772,3.388,3.4165,3.449,3.4788,3.4978,3.5263,3.5304,3.5088,3.4726,3.3976,3.3126,3.2208,3.1158,3.0609,3.0305,2.9638,2.8895,2.8459,2.8122,2.7881,2.7881,2.78,2.7748,2.7644,2.7522,2.7383,2.7423,2.7464,2.7476,2.7476,2.7435,2.7383,2.726,2.7219,2.7056,2.6933,2.6891,2.685,2.6768,2.6685,2.6685,2.6603,3.4397,3.4397,3.4397,3.4397,3.4397,3.4397,3.4397,3.4397,3.4397,3.4397,3.4332,3.3979,3.4045,3.4214,3.4058,3.4045,3.4397,3.4397,3.4397,3.4397,3.4397,3.4397,3.4397,3.4345,3.4201,3.3927,3.4299,3.4247,3.3968,3.4487,3.4524,3.4481,3.5072,3.5154,3.5236,3.5562,3.5938,3.6152,3.6365,3.6589,3.6772,3.694,3.6978,3.6978,3.6978,3.6978,3.6978,3.6978,3.6978,3.6978,3.6954,3.6889,3.6747,3.6642,3.6431,3.6232,3.6072,3.5938,3.5817,3.571,3.571,3.571,3.571,3.571,3.571,3.571,3.571,3.5628,3.4843,3.4287,3.3962,3.3566,3.3485,3.3783,3.4206,3.4572,3.4802,3.4816,3.5114,3.556,3.5399,3.494,3.451,3.3641,3.2638,3.1621,3.0981,3.0676,3.0061,2.9376,2.8958,2.8562,2.8203,2.8082,2.8002,2.795,2.7978,2.7857,2.7667,2.7788,2.7938,2.7869,2.7679,2.7841,2.7788,2.7626,2.7505,2.7423,2.7383,2.7219,2.7149,2.7097,2.7003,2.6921,2.6798,3.4397,3.4397,3.4397,3.4397,3.4397,3.4397,3.4397,3.4397,3.4397,3.4397,3.4371,3.4201,3.4201,3.428,3.4254,3.4188,3.4384,3.4397,3.4397,3.4397,3.4397,3.4397,3.4397,3.4371,3.4293,3.4123,3.4293,3.4496,3.4476,3.4526,3.469,3.4867,3.5031,3.5154,3.5358,3.5521,3.5723,3.5884,3.6152,3.647,3.6389,3.6822,3.6978,3.6978,3.6978,3.6978,3.6978,3.6978,3.6978,3.6978,3.6978,3.6954,3.6889,3.6786,3.6628,3.6431,3.6272,3.6072,3.5952,3.5804,3.571,3.571,3.571,3.571,3.571,3.571,3.571,3.5452,3.4938,3.4395,3.4368,3.3975,3.3758,3.4043,3.4328,3.4639,3.4843,3.4856,3.5087,3.5574,3.5357,3.4898,3.4481,3.4039,3.3031,3.2087,3.151,3.0958,3.0394,2.9995,2.9605,2.9246,2.8882,2.8697,2.8618,2.8538,2.8419,2.8191,2.799,2.8151,2.8259,2.8002,2.7893,2.8082,2.8271,2.8151,2.8018,2.7898,2.7736,2.7534,2.7505,2.7545,2.7371,2.7196,2.7044,3.4397,3.4397,3.4397,3.4397,3.4397,3.4397,3.4397,3.4397,3.4397,3.428,3.4162,3.4162,3.4162,3.4162,3.4136,3.4267,3.4345,3.4397,3.4397,3.4397,3.4397,3.4397,3.4397,3.4358,3.428,3.4267,3.4483,3.4607,3.44,3.4733,3.4977,3.5113,3.5195,3.5277,3.5399,3.5588,3.5642,3.5777,3.6018,3.6351,3.6324,3.6705,3.6978,3.6978,3.6978,3.6978,3.6978,3.6978,3.6978,3.6978,3.6978,3.6978,3.6954,3.6889,3.6747,3.6628,3.647,3.6272,3.6112,3.5898,3.571,3.571,3.571,3.571,3.571,3.571,3.571,3.5655,3.5141,3.4802,3.4775,3.4233,3.3921,3.4084,3.4138,3.4423,3.4802,3.4951,3.5236,3.5601,3.533,3.5141,3.4763,3.4319,3.3118,3.2292,3.1882,3.1355,3.0929,3.0573,3.0417,3.002,2.96,2.9484,2.9367,2.9145,2.8882,2.8657,2.8498,2.8459,2.8459,2.8271,2.8271,2.855,2.8657,2.8657,2.8657,2.8645,2.8287,2.7846,2.7817,2.7829,2.7708,2.7505,2.7371,3.4397,3.4397,3.4397,3.4397,3.4397,3.4397,3.4397,3.4397,3.4397,3.4149,3.3822,3.377,3.3757,3.3757,3.3888,3.4084,3.4345,3.4397,3.4397,3.4397,3.4397,3.4397,3.4397,3.4358,3.4282,3.397,3.4303,3.4518,3.4177,3.4777,3.5168,3.5358,3.5399,3.5399,3.544,3.5588,3.5804,3.6072,3.6232,3.6431,3.6589,3.6836,3.6978,3.6978,3.6978,3.6978,3.6978,3.6978,3.6978,3.6978,3.6978,3.6978,3.6978,3.6954,3.6889,3.6747,3.6682,3.6563,3.6405,3.5978,3.5804,3.571,3.571,3.571,3.571,3.571,3.571,3.5669,3.5222,3.4924,3.4653,3.4395,3.4301,3.4287,3.4395,3.4531,3.4938,3.4938,3.5181,3.5493,3.5615,3.5588,3.5128,3.4495,3.3221,3.2406,3.2139,3.1724,3.1333,3.1236,3.1126,3.0689,3.0254,3.0075,2.9883,2.9613,2.9341,2.9118,2.9,2.8961,2.8961,2.8922,2.9,2.9091,2.9248,2.9365,2.9404,2.9443,2.8961,2.8514,2.8139,2.8042,2.7962,2.7881,2.7748,3.4397,3.4397,3.4397,3.4397,3.4397,3.4397,3.4397,3.4397,3.4384,3.428,3.4162,3.4136,3.4123,3.4123,3.411,3.4201,3.4345,3.4397,3.4397,3.4397,3.4397,3.4397,3.4397,3.4371,3.4376,3.4447,3.4731,3.4896,3.4955,3.521,3.5359,3.5548,3.5548,3.5588,3.5629,3.5669,3.5764,3.5884,3.6178,3.6431,3.6549,3.6797,3.6978,3.6978,3.6978,3.6978,3.6978,3.6978,3.6978,3.6978,3.6978,3.6978,3.6978,3.6978,3.6954,3.685,3.6825,3.6603,3.6445,3.6192,3.6018,3.5844,3.575,3.575,3.571,3.571,3.571,3.571,3.5506,3.5343,3.533,3.5289,3.5221,3.5235,3.5303,3.5263,3.5385,3.5019,3.4978,3.5316,3.5506,3.5263,3.4951,3.4627,3.3578,3.2777,3.2457,3.2053,3.1635,3.1847,3.1831,3.131,3.0885,3.0634,3.0406,3.0164,2.9882,2.965,2.947,2.9406,2.9445,2.9496,2.9649,2.9738,2.9882,3.0037,3.0024,2.9908,2.9638,2.9236,2.8855,2.855,2.8419,2.8351,2.8231,3.4397,3.4397,3.4397,3.4397,3.4358,3.4201,3.4018,3.3888,3.3992,3.3927,3.3613,3.3862,3.394,3.3927,3.4201,3.4397,3.4397,3.4397,3.4397,3.4397,3.4397,3.4397,3.4397,3.4397,3.4509,3.4756,3.4921,3.5059,3.5305,3.5453,3.5562,3.5683,3.571,3.5669,3.571,3.571,3.571,3.5844,3.6058,3.6312,3.647,3.6693,3.6915,3.6993,3.6978,3.6978,3.6978,3.6978,3.6978,3.6978,3.6978,3.6978,3.6978,3.6978,3.6978,3.6954,3.6889,3.6707,3.6549,3.651,3.6312,3.6018,3.5924,3.5898,3.5844,3.5844,3.5764,3.5764,3.571,3.571,3.5696,3.5723,3.571,3.5696,3.5683,3.5669,3.5588,3.5195,3.5141,3.5438,3.5465,3.5141,3.4816,3.445,3.3937,3.3347,3.2812,3.2444,3.2094,3.2286,3.2475,3.2069,3.1691,3.1517,3.1185,3.0776,3.0483,3.0177,3.0062,3.0036,2.9883,2.9973,3.0164,3.0356,3.0407,3.0458,3.0495,3.0368,3.0062,2.9793,2.9521,2.9209,2.9,2.8764,2.8618,3.4397,3.4397,3.4397,3.4397,3.4319,3.394,3.3391,3.2868,3.3417,3.3064,3.2084,3.3378,3.3613,3.3221,3.3953,3.4371,3.4397,3.4397,3.4397,3.4397,3.4397,3.4397,3.4397,3.4397,3.4618,3.4797,3.5017,3.5168,3.544,3.5642,3.5737,3.5777,3.5817,3.5764,3.5723,3.571,3.571,3.5804,3.5898,3.6192,3.6391,3.6563,3.6811,3.6915,3.6978,3.6978,3.6978,3.6978,3.6978,3.6978,3.6978,3.6978,3.6978,3.6978,3.6978,3.6978,3.6993,3.685,3.6747,3.6707,3.6628,3.6417,3.6431,3.6325,3.6166,3.6072,3.6018,3.5898,3.5844,3.5804,3.5764,3.5723,3.571,3.571,3.571,3.571,3.571,3.5615,3.5601,3.5669,3.5669,3.5452,3.5059,3.4719,3.4312,3.365,3.3155,3.3036,3.2751,3.2809,3.2921,3.2909,3.2581,3.245,3.2101,3.1727,3.1314,3.1073,3.0893,3.0778,3.0611,3.0508,3.07,3.0878,3.0814,3.0838,3.0937,3.0798,3.052,3.0292,3.0062,2.9728,2.9404,2.9157,2.8961,3.4397,3.4397,3.4397,3.4397,3.4384,3.4228,3.3849,3.3443,3.3914,3.3731,3.3143,3.3835,3.3901,3.3966,3.428,3.4371,3.4397,3.4397,3.4397,3.4397,3.4397,3.4397,3.4397,3.4439,3.466,3.4921,3.5127,3.529,3.5602,3.5858,3.5992,3.5992,3.5952,3.5858,3.5764,3.571,3.571,3.5723,3.5817,3.6072,3.6272,3.6484,3.6693,3.6889,3.6978,3.6978,3.6978,3.6978,3.6978,3.6978,3.6978,3.6978,3.6978,3.6978,3.6978,3.6978,3.6978,3.6954,3.6915,3.6875,3.6836,3.6797,3.6797,3.6615,3.6431,3.6312,3.6272,3.6152,3.6018,3.5978,3.5938,3.5844,3.5804,3.5764,3.5764,3.571,3.571,3.571,3.571,3.571,3.571,3.5655,3.5316,3.5045,3.4597,3.3905,3.3512,3.346,3.3344,3.3324,3.3596,3.3572,3.3426,3.3281,3.3138,3.2812,3.2378,3.1974,3.1727,3.1479,3.1245,3.1179,3.1318,3.1408,3.1412,3.1395,3.1386,3.1187,3.0898,3.0874,3.0647,3.0228,2.9844,2.9599,2.9392,3.4397,3.4397,3.4397,3.4397,3.4397,3.4397,3.3979,3.343,3.3822,3.3666,3.3038,3.3692,3.4084,3.4058,3.4254,3.4397,3.4397,3.4397,3.4397,3.4397,3.4397,3.4397,3.4397,3.4439,3.4688,3.4949,3.5154,3.5318,3.5683,3.5952,3.6086,3.6086,3.6086,3.5952,3.5777,3.571,3.571,3.571,3.5764,3.5938,3.6152,3.6351,3.6628,3.685,3.6954,3.6978,3.6978,3.6978,3.6978,3.6978,3.6978,3.6978,3.6978,3.6978,3.6978,3.6978,3.6978,3.6978,3.6978,3.6978,3.6978,3.6978,3.6978,3.6875,3.6693,3.6575,3.647,3.6365,3.6272,3.6192,3.6112,3.6018,3.5938,3.5844,3.5804,3.571,3.571,3.571,3.571,3.571,3.571,3.571,3.5533,3.5289,3.4991,3.4475,3.4109,3.3935,3.3799,3.3639,3.4128,3.4508,3.428,3.4104,3.3961,3.3749,3.3258,3.2769,3.2361,3.2084,3.183,3.1617,3.154,3.175,3.2013,3.1929,3.1729,3.1511,3.1286,3.1211,3.1061,3.0609,3.0267,3.0101,2.9934,3.4371,3.4319,3.4332,3.4332,3.4397,3.4384,3.3757,3.2829,3.3456,3.3038,3.2359,3.313,3.3692,3.3927,3.4123,3.4306,3.4358,3.4397,3.4397,3.4397,3.4397,3.4397,3.4397,3.4439,3.4701,3.4949,3.5195,3.5358,3.5723,3.6018,3.6166,3.6126,3.6126,3.5978,3.5764,3.571,3.571,3.571,3.5764,3.5858,3.6112,3.6325,3.6484,3.6733,3.6875,3.6978,3.6978,3.6978,3.6978,3.6978,3.6978,3.6978,3.6978,3.6978,3.6978,3.6978,3.6978,3.6978,3.6978,3.6978,3.6978,3.6978,3.6978,3.694,3.6836,3.6772,3.6668,3.6589,3.651,3.6431,3.6351,3.6232,3.6112,3.6058,3.6018,3.5924,3.5844,3.5804,3.571,3.571,3.571,3.571,3.5696,3.5438,3.5194,3.4856,3.4612,3.4395,3.4273,3.4043,3.4409,3.51,3.4979,3.4776,3.4723,3.4496,3.4079,3.3624,3.316,3.2731,3.2463,3.2067,3.1659,3.1931,3.2165,3.2131,3.1987,3.179,3.1582,3.1434,3.1248,3.0911,3.0685,3.0533,3.0317,3.4149,3.3796,3.3783,3.4005,3.4371,3.4397,3.3731,3.2816,3.3783,3.3496,3.2764,3.3234,3.3796,3.4071,3.394,3.4071,3.4358,3.4397,3.4397,3.4397,3.4397,3.4397,3.4397,3.4397,3.4701,3.4949,3.5208,3.5494,3.6032,3.6272,3.6312,3.6312,3.6312,3.6098,3.5764,3.5764,3.571,3.571,3.571,3.5898,3.6232,3.6218,3.6324,3.6719,3.6978,3.6978,3.6978,3.6978,3.6978,3.6978,3.6978,3.6978,3.6978,3.6978,3.6978,3.6978,3.7031,3.7046,3.7116,3.7169,3.7183,3.7088,3.7074,3.7031,3.6993,3.6954,3.6875,3.6811,3.6733,3.6668,3.6589,3.6445,3.6325,3.6286,3.6232,3.6112,3.6018,3.5884,3.575,3.571,3.571,3.571,3.571,3.5588,3.5357,3.5073,3.4856,3.4694,3.4707,3.4599,3.4599,3.5141,3.5439,3.5358,3.5317,3.5181,3.475,3.452,3.4158,3.3646,3.3063,3.2678,3.2293,3.2135,3.2181,3.2243,3.2233,3.2117,3.195,3.173,3.1582,3.1323,3.1213,3.1063,3.0773,3.4005,3.394,3.3953,3.411,3.4319,3.4149,3.3509,3.2921,3.3378,3.3143,3.2607,3.3378,3.4005,3.4162,3.394,3.4018,3.4358,3.4397,3.4397,3.4397,3.4397,3.4397,3.4397,3.4397,3.4701,3.5003,3.5318,3.5723,3.6325,3.6405,3.6391,3.647,3.6431,3.6232,3.5898,3.5804,3.571,3.571,3.571,3.5938,3.6286,3.6272,3.6377,3.6772,3.6954,3.6954,3.6978,3.6978,3.6978,3.6978,3.6978,3.6978,3.6978,3.6978,3.6978,3.7017,3.7099,3.7261,3.743,3.7526,3.7551,3.7561,3.7671,3.7781,3.7201,3.7148,3.7031,3.6954,3.6889,3.6811,3.6772,3.6654,3.6563,3.6524,3.6405,3.6286,3.6192,3.6058,3.5978,3.5938,3.5844,3.571,3.571,3.571,3.552,3.5493,3.5209,3.5168,3.5154,3.5099,3.51,3.5181,3.5533,3.5669,3.5588,3.5493,3.5412,3.5209,3.5018,3.4138,3.3341,3.3176,3.2932,3.2521,3.2291,3.244,3.2413,3.2273,3.2169,3.1986,3.1877,3.178,3.1673,3.158,3.1412,3.3783,3.4254,3.4188,3.4214,3.4228,3.3809,3.3195,3.2659,3.2685,3.2359,3.1954,3.3391,3.3809,3.3901,3.3927,3.4188,3.4371,3.4397,3.4397,3.4397,3.4397,3.4397,3.4397,3.4439,3.4743,3.5072,3.544,3.5898,3.6405,3.6405,3.647,3.6628,3.651,3.6351,3.6112,3.5938,3.5844,3.5817,3.5858,3.5912,3.6126,3.6286,3.6524,3.6707,3.6889,3.6978,3.6978,3.6978,3.6978,3.7147,3.7175,3.7091,3.7007,3.6978,3.6978,3.7017,3.7095,3.7427,3.7827,3.7948,3.8122,3.8325,3.8492,3.8186,3.7508,3.7278,3.7201,3.7137,3.706,3.6982,3.6943,3.6903,3.6814,3.6735,3.6577,3.6445,3.6351,3.6272,3.6192,3.6112,3.5978,3.5844,3.5791,3.5791,3.5832,3.5818,3.5778,3.575,3.5656,3.552,3.5452,3.5465,3.5615,3.571,3.571,3.5696,3.5655,3.5574,3.5208,3.4326,3.3607,3.3322,3.2955,3.2467,3.2368,3.2436,3.2381,3.2232,3.2169,3.2169,3.2109,3.1977,3.1937,3.1899,3.2071,3.3208,3.3692,3.3234,3.3287,3.3692,3.36,3.2986,3.2137,3.2476,3.2136,3.1692,3.2385,3.3143,3.3561,3.3104,3.3391,3.4267,3.4345,3.4397,3.4397,3.4397,3.4397,3.4439,3.4522,3.4743,3.5113,3.5521,3.5938,3.6325,3.6405,3.647,3.6668,3.6682,3.6563,3.6351,3.6218,3.6138,3.6072,3.5992,3.6046,3.6126,3.6286,3.6484,3.6707,3.6875,3.6954,3.6978,3.6978,3.7288,3.7555,3.7639,3.74,3.7147,3.6978,3.6978,3.7017,3.7095,3.7395,3.7739,3.7926,3.81,3.8159,3.8198,3.8006,3.7619,3.7504,3.7402,3.7353,3.7275,3.7144,3.7091,3.7066,3.7041,3.6934,3.6842,3.6721,3.6575,3.647,3.6365,3.6325,3.6272,3.6193,3.6155,3.6197,3.628,3.6253,3.6253,3.6185,3.575,3.5723,3.5737,3.571,3.571,3.571,3.571,3.571,3.5683,3.5655,3.5452,3.4679,3.3987,3.3414,3.2993,3.2612,3.2341,3.2286,3.2218,3.2205,3.2205,3.2169,3.2169,3.2136,3.2112,3.23,3.2553]}]]